[[{"header":{"parameterUnit":"m.s-1","parameterCategory":1,"la1":30.6,"la2":29.2853,"lo1":-89.7004,"lo2":-87.6739,"dy":0.0162,"dx":0.0183,"nx":112,"ny":82,"refTime":"2023-05-03T00:00:00:Z","depth":0,"parameterNumber":2,"parameterNumberName":"U-component_of_WINDS"},"data":[0.0,0.0,0.0,0.0,0.0,0.0,0.0,0.0,0.0,0.0,0.0,0.0,0.0,0.0,0.0,0.0,0.0,0.0,0.0,0.0,0.0,0.0,0.0,0.0,0.0,0.0,0.0,0.0,0.0,0.0,0.0,0.0,0.0,0.0,0.0,0.0,0.0,0.0,0.0,0.0,0.0,0.0,0.0,0.0,0.0,0.0,0.0,0.0,0.0,0.0,0.0,0.0,0.0,0.0,0.0,0.0,0.0,0.0,0.0,0.0,0.0,0.0,0.0,0.0,0.0,0.0,0.0,0.0,0.0,0.0,0.0,0.0,0.0,0.0,0.0,0.0,0.0,0.0,0.0,0.0,0.0,0.0,0.0,0.0,0.0,0.0,0.0,0.0,0.0,0.0,1.8863,2.0687,2.3535,2.5303,2.5303,2.4268,2.3675,2.385,0.0,0.0,0.0,0.0,0.0,0.0,0.0,0.0,0.0,0.0,0.0,0.0,0.0,0.0,0.0,0.0,0.0,0.0,0.0,0.0,0.0,0.0,0.0,0.0,0.0,0.0,0.0,0.0,0.0,0.0,0.0,0.0,0.0,0.0,0.0,0.0,0.0,0.0,0.0,0.0,0.0,0.0,0.0,0.0,0.0,0.0,0.0,0.0,0.0,0.0,0.0,0.0,0.0,0.0,0.0,0.0,0.0,0.0,0.0,0.0,0.0,0.0,0.0,0.0,0.0,0.0,0.0,0.0,0.0,0.0,0.0,0.0,0.0,0.0,0.0,0.0,0.0,0.0,0.0,0.0,0.0,0.0,0.0,0.0,0.0,0.0,0.0,0.0,0.0,0.0,0.0,0.0,0.0,0.0,0.0,0.0,0.0,0.0,0.0,0.0,0.0,0.0,0.0,0.0,2.1456,2.3315,2.4581,2.5303,2.5303,2.3743,2.3138,2.3996,0.0,0.0,0.0,0.0,0.0,0.0,0.0,0.0,0.0,0.0,0.0,0.0,0.0,0.0,0.0,0.0,0.0,0.0,0.0,0.0,0.0,0.0,0.0,0.0,0.0,0.0,0.0,0.0,0.0,0.0,0.0,0.0,0.0,0.0,0.0,0.0,0.0,0.0,0.0,0.0,0.0,0.0,0.0,0.0,0.0,0.0,0.0,0.0,0.0,0.0,0.0,0.0,0.0,0.0,0.0,0.0,0.0,0.0,0.0,0.0,0.0,0.0,0.0,0.0,0.0,0.0,0.0,0.0,0.0,0.0,0.0,0.0,0.0,0.0,0.0,0.0,0.0,0.0,0.0,0.0,0.0,0.0,0.0,0.0,0.0,0.0,0.0,0.0,0.0,0.0,0.0,0.0,0.0,0.0,0.0,0.0,0.0,0.0,0.0,0.0,0.0,0.0,0.0,2.0918,2.2183,2.3916,2.4812,2.512,2.4697,2.2997,2.2526,2.3839,2.1397,0.0,0.0,0.0,0.0,0.0,0.0,0.0,0.0,0.0,0.0,0.0,0.0,0.0,0.0,0.0,0.0,0.0,0.0,0.0,0.0,0.0,0.0,0.0,0.0,0.0,0.0,0.0,0.0,0.0,0.0,0.0,0.0,0.0,0.0,0.0,0.0,0.0,0.0,0.0,0.0,0.0,0.0,0.0,0.0,0.0,0.0,0.0,0.0,0.0,0.0,0.0,0.0,0.0,0.0,0.0,0.0,0.0,0.0,0.0,0.0,0.0,0.0,0.0,0.0,0.0,0.0,0.0,0.0,0.0,0.0,0.0,0.0,0.0,0.0,0.0,0.0,0.0,0.0,0.0,0.0,0.0,0.0,0.0,0.0,0.0,0.0,0.0,0.0,0.0,0.0,0.0,0.0,0.0,0.0,0.0,0.0,0.0,0.0,0.0,0.0,0.0,0.0,2.1464,2.2058,2.3908,2.4639,2.4745,2.4092,2.2249,2.1905,2.3694,2.0891,0.0,0.0,0.0,0.0,0.0,0.0,0.0,0.0,0.0,0.0,0.0,0.0,0.0,0.0,0.0,0.0,0.0,0.0,0.0,0.0,0.0,0.0,0.0,0.0,0.0,0.0,0.0,0.0,0.0,0.0,0.0,0.0,0.0,0.0,0.0,0.0,0.0,0.0,0.0,0.0,0.0,0.0,0.0,0.0,0.0,0.0,0.0,0.0,0.0,0.0,0.0,0.0,0.0,0.0,0.0,0.0,0.0,0.0,0.0,0.0,0.0,0.0,0.0,0.0,0.0,0.0,0.0,0.0,0.0,0.0,0.0,0.0,0.0,0.0,0.0,0.0,0.0,0.0,0.0,0.0,0.0,0.0,0.0,0.0,0.0,0.0,0.0,0.0,0.0,0.0,0.0,0.0,0.0,0.0,0.0,0.0,0.0,0.0,0.0,0.0,0.0,0.0,2.1278,2.1346,2.3832,2.4149,2.4082,2.3834,2.1712,2.1357,2.367,2.1531,0.0,0.0,0.0,0.0,0.0,0.0,0.0,0.0,0.0,0.0,0.0,0.0,0.0,0.0,0.0,0.0,0.0,0.0,0.0,0.0,0.0,0.0,0.0,0.0,0.0,0.0,0.0,0.0,0.0,0.0,0.0,0.0,0.0,0.0,0.0,0.0,0.0,0.0,0.0,0.0,0.0,0.0,0.0,0.0,0.0,0.0,0.0,0.0,0.0,0.0,0.0,0.0,0.0,0.0,0.0,0.0,0.0,0.0,0.0,0.0,0.0,0.0,0.0,0.0,0.0,0.0,0.0,0.0,0.0,0.0,0.0,0.0,0.0,0.0,0.0,0.0,0.0,0.0,0.0,0.0,0.0,0.0,0.0,0.0,0.0,0.0,0.0,0.0,0.0,0.0,0.0,0.0,0.0,0.0,0.0,0.0,0.0,0.0,0.0,0.0,0.0,0.0,2.2241,2.2485,0.0,2.3986,2.3475,2.2411,2.0333,2.0028,2.2171,0.0,0.0,0.0,0.0,0.0,0.0,0.0,0.0,0.0,0.0,0.0,0.0,0.0,0.0,0.0,0.0,0.0,0.0,0.0,0.0,0.0,0.0,0.0,0.0,0.0,0.0,0.0,0.0,0.0,0.0,0.0,0.0,0.0,0.0,0.0,0.0,0.0,0.0,0.0,0.0,0.0,0.0,0.0,0.0,0.0,0.0,0.0,0.0,0.0,0.0,0.0,0.0,0.0,0.0,0.0,0.0,0.0,0.0,0.0,0.0,0.0,0.0,0.0,0.0,0.0,0.0,0.0,0.0,0.0,0.0,0.0,0.0,0.0,0.0,0.0,0.0,0.0,0.0,0.0,0.0,0.0,0.0,0.0,0.0,0.0,0.0,0.0,0.0,0.0,0.0,0.0,0.0,0.0,0.0,0.0,0.0,0.0,0.0,0.0,0.0,0.0,0.0,2.2615,2.2124,2.2079,0.0,2.3121,2.2446,2.1032,1.9163,1.899,2.1166,0.0,0.0,0.0,0.0,0.0,0.0,0.0,0.0,0.0,0.0,0.0,0.0,0.0,0.0,0.0,0.0,0.0,0.0,0.0,0.0,0.0,0.0,0.0,0.0,0.0,0.0,0.0,0.0,0.0,0.0,0.0,0.0,0.0,0.0,0.0,0.0,0.0,0.0,0.0,0.0,0.0,0.0,0.0,0.0,0.0,0.0,0.0,0.0,0.0,0.0,0.0,0.0,0.0,0.0,0.0,0.0,0.0,0.0,0.0,0.0,0.0,0.0,0.0,0.0,0.0,0.0,0.0,0.0,0.0,0.0,0.0,0.0,0.0,0.0,0.0,0.0,0.0,0.0,0.0,0.0,0.0,0.0,0.0,0.0,0.0,0.0,0.0,0.0,0.0,0.0,0.0,0.0,0.0,0.0,0.0,0.0,0.0,0.0,0.0,0.0,0.0,0.0,2.2476,2.0589,1.9646,2.1331,2.1378,2.0915,1.9971,1.8283,1.8388,0.0,0.0,0.0,0.0,0.0,0.0,0.0,0.0,0.0,0.0,0.0,0.0,0.0,0.0,0.0,0.0,0.0,0.0,0.0,0.0,0.0,0.0,0.0,0.0,0.0,0.0,0.0,0.0,0.0,0.0,0.0,0.0,0.0,0.0,0.0,0.0,0.0,0.0,0.0,0.0,0.0,0.0,0.0,0.0,0.0,0.0,0.0,0.0,0.0,0.0,0.0,0.0,0.0,0.0,0.0,0.0,0.0,0.0,0.0,0.0,0.0,0.0,0.0,0.0,0.0,0.0,0.0,0.0,0.0,0.0,0.0,0.0,0.0,0.0,0.0,0.0,0.0,0.0,0.0,0.0,0.0,0.0,0.0,0.0,0.0,0.0,0.0,0.0,0.0,0.0,0.0,0.0,0.0,0.0,0.0,0.0,0.0,0.0,0.0,0.0,0.0,0.0,0.0,2.2558,2.0579,1.9615,2.1197,2.1227,2.0535,1.8955,1.7715,1.7882,1.9913,0.0,0.0,0.0,0.0,0.0,0.0,0.0,0.0,0.0,0.0,0.0,0.0,0.0,0.0,0.0,0.0,0.0,0.0,0.0,0.0,0.0,0.0,0.0,0.0,0.0,0.0,0.0,0.0,0.0,0.0,0.0,0.0,0.0,0.0,0.0,0.0,0.0,0.0,0.0,0.0,0.0,0.0,0.0,0.0,0.0,0.0,0.0,0.0,0.0,0.0,0.0,0.0,0.0,0.0,0.0,0.0,0.0,0.0,0.0,0.0,0.0,0.0,0.0,0.0,0.0,0.0,0.0,0.0,0.0,0.0,0.0,0.0,0.0,0.0,0.0,0.0,0.0,0.0,0.0,0.0,0.0,0.0,0.0,0.0,0.0,0.0,0.0,0.0,0.0,0.0,0.0,0.0,0.0,0.0,0.0,0.0,0.0,0.0,0.0,0.0,0.0,0.0,2.2614,2.0283,1.9104,2.0737,2.0706,1.9875,1.8151,1.7331,1.7549,1.9033,0.0,0.0,0.0,0.0,0.0,0.0,0.0,0.0,0.0,0.0,0.0,0.0,0.0,0.0,0.0,0.0,0.0,0.0,0.0,0.0,0.0,0.0,0.0,0.0,0.0,0.0,0.0,0.0,0.0,0.0,0.0,0.0,0.0,0.0,0.0,0.0,0.0,0.0,0.0,0.0,0.0,0.0,0.0,0.0,0.0,0.0,0.0,0.0,0.0,0.0,0.0,0.0,0.0,0.0,0.0,0.0,0.0,0.0,0.0,0.0,0.0,0.0,0.0,0.0,0.0,0.0,0.0,0.0,0.0,0.0,0.0,0.0,0.0,0.0,0.0,0.0,0.0,0.0,0.0,0.0,0.0,0.0,0.0,0.0,0.0,0.0,0.0,0.0,0.0,0.0,0.0,0.0,0.0,0.0,0.0,0.0,0.0,0.0,0.0,0.0,0.0,0.0,2.2687,1.9871,1.8357,2.0068,1.9974,1.9181,1.7593,1.7114,1.7351,1.8423,0.0,0.0,0.0,0.0,0.0,0.0,0.0,0.0,0.0,0.0,0.0,0.0,0.0,0.0,0.0,0.0,0.0,0.0,0.0,0.0,0.0,0.0,0.0,0.0,0.0,0.0,0.0,0.0,0.0,0.0,0.0,0.0,0.0,0.0,0.0,0.0,0.0,0.0,0.0,0.0,0.0,0.0,0.0,0.0,0.0,0.0,0.0,0.0,0.0,0.0,0.0,0.0,0.0,0.0,0.0,0.0,0.0,0.0,0.0,0.0,2.3919,0.0,0.0,0.0,0.0,0.0,0.0,0.0,0.0,0.0,0.0,0.0,0.0,0.0,0.0,0.0,0.0,0.0,0.0,0.0,0.0,0.0,0.0,0.0,0.0,0.0,0.0,0.0,0.0,0.0,0.0,0.0,0.0,0.0,0.0,0.0,0.0,0.0,0.0,0.0,0.0,0.0,2.2683,1.9851,1.8271,1.976,1.9842,1.9296,1.8059,1.7293,1.7523,1.9011,1.8261,0.0,0.0,0.0,0.0,0.0,0.0,0.0,0.0,0.0,0.0,0.0,0.0,0.0,0.0,0.0,0.0,0.0,0.0,0.0,0.0,0.0,0.0,0.0,0.0,0.0,0.0,0.0,0.0,0.0,0.0,0.0,0.0,0.0,0.0,0.0,0.0,0.0,0.0,0.0,0.0,0.0,0.0,0.0,0.0,0.0,0.0,0.0,0.0,0.0,0.0,0.0,0.0,0.0,0.0,0.0,0.0,0.0,0.0,0.0,0.0,2.4037,0.0,0.0,0.0,0.0,0.0,0.0,0.0,0.0,0.0,0.0,0.0,0.0,0.0,0.0,0.0,0.0,0.0,0.0,0.0,0.0,0.0,0.0,0.0,0.0,0.0,0.0,0.0,0.0,0.0,0.0,0.0,0.0,0.0,0.0,0.0,0.0,0.0,0.0,0.0,0.0,2.2713,1.989,1.8263,1.9739,1.9837,1.9369,1.8337,1.7767,1.7839,1.8665,1.8482,0.0,0.0,0.0,0.0,0.0,0.0,0.0,0.0,0.0,0.0,0.0,0.0,0.0,0.0,0.0,0.0,0.0,0.0,0.0,0.0,0.0,0.0,0.0,0.0,0.0,0.0,0.0,0.0,0.0,0.0,0.0,0.0,0.0,0.0,0.0,0.0,0.0,0.0,0.0,0.0,0.0,0.0,0.0,0.0,0.0,0.0,0.0,0.0,0.0,0.0,0.0,0.0,0.0,2.7044,2.6992,2.7012,2.7754,2.7285,2.5898,2.5332,2.4466,2.3563,2.4764,0.0,0.0,0.0,0.0,0.0,0.0,0.0,0.0,0.0,0.0,0.0,0.0,0.0,0.0,0.0,0.0,0.0,0.0,0.0,0.0,0.0,0.0,0.0,0.0,2.4505,2.412,2.4226,0.0,0.0,0.0,0.0,0.0,0.0,0.0,0.0,0.0,0.0,0.0,2.2588,2.0044,1.859,1.983,1.998,1.959,1.8639,1.8287,1.817,1.8298,1.8832,1.9322,0.0,0.0,0.0,0.0,0.0,0.0,0.0,0.0,0.0,0.0,0.0,0.0,0.0,0.0,0.0,0.0,0.0,0.0,0.0,0.0,0.0,0.0,0.0,0.0,0.0,0.0,0.0,0.0,0.0,0.0,0.0,0.0,2.4322,2.439,0.0,0.0,0.0,0.0,0.0,0.0,0.0,0.0,0.0,0.0,0.0,0.0,0.0,2.6639,2.6639,2.7398,2.7884,2.8118,2.7363,2.6992,2.6992,2.7129,2.7051,2.6855,2.7519,0.0,2.5289,2.4645,0.0,0.0,0.0,0.0,0.0,0.0,0.0,0.0,0.0,0.0,0.0,0.0,0.0,0.0,0.0,0.0,0.0,0.0,0.0,0.0,0.0,0.0,2.4019,2.3302,2.3629,2.411,0.0,2.4255,2.437,2.4366,2.3799,0.0,0.0,0.0,0.0,0.0,0.0,0.0,2.1831,2.0603,1.9733,1.9811,2.0324,2.0258,1.9276,1.8515,1.8408,1.9087,1.796,1.8198,2.0294,2.008,0.0,0.0,0.0,0.0,0.0,0.0,0.0,0.0,0.0,0.0,0.0,0.0,0.0,0.0,0.0,0.0,0.0,0.0,0.0,0.0,0.0,0.0,0.0,0.0,0.0,0.0,0.0,0.0,0.0,2.4676,2.4876,2.4444,2.5136,2.5656,0.0,0.0,0.0,0.0,0.0,0.0,0.0,0.0,0.0,2.5667,2.7002,2.7734,2.7734,2.8594,2.9512,3.0488,3.0098,2.9922,2.9941,3.0391,3.0351,2.9922,2.9805,2.9336,2.8476,2.6512,2.5634,2.5485,0.0,0.0,0.0,0.0,2.539,2.5505,2.5505,2.5582,2.5717,2.5947,0.0,0.0,0.0,0.0,0.0,0.0,0.0,2.539,0.0,0.0,2.4716,2.4293,2.4505,2.4774,2.4774,2.4447,2.4284,0.0,2.4522,2.4444,2.4876,0.0,0.0,0.0,0.0,2.1274,2.2249,2.099,2.0148,2.0481,2.0677,2.0383,1.9396,1.8977,1.8922,1.9286,1.8647,1.872,1.9785,2.0483,2.1161,0.0,0.0,0.0,0.0,0.0,0.0,0.0,0.0,0.0,0.0,0.0,0.0,0.0,0.0,0.0,0.0,0.0,0.0,0.0,0.0,0.0,0.0,0.0,0.0,0.0,0.0,0.0,0.0,2.524,2.5577,2.4517,2.5526,2.6135,0.0,0.0,0.0,0.0,0.0,0.0,2.6699,2.7305,2.7461,2.7031,2.8516,2.9297,2.9297,3.0371,3.1562,3.2832,3.2832,3.2832,3.2851,3.3457,3.3281,3.248,3.2038,3.1733,3.1323,2.8415,2.683,2.6172,2.6111,2.6072,2.6063,2.6005,2.639,2.6928,2.6928,2.7351,2.7832,2.7371,2.7236,2.7044,2.6024,0.0,0.0,0.0,0.0,2.5783,2.5986,2.6005,2.5967,2.5967,2.5793,2.563,2.563,2.4985,2.4524,0.0,2.4799,2.4748,2.5037,0.0,0.0,0.0,0.0,2.1133,2.2342,2.1358,2.0763,2.1276,2.1347,2.0884,1.9711,1.9601,1.951,1.9308,1.9305,1.9305,1.9305,2.0703,2.1565,2.1803,0.0,0.0,0.0,0.0,0.0,0.0,0.0,0.0,0.0,0.0,0.0,0.0,0.0,0.0,0.0,0.0,0.0,0.0,0.0,0.0,0.0,0.0,0.0,0.0,0.0,0.0,0.0,0.0,0.0,2.4597,2.663,0.0,0.0,0.0,0.0,2.6934,2.7695,2.8535,2.9355,2.9453,2.9824,3.0605,3.1523,3.1992,3.1992,3.3633,3.4492,3.457,3.457,3.457,3.457,3.4629,3.416,3.3379,3.4093,3.3982,3.3016,2.9562,2.8105,2.8064,2.7991,2.793,2.7873,2.7873,2.7843,2.7832,2.7832,2.7852,2.8025,2.8736,2.8967,2.8659,2.7024,2.6592,0.0,0.0,2.6582,2.6802,2.7582,2.7775,2.7775,2.7775,2.714,2.6524,2.6524,2.5841,2.5034,0.0,2.3487,2.3208,2.4101,0.0,2.2985,2.3057,2.2199,2.1502,2.1382,2.1798,2.2041,2.1972,2.252,2.2219,2.0574,2.0429,2.0115,1.9344,1.9305,1.9305,1.9305,2.0115,2.096,2.1784,2.2834,0.0,0.0,0.0,0.0,0.0,0.0,0.0,0.0,0.0,0.0,0.0,0.0,0.0,0.0,0.0,0.0,0.0,0.0,0.0,0.0,0.0,0.0,0.0,0.0,0.0,0.0,0.0,0.0,2.8511,2.941,0.0,2.9883,2.9668,2.9746,3.0293,3.0625,3.0957,3.1269,3.1758,3.2187,3.25,3.3906,3.4648,3.4648,3.6348,3.6934,3.6367,3.6367,3.6367,3.6348,3.5781,3.5659,3.5807,3.4952,3.4734,3.4756,3.2446,3.0817,2.9689,2.8495,2.8017,2.8068,2.8587,2.9077,2.9586,3.0152,3.071,3.1041,3.0213,2.9589,2.8942,2.7785,2.7458,2.7458,2.7428,2.7448,2.7544,2.7832,2.789,2.789,2.789,2.7659,2.7448,2.7448,2.6746,2.6063,2.5765,2.5005,2.4514,2.4851,2.4216,2.3678,2.3697,2.2945,2.2504,2.286,2.2988,2.3002,2.2848,2.2922,2.2557,2.1437,2.1345,2.1198,2.0939,2.0921,2.0921,2.0921,2.1675,2.2263,2.2575,2.3437,2.4026,0.0,0.0,0.0,0.0,0.0,0.0,0.0,0.0,0.0,0.0,0.0,0.0,0.0,0.0,0.0,0.0,0.0,0.0,0.0,0.0,0.0,0.0,0.0,0.0,0.0,0.0,3.0391,3.1601,3.2266,3.2617,3.2617,3.2344,3.2422,3.3008,3.332,3.3613,3.3906,3.4434,3.4844,3.5156,3.6269,3.6875,3.6875,3.8301,3.8594,3.7734,3.8047,3.8027,3.7715,3.7126,3.7136,3.7559,3.6366,3.6157,3.6516,3.4812,3.3422,3.2207,3.0461,2.9747,2.9795,3.0314,3.0844,3.1353,3.1927,3.2517,3.281,3.1653,3.0728,2.9918,2.9049,2.8576,2.8345,2.8335,2.8354,2.8459,2.9044,2.9113,2.9123,2.9391,2.8938,2.8492,2.8593,2.7716,2.6924,2.7026,2.6092,2.5303,2.5303,2.463,2.4101,2.4107,2.3366,2.3011,2.3625,2.3581,2.3527,2.36,2.349,2.3069,2.2263,2.2189,2.2079,2.1821,2.1803,2.1803,2.1803,2.2575,2.2997,2.2997,2.3786,2.4228,2.4284,0.0,0.0,0.0,0.0,0.0,0.0,0.0,0.0,0.0,0.0,0.0,0.0,0.0,0.0,0.0,0.0,0.0,0.0,0.0,0.0,0.0,0.0,0.0,2.9622,3.1874,3.3555,3.3633,3.5137,3.5508,3.3848,3.4394,3.4863,3.4902,3.5664,3.6484,3.7344,3.7383,3.7773,3.8613,3.8672,3.8672,3.8633,3.9531,3.9531,3.8652,3.9492,3.9453,3.8632,3.8546,3.8511,3.853,3.8368,3.8322,3.8206,3.6497,3.5781,3.5607,3.3944,3.3197,3.3106,3.3125,3.3114,3.3084,3.3084,3.3084,3.3095,3.3045,3.2516,3.1725,3.0827,2.9978,2.9322,2.9329,2.9319,2.9693,3.1326,3.1536,3.1527,3.2324,3.1061,2.9751,3.0019,2.8751,2.7669,2.7937,2.6573,2.536,2.5341,2.4668,2.414,2.414,2.3419,0.0,2.3477,2.3543,2.371,2.419,2.4245,2.3914,2.3144,2.307,2.274,2.1931,2.1876,2.1876,2.1876,2.263,2.3052,2.3052,2.3804,2.4303,2.4495,0.0,0.0,0.0,0.0,0.0,0.0,0.0,0.0,0.0,0.0,0.0,0.0,0.0,0.0,0.0,0.0,0.0,0.0,0.0,0.0,0.0,0.0,3.1632,3.2184,3.452,3.6874,3.8827,3.9473,3.9805,3.9922,3.9043,3.873,3.9375,3.9043,3.8926,3.918,3.9199,3.9297,3.9531,4.0156,4.0176,3.9551,4.0996,4.0952,3.9479,3.9764,3.9719,3.9375,3.8772,3.8781,3.9257,3.8581,3.8632,3.9088,3.7967,3.7522,3.7232,3.4311,3.314,3.3169,3.3746,3.4361,3.489,3.4894,3.4894,3.4778,3.4141,3.3793,3.3445,3.2574,3.2138,3.1965,3.1954,3.1962,3.2054,3.2524,3.2407,3.2229,3.2457,3.1951,3.1486,3.1746,3.0498,2.9379,2.9663,2.8332,2.6967,2.6352,2.5543,2.4966,2.4966,2.463,0.0,2.4438,2.4317,2.4446,2.5006,2.5065,2.4977,2.4759,2.474,2.4392,2.3584,2.3529,2.3529,2.3529,2.3749,2.3878,2.3878,2.408,2.4303,0.0,0.0,0.0,0.0,0.0,0.0,0.0,0.0,0.0,0.0,0.0,0.0,0.0,0.0,0.0,0.0,0.0,0.0,0.0,0.0,0.0,0.0,3.323,3.5295,3.6445,3.7603,3.9306,4.1933,4.2246,4.2422,4.2891,4.1738,4.1152,4.166,4.123,4.0957,4.0957,4.1289,4.1484,4.1484,4.1592,4.1588,4.1454,4.203,4.1808,4.0811,4.0844,4.0641,4.0221,3.9721,3.9753,4.0101,3.9579,3.9611,3.9978,3.9088,3.8728,0.0,0.0,0.0,0.0,0.0,3.5925,3.6639,3.6277,3.6385,3.6609,3.6107,3.5469,3.4792,3.4268,3.363,3.304,3.3029,3.2972,3.2942,3.3242,3.3029,3.2845,3.3148,3.2741,3.2393,3.2787,3.1853,3.1039,3.1385,3.0394,0.0,2.8343,2.6881,2.5957,2.6333,2.588,2.5442,2.5321,2.5142,2.4983,2.4899,2.4882,2.4904,2.4887,2.4907,0.0,0.0,0.0,2.419,2.419,2.419,0.0,0.0,0.0,2.4266,2.4375,2.4375,0.0,0.0,2.4716,2.4804,0.0,0.0,0.0,0.0,0.0,0.0,0.0,0.0,0.0,0.0,0.0,0.0,0.0,0.0,0.0,0.0,3.6719,3.9539,4.1365,4.0961,4.1348,4.3711,4.3984,4.3984,4.3984,4.3203,4.2695,4.2695,4.2598,4.2539,4.2534,0.0,0.0,0.0,0.0,4.2898,4.3587,4.285,4.2439,4.233,4.2352,4.1925,4.1123,4.107,4.0996,4.09,4.0842,4.079,4.0732,3.9959,3.9605,3.9451,3.8543,3.8189,3.808,3.725,3.7475,3.8092,3.73,0.0,0.0,3.8199,3.7193,3.5955,3.5858,3.4814,3.3643,3.3564,3.341,3.3408,3.406,3.3809,3.3556,3.4181,3.3531,3.2859,3.3379,3.2882,3.2481,3.2917,3.237,3.1588,3.0821,2.8574,2.7113,2.7798,2.6978,2.6275,2.6154,2.5854,2.5355,2.4559,0.0,0.0,2.4337,2.4337,2.43,2.4208,2.419,2.419,2.419,2.419,2.419,2.419,2.419,2.419,2.419,2.419,2.419,2.4209,2.4578,2.4731,0.0,0.0,0.0,0.0,0.0,0.0,0.0,0.0,0.0,0.0,0.0,0.0,0.0,0.0,0.0,3.7144,3.9336,4.1523,4.3939,4.4119,4.4453,4.5664,4.5801,4.5801,4.5801,4.5019,4.4492,4.4492,4.3848,4.3411,4.3372,4.3524,4.3588,4.3532,4.4039,4.4074,4.3518,4.4041,4.393,4.3175,0.0,0.0,4.1903,4.1935,4.1536,4.0827,4.0808,4.0784,4.0713,4.0539,4.0442,4.0232,3.8703,3.8119,3.8099,3.7912,3.7964,3.8112,3.7983,3.8054,3.8201,3.8206,3.7986,3.7599,3.6884,3.6922,0.0,3.635,3.6485,3.6834,3.6865,3.6004,3.5147,3.5224,3.44,3.3655,3.3976,3.3585,3.326,3.3571,3.3109,3.2609,3.2442,3.0304,2.8456,2.7971,2.7399,2.7001,2.6979,2.6064,2.5614,2.6097,2.5556,2.5182,2.5182,2.5182,2.4887,2.4245,2.419,2.419,2.419,2.419,2.419,2.419,2.419,2.419,2.419,2.419,2.419,2.419,2.4284,2.4321,0.0,0.0,0.0,0.0,0.0,0.0,0.0,0.0,0.0,0.0,0.0,3.1191,0.0,0.0,3.7345,3.9461,4.1657,4.3555,4.4824,4.5371,4.5801,4.625,4.6308,4.6308,4.6308,4.5508,4.5,4.5,4.4567,4.4296,4.4239,4.4626,4.4847,4.4801,4.4773,4.4758,4.4736,4.4717,4.4452,4.3987,4.404,4.3576,4.2712,4.2775,4.2543,4.2098,4.2073,4.2028,4.1963,4.1503,4.1022,4.0511,3.9644,3.9297,3.9259,3.8854,3.8984,3.9306,3.8923,3.9084,3.9464,3.9482,3.9204,3.876,3.8334,3.8199,3.8121,3.7677,3.7603,3.7618,3.7432,3.6421,3.5528,3.5832,3.5137,3.4475,3.4797,3.4764,3.4604,3.4472,3.432,3.407,3.3632,3.2513,3.1232,2.9993,2.9033,2.8308,2.7897,2.7116,2.6597,2.6589,2.5884,2.5403,2.5403,2.5035,2.463,2.4226,2.419,2.419,2.419,2.419,2.419,2.419,2.419,2.419,2.419,2.419,2.419,2.419,2.419,2.419,0.0,0.0,0.0,0.0,0.0,0.0,0.0,0.0,2.9537,3.1464,3.2593,3.3945,3.625,3.8262,4.0062,4.1529,4.3734,4.5254,4.5254,4.5703,4.6113,4.6289,4.6308,4.6308,4.6308,4.5664,4.5254,4.5254,4.5198,4.5148,4.5128,4.5742,4.6065,4.6046,4.5311,4.5272,4.5969,4.5233,4.4846,4.4846,4.4846,4.4395,4.3563,4.364,4.3543,4.3376,4.3131,4.293,4.2723,4.1947,4.1208,4.0573,4.0523,4.0489,4.0412,3.9758,3.998,4.0492,3.986,4.0081,4.07,4.0759,4.0307,3.9719,3.9565,3.9127,3.8663,3.8508,3.8247,3.7985,3.7753,3.6775,3.5954,3.6444,3.5881,3.534,3.5614,3.5871,3.5943,3.5564,3.5715,3.5699,3.5037,3.4749,3.3999,3.2199,3.0948,2.9961,2.9306,2.8657,2.7967,2.7141,2.6337,2.5807,2.566,2.5034,2.4593,2.4428,2.4428,2.4355,2.4208,2.419,2.419,2.419,2.419,2.419,2.419,2.419,2.419,2.419,2.419,2.419,2.6914,2.6917,2.749,2.9713,2.9121,2.9173,0.0,0.0,3.3061,3.4952,3.6585,3.8047,3.9238,4.1465,4.3437,4.441,4.5448,4.6152,4.6152,4.5566,4.543,4.6211,4.6308,4.6308,4.6308,4.6211,4.6152,4.6152,4.6102,4.6027,4.5969,4.5988,4.5969,4.5838,4.5802,4.5815,4.5912,4.5803,4.5738,4.5738,4.5738,4.5336,4.4544,4.4544,4.4114,4.3247,4.243,4.1605,4.0892,4.0712,4.06,4.0504,4.0504,4.0489,4.0489,4.0392,4.0427,4.0504,4.0492,4.0521,4.0621,4.07,4.0688,4.05,3.9739,3.9959,4.0346,3.9572,3.9663,3.9924,3.9602,3.8606,3.7657,3.7497,3.6801,3.6138,3.6195,3.6414,3.6662,3.684,3.7092,3.7338,3.7544,3.6747,3.5301,3.3094,3.2282,3.1897,3.1813,3.0702,2.9637,2.8828,2.8007,2.7236,2.6539,2.6392,2.6025,2.5311,2.5274,2.4962,2.4226,2.419,2.419,2.419,2.419,2.419,2.419,2.419,2.419,2.419,2.419,2.419,2.8516,2.8798,0.0,0.0,3.154,3.3019,3.5244,3.591,3.6624,3.859,3.9893,4.0968,4.1931,4.3398,4.457,0.0,4.5723,4.6308,4.6308,4.5547,4.4941,4.4805,4.4785,4.5195,4.6191,4.584,4.5742,4.6269,4.6203,4.6122,4.6093,4.6009,4.5932,4.5867,4.588,4.5912,4.5912,4.5905,4.5905,4.5905,4.5905,4.5723,4.5406,4.5401,4.5138,4.4617,4.3265,4.2433,4.2005,4.147,4.095,4.0546,4.1066,4.1258,4.12,4.0681,4.0816,4.1258,4.1324,4.1354,4.135,4.1379,4.144,4.1442,4.1074,4.1571,4.2183,4.1816,4.1407,4.1027,4.0826,3.9429,3.8147,3.8414,3.7718,3.6982,3.6982,3.7336,3.7534,3.7181,3.7471,3.7829,3.7988,3.7593,3.6974,3.6019,3.4056,3.2485,3.2038,3.1336,3.0593,2.9779,2.8984,2.8172,2.7368,2.6885,2.646,2.6117,2.6098,2.5952,2.5621,2.5603,2.5383,2.4905,2.4887,2.4667,2.419,2.419,2.419,2.419,2.419,2.419,2.9238,0.0,0.0,3.1898,3.4218,3.6543,3.7366,3.8433,3.9837,4.1797,4.2444,4.2951,4.3899,4.457,4.5,4.5,4.5723,4.6308,4.6308,4.5332,4.4492,4.4101,4.3437,4.3691,4.543,4.5234,4.5254,4.5898,4.6039,4.6099,4.6104,4.597,4.5899,4.5905,4.5917,4.5917,4.5917,4.5929,4.5941,4.5941,4.5941,4.5941,4.5929,4.5899,4.5703,4.5326,4.4045,4.3362,4.3028,4.2162,4.1566,4.1258,4.1662,4.195,4.2085,4.145,4.1623,4.2162,4.2213,4.2229,4.2225,4.2236,4.2285,4.2328,4.2328,4.2767,4.3272,4.3272,4.2671,4.2011,4.1892,4.0528,3.9233,3.9447,3.8812,3.8083,3.7863,3.8207,3.8383,3.788,3.8218,3.8692,3.9,3.8597,3.8301,3.8459,3.5931,3.3745,3.3022,3.2228,3.1524,3.0925,3.0142,2.942,2.8838,2.8278,2.7743,2.7288,2.7273,2.7071,2.6631,2.6612,2.6337,2.5731,2.5513,2.5127,2.452,2.43,2.419,2.4208,2.4428,2.441,0.0,0.0,3.2656,3.5118,3.6993,3.8865,4.1354,4.1942,4.2516,4.4404,4.4122,4.3865,4.4796,4.498,4.5,4.5,4.5723,4.6308,4.6308,4.4824,4.4043,4.4863,4.2773,4.1933,0.0,4.4512,4.5019,4.5039,4.5698,4.6111,4.6104,4.5963,4.5905,4.5905,4.596,4.5991,4.5991,4.6005,4.5997,4.5997,4.5997,4.5997,4.5997,4.5848,4.5374,4.462,4.436,4.3816,4.3028,4.2162,4.2277,4.2931,4.2124,4.2316,4.3066,4.3028,4.3047,4.3066,4.3066,4.306,4.3054,4.3054,4.3123,4.3173,4.3173,4.3168,4.3211,4.3211,4.3173,4.3091,4.2825,4.2366,4.1736,4.072,4.0148,3.9606,3.8836,3.8886,3.917,3.9472,3.9791,4.0393,4.1495,4.0123,3.9039,3.9576,3.7897,3.6386,3.5855,3.388,3.2564,3.2515,3.1806,3.1311,3.1274,3.1256,3.0595,2.9012,2.892,2.8223,2.6667,2.6612,2.6594,2.6557,2.5786,2.5403,2.5366,2.4575,2.419,2.4208,2.5017,2.4962,3.1211,0.0,3.5956,3.7929,4.0078,4.2083,4.3603,4.4375,4.4788,4.4943,4.3802,4.2733,4.2519,4.248,4.2656,4.3183,4.4492,4.5644,4.6211,4.5293,4.4238,4.3379,4.2519,0.0,0.0,0.0,0.0,4.4902,4.5193,4.5558,4.6141,4.6077,4.6019,4.5975,4.5986,4.6005,4.6005,4.5997,4.5997,4.5997,4.5997,4.5703,4.5126,4.5041,4.4805,4.4438,4.3769,4.3643,4.3797,4.2393,4.197,4.2277,4.2547,4.2835,4.3239,4.4355,4.4759,4.4682,4.4105,4.391,4.3891,4.3891,4.3943,4.3994,4.3994,4.4392,4.4882,4.4911,4.4506,4.4047,4.3956,4.3215,4.2343,4.1706,4.1278,4.0767,3.9706,3.9708,3.984,3.9641,4.0289,4.1106,4.1697,4.1742,4.1418,4.061,3.8171,3.6363,3.6176,3.5522,3.4842,3.4236,3.3466,3.2771,3.2243,3.1707,3.1185,3.0632,3.0099,2.9549,2.9017,2.8484,2.7952,2.7402,2.7126,2.6722,2.619,2.5915,2.5511,2.5017,2.5274,2.498,3.4101,3.668,3.9023,4.0703,4.28,4.4601,4.5258,4.5559,4.5472,4.4702,4.293,4.125,4.043,4.0019,4.0078,4.0918,4.2246,4.3691,4.5156,4.4629,4.3887,4.3398,4.3047,4.2441,0.0,0.0,0.0,4.4453,4.5058,4.5609,4.6152,4.6113,4.6061,4.6005,4.5997,4.5997,4.5997,4.5997,4.5997,4.5997,4.5705,4.5276,4.4738,4.4634,4.436,4.3994,4.3673,4.3662,4.3758,4.2374,4.1989,4.2316,4.2874,4.3278,4.3662,4.4739,4.5143,4.5086,4.4855,4.4759,4.4759,4.4759,4.4776,4.4829,4.4829,4.5247,4.5703,4.5754,4.5364,4.4939,4.4928,4.4245,4.3424,4.286,4.237,4.1752,4.0744,4.064,4.0682,4.0378,4.0997,4.1713,4.2252,4.2687,4.2465,4.0919,3.8921,3.7381,3.6803,3.649,3.6094,3.5506,3.4706,3.4017,3.3505,3.272,3.2135,3.1861,3.1072,3.0503,3.021,2.9439,2.8778,2.8246,2.7952,2.7548,2.7034,2.6741,2.619,2.5421,2.5991,2.5511,3.6855,3.9434,4.1797,4.3418,4.5078,4.6289,4.623,4.5527,4.4609,4.3691,4.1445,3.9355,0.0,0.0,3.7539,3.8457,3.9434,4.0976,4.3476,4.3125,4.3203,0.0,0.0,0.0,0.0,0.0,0.0,4.3769,0.0,4.6124,4.6105,4.6095,4.6083,4.5991,4.6005,4.5997,4.5997,4.5997,4.5997,4.5977,4.522,4.4812,4.4734,4.4589,4.404,4.3272,4.3956,4.3797,4.3028,4.2162,4.2297,4.3028,4.3028,4.3528,4.4239,4.4278,4.4297,4.4412,4.5297,4.5566,4.5528,4.5586,4.5586,4.5586,4.5586,4.564,4.5693,4.5693,4.5687,4.57,4.569,4.5419,4.4914,4.4149,4.3423,4.2706,4.1828,4.1651,4.164,4.1593,4.1854,4.2341,4.3209,4.3041,4.2248,4.0674,4.0167,3.9375,3.776,3.6918,3.6407,3.6366,3.5634,3.51,3.5008,3.4301,3.3513,3.2724,3.1916,3.1109,3.0356,2.9512,2.9049,2.9049,2.8264,2.786,2.786,2.7108,2.63,2.5568,2.709,2.6539,4.0391,4.2539,4.4297,4.5371,4.5976,4.6133,4.5488,4.4141,4.2656,4.1172,3.8239,3.5696,0.0,0.0,0.0,3.834,4.0918,0.0,4.5351,4.5449,0.0,4.5019,0.0,4.4414,4.3769,4.4297,0.0,0.0,4.5058,4.5538,4.6066,4.6102,4.6054,4.5917,4.5972,4.6003,4.6003,4.6005,4.5997,4.5997,4.5842,4.5084,4.386,4.4408,4.3807,4.2376,4.3149,4.3327,4.3028,4.2162,4.1931,4.2143,4.2143,4.2643,4.347,4.4085,4.4297,4.4412,4.5297,4.5163,4.4739,4.5393,4.5586,4.5586,4.5586,4.5603,4.564,4.5693,4.5709,4.5706,4.5703,4.5618,4.5436,4.4917,4.4649,4.414,4.2782,4.2499,4.2307,4.1709,4.2353,4.3234,4.4114,4.3446,4.265,4.2243,4.1369,4.0204,3.8585,3.8206,3.7845,3.7247,3.7003,3.6347,3.5118,3.4797,3.4365,3.3532,3.2742,3.221,3.2008,3.065,2.9898,2.9898,2.9108,2.8705,2.8705,2.8503,2.797,2.72,2.7603,2.7145,4.2949,4.4531,4.5683,4.6172,4.6308,4.5879,4.4238,4.2832,4.1169,3.8658,3.5948,0.0,0.0,0.0,0.0,0.0,0.0,0.0,4.4766,4.5156,4.5254,0.0,4.5566,0.0,4.4883,4.5625,4.6133,0.0,4.5781,4.5733,4.6086,4.6088,4.6035,4.5905,4.596,4.6014,4.6035,4.6026,4.6047,4.6037,4.5697,4.5016,4.4083,4.451,4.392,4.2583,0.0,4.295,4.247,4.1585,4.1239,4.1277,4.1662,4.2335,4.3143,4.3605,4.3989,4.4374,4.4855,4.4701,4.4432,4.5316,4.5586,4.5586,4.5586,4.5586,4.5622,4.564,4.5657,4.5657,4.5654,4.5654,4.5603,4.5362,4.5203,4.4855,4.4008,4.3568,4.3132,4.257,4.2947,4.3516,4.4026,4.3569,4.3004,4.2624,4.2029,4.1162,3.9914,3.9428,3.8921,3.8114,3.7705,3.7131,3.6174,3.5414,3.4815,3.4357,3.3256,3.2614,3.2614,3.1054,3.021,3.021,2.942,2.8994,2.8994,2.8994,2.8594,2.7805,2.8154,2.7714,4.4902,4.5976,4.6621,4.6504,4.6387,4.5586,4.2851,4.1424,3.9692,3.625,0.0,3.2644,3.1746,3.189,3.3022,3.5644,0.0,3.9277,4.3457,4.4043,4.4609,4.6113,4.6406,4.6465,4.6465,4.7266,4.7773,4.7773,4.7069,4.6546,4.6281,4.6274,4.6164,4.5917,4.5972,4.6025,4.6095,4.6105,4.6095,4.6093,4.5343,4.4915,4.4809,4.4754,4.4198,4.3298,4.3233,4.2744,4.1928,4.1158,4.085,4.0924,4.1681,4.2508,4.3258,4.3258,4.3701,4.4316,4.4432,4.4393,4.4432,4.5316,4.5586,4.5586,4.5586,4.5586,4.5586,4.5586,4.5586,4.5586,4.5603,4.5622,4.5586,4.5603,4.5381,4.514,4.5096,4.4516,4.3912,4.3582,4.3497,4.3497,4.3497,4.3497,4.3243,4.2551,4.2477,4.2187,4.1371,4.0455,3.9626,3.894,3.8151,3.7631,3.7509,3.6156,3.5248,3.5,3.3678,3.2871,3.2761,3.1329,3.0522,3.0522,2.9622,2.914,2.914,2.9049,2.865,2.797,2.8686,2.8242,4.6875,4.7787,4.8284,4.7558,4.6836,4.5449,4.2168,3.958,0.0,0.0,3.2285,3.076,2.9974,3.1563,3.3864,3.654,0.0,0.0,0.0,0.0,4.5957,0.0,0.0,0.0,0.0,0.0,0.0,0.0,4.8525,4.808,4.7216,4.7173,4.6809,4.6011,4.5994,4.6026,4.6095,4.6104,4.6093,4.6093,4.6002,4.5546,4.479,4.4845,4.4288,4.3298,4.3286,0.0,4.2951,4.273,4.2668,4.2739,4.2845,4.3374,4.4085,4.4085,4.4182,4.4393,4.5124,4.4893,4.4432,4.5316,4.5586,4.5586,4.5586,4.5586,4.5586,4.5586,4.5586,4.5603,4.5676,4.564,4.5603,4.5657,4.5605,4.5438,4.5159,4.4516,4.3912,4.3582,4.3497,4.3497,4.3497,4.3497,4.3442,4.3314,4.3296,4.3023,4.2205,4.0832,3.9841,3.9731,3.8977,3.8224,3.7546,3.7229,3.6494,3.5091,3.4741,3.4291,3.3623,3.2706,3.2192,3.2192,3.0742,2.9989,2.9989,2.9305,2.892,2.8815,2.892,2.8847,4.7494,4.8233,4.8684,4.7823,4.6572,4.4552,4.0682,0.0,0.0,0.0,3.0779,2.9844,2.9913,0.0,0.0,0.0,0.0,0.0,0.0,0.0,0.0,0.0,0.0,0.0,0.0,0.0,0.0,4.9531,4.9586,4.8945,4.7534,4.6911,4.6429,4.6014,4.5994,4.6056,4.6152,4.6149,4.6158,4.6146,4.6181,4.5967,4.5531,4.5558,4.5239,4.4621,4.4156,4.3904,4.374,4.3291,4.3118,4.3142,4.3118,4.3585,4.4297,4.4297,4.4586,4.5028,4.5451,4.5316,4.5047,4.5451,4.5586,4.5586,4.5586,4.5586,4.5586,4.5586,4.5586,4.5622,4.564,4.5622,4.5622,4.564,4.5622,4.5456,4.4944,4.4562,4.4158,4.3612,4.3497,4.3497,4.3497,4.3497,4.3497,4.3497,4.3497,4.3369,4.2951,4.1886,4.0832,3.9989,3.9553,3.8995,3.8187,3.7741,3.7138,3.6358,3.5487,3.4825,3.4449,3.3256,3.2614,3.2614,3.1421,3.0613,3.021,2.9824,2.942,2.8994,2.8994,2.8994,4.7838,4.8643,4.9177,4.8147,4.638,4.3782,3.9487,3.6269,0.0,0.0,2.9794,2.9371,3.0006,0.0,0.0,0.0,0.0,0.0,0.0,0.0,0.0,0.0,0.0,0.0,0.0,0.0,0.0,4.9882,4.9723,4.9047,4.7808,4.6551,4.5912,4.5964,4.596,4.6035,4.6169,4.6149,4.6174,4.6196,4.6196,4.6169,4.6162,4.6162,4.6047,4.5822,4.5124,4.4761,4.4559,4.391,4.364,4.3673,4.364,4.4008,4.4586,4.4586,4.5009,4.5586,4.5586,4.5586,4.5586,4.5586,4.5586,4.5586,4.5586,4.5586,4.5586,4.5586,4.5586,4.5586,4.5586,4.5586,4.5586,4.5586,4.555,4.5323,4.4722,4.4526,4.4282,4.3627,4.3497,4.3497,4.3497,4.3497,4.3497,4.3497,4.3497,4.3497,4.3497,4.2933,4.1999,4.057,4.0117,3.9626,3.9013,3.8224,3.7686,3.7509,3.6266,3.5478,3.5284,3.389,3.3128,3.3128,3.2155,3.1256,3.0467,3.0283,2.9787,2.8994,2.8994,2.8994,4.8574,4.9953,5.078,4.9178,4.6821,4.3782,3.9483,0.0,0.0,3.0883,2.9756,2.9121,2.9198,0.0,0.0,0.0,0.0,0.0,0.0,0.0,0.0,0.0,0.0,0.0,0.0,0.0,0.0,4.9079,4.8169,4.7889,4.8463,4.6797,4.581,4.5827,4.5874,4.5937,4.6007,4.6018,4.6083,4.6196,4.6196,4.6127,4.6008,4.6008,4.5906,4.5699,4.5621,4.5602,0.0,4.5426,4.542,4.5441,4.5387,4.5413,4.547,4.547,4.5528,4.5586,4.5586,4.5586,4.5586,4.5586,4.5586,4.5586,4.5586,4.5586,4.5586,4.5586,4.5586,4.5586,4.5586,4.5586,4.5586,4.5586,4.5381,4.5039,4.4676,4.4297,4.3938,4.3579,4.3497,4.3497,4.3497,4.3497,4.3497,4.3497,4.3497,4.3497,4.3497,4.3442,4.3041,4.2166,4.0758,3.986,3.9804,3.905,3.8279,3.7546,3.7375,3.6936,3.6216,3.5302,3.477,3.477,3.3275,3.21,3.1274,3.0558,2.9787,2.8994,2.8994,2.8994,4.8123,5.0063,5.101,4.9326,4.6065,4.2424,3.9182,0.0,0.0,3.0583,2.9737,2.9256,2.9794,0.0,0.0,0.0,0.0,0.0,0.0,0.0,0.0,0.0,0.0,0.0,0.0,0.0,4.902,4.8074,4.7959,4.7877,4.7714,4.6476,4.5827,4.586,4.5814,4.5822,4.5941,4.5944,4.5966,4.6017,4.6017,4.5997,4.5944,4.5944,4.5854,4.5703,4.5703,4.5692,0.0,4.562,4.562,4.5651,4.562,4.5586,4.5586,4.5586,4.5586,4.5586,4.5586,4.5586,4.5586,4.5586,4.5586,4.5586,4.5586,4.5586,4.5586,4.5586,4.5586,4.5586,4.5586,4.5586,4.5586,4.5586,4.5342,4.5007,4.4662,4.4285,4.3886,4.3575,4.3497,4.3497,4.3497,4.3497,4.3497,4.3497,4.3497,4.3497,4.3497,4.3497,4.3387,4.3059,4.2014,4.1144,4.064,3.9878,3.9283,3.8958,3.8028,3.7357,3.7044,3.5705,3.499,3.499,3.3917,3.2926,3.2118,3.1311,3.0503,2.9714,2.9214,2.8994,4.608,4.8643,5.0195,4.8757,4.4871,4.0867,0.0,0.0,0.0,3.034,2.9717,2.9371,3.0237,0.0,0.0,0.0,0.0,0.0,0.0,0.0,0.0,0.0,0.0,0.0,0.0,0.0,4.8163,4.7453,4.7496,4.7422,4.7129,4.6243,4.5767,4.581,4.5727,4.5737,4.5848,4.5848,4.5861,4.5905,4.5905,4.5873,4.5848,4.5848,4.5789,4.5718,4.5692,4.5665,0.0,4.562,4.5586,4.5586,4.5586,4.5586,4.5586,4.5586,4.5586,4.5586,4.5586,4.5586,4.5586,4.5586,4.5586,4.5586,4.5586,4.5586,4.5586,4.5586,4.5586,4.5586,4.5586,4.5586,4.5586,4.5586,4.5342,4.5023,4.4681,4.429,4.389,4.3579,4.3497,4.3497,4.3497,4.3497,4.3497,4.3497,4.3497,4.3497,4.3497,4.3497,4.3497,4.3497,4.3004,4.2326,4.1517,4.0717,4.0244,4.0239,3.8982,3.8218,3.8193,3.6615,3.5642,3.5404,3.4578,3.3642,3.2614,3.2027,3.1329,3.054,2.9971,2.9714,4.2099,4.5389,4.8319,4.7434,4.333,3.9315,0.0,0.0,0.0,3.0217,2.9717,2.9371,3.0237,3.0398,3.0398,3.0398,0.0,0.0,0.0,0.0,0.0,0.0,0.0,0.0,0.0,4.7494,4.7407,4.7407,4.6429,0.0,4.7052,4.6166,4.5586,4.5603,4.5603,4.5616,4.5703,4.5703,4.5761,4.5905,4.5905,4.5835,4.5703,4.5703,4.5733,4.58,4.5651,4.5668,0.0,4.5651,4.5586,4.5586,4.5586,4.5586,4.5586,4.5586,4.5586,4.5586,4.5586,4.5586,4.5586,4.5586,4.5586,4.5586,4.5586,4.5586,4.5586,4.5586,4.5586,4.5586,4.5586,4.5586,4.5586,4.5586,4.5342,4.5007,4.4657,4.4277,4.3897,4.3587,4.3497,4.3497,4.3497,4.3497,4.3497,4.3497,4.3497,4.3497,4.3497,4.3497,4.3497,4.3497,4.3479,4.3151,4.2368,4.157,4.1113,4.1068,4.0331,3.9884,3.9863,3.8322,3.7092,3.6303,3.544,3.4183,3.2614,3.2596,3.2173,3.1384,3.1366,3.1366,3.792,4.0072,4.1388,4.0513,3.7704,3.4894,3.4021,0.0,0.0,0.0,2.9294,2.9371,3.0237,3.0398,3.0782,3.1981,3.3188,0.0,0.0,0.0,0.0,0.0,0.0,0.0,0.0,0.0,4.6991,4.6356,4.6461,4.641,4.6092,4.6333,4.622,4.5605,4.5586,4.562,4.5635,4.5635,4.5651,4.57,4.57,4.5684,4.5635,4.5635,4.5651,4.5651,4.562,4.562,4.5651,4.562,4.5586,4.5586,4.5586,4.5586,4.5586,4.5586,4.5586,4.5586,4.5586,4.5586,4.5586,4.5586,4.5586,4.5586,4.5586,4.5586,4.5586,4.5586,4.5586,4.5586,4.5586,4.5586,4.5586,4.5586,4.5342,4.5007,4.4657,4.4277,4.3915,4.3587,4.3497,4.3497,4.3497,4.3497,4.3497,4.3497,4.3497,4.3497,4.3497,4.3497,4.3497,4.3497,4.3497,4.3406,4.3133,4.237,4.1912,4.1919,4.0634,3.99,3.99,3.834,3.7367,3.711,3.5734,3.4734,3.422,3.3146,3.2192,3.1384,3.1384,3.1384,0.0,3.5872,3.7184,3.6631,3.4263,0.0,0.0,0.0,0.0,0.0,0.0,0.0,0.0,3.0179,3.0859,3.2282,3.325,0.0,0.0,0.0,0.0,0.0,0.0,0.0,0.0,4.7348,4.6771,4.5862,4.6174,4.6163,4.5624,4.6105,4.6163,4.5605,4.5586,4.5586,4.5586,4.5586,4.5586,4.5586,4.5586,4.5586,4.5586,4.5586,4.5637,4.5668,4.562,4.5637,0.0,4.562,4.5586,4.5586,4.5586,4.5586,4.5586,4.5586,4.5797,4.6028,4.5701,4.5817,4.6028,4.5701,4.5586,4.5586,4.5586,4.5586,4.5586,4.5586,4.5586,4.5586,4.5586,4.5586,4.5586,4.5586,4.5688,4.5602,4.4929,4.4711,4.4494,4.3839,4.3605,4.3497,4.3497,4.3497,4.3497,4.3497,4.3497,4.3497,4.3497,4.3497,4.3497,4.3497,4.3497,4.3497,4.3497,4.3041,4.2766,4.2742,4.1515,4.0671,4.0377,3.9093,3.8102,3.7526,3.6174,3.5349,3.499,3.3697,3.2797,3.2302,3.2302,3.2302,0.0,0.0,0.0,0.0,0.0,0.0,0.0,0.0,0.0,0.0,0.0,0.0,0.0,2.9794,3.0679,3.1795,3.2699,0.0,0.0,0.0,0.0,0.0,0.0,0.0,4.5998,4.6612,4.6718,4.5853,4.568,4.5586,4.5586,4.5586,4.5586,4.5586,4.5586,4.5586,4.5586,4.5586,4.5586,4.5586,4.5586,4.5586,4.5586,4.5586,4.5668,0.0,4.5651,4.5668,4.5771,4.5635,4.5586,4.5586,4.5586,4.5586,4.5586,4.5586,4.6144,4.6778,4.5893,4.6163,4.6759,4.5874,4.5586,4.5586,4.5586,4.5586,4.5586,4.5586,4.5586,4.5586,4.5586,4.5586,4.5605,4.5682,4.6317,4.6589,4.5428,4.5527,4.5458,4.4236,4.3752,4.3516,4.3497,4.3497,4.3497,4.3497,4.3497,4.3497,4.3497,4.3497,4.3497,4.3497,4.3497,4.3497,4.3497,4.3497,4.3497,4.3497,4.2742,4.1934,4.1148,4.0322,3.9166,3.7606,3.6798,3.5936,3.499,3.4321,3.3917,3.3807,3.3862,3.3844,2.6449,0.0,2.7687,2.7687,2.7091,2.6553,0.0,0.0,0.0,0.0,0.0,0.0,0.0,0.0,0.0,3.4045,3.4801,3.5782,3.8161,0.0,0.0,0.0,0.0,4.8295,4.6032,4.6593,4.6698,4.5719,4.5605,4.5586,4.5586,4.5586,4.5586,4.5586,4.5586,4.5586,4.5586,4.5586,4.5586,4.5586,4.5586,4.5586,4.5586,4.5586,4.562,4.5654,4.5603,4.562,4.5635,4.5603,4.5586,4.5586,4.5586,4.5586,4.5586,4.5586,4.6144,4.6778,4.5893,4.6163,4.6759,4.5874,4.5586,4.5586,4.5586,4.5586,4.5586,4.5586,4.5586,4.5586,4.5586,4.5586,4.5759,4.6432,4.6759,4.6743,4.6135,4.6096,4.576,4.428,4.3952,4.3789,4.3516,4.3497,4.3497,4.3497,4.3497,4.3497,4.3497,4.3497,4.3497,4.3497,4.3497,4.3497,4.3497,4.3497,4.3497,4.3497,4.2727,4.1937,4.1148,4.0322,3.9423,3.8432,3.7624,3.6486,3.499,3.5477,3.5055,3.3807,3.4431,3.4394,2.5551,2.5428,2.5303,2.5341,2.5322,2.5303,0.0,0.0,0.0,0.0,0.0,0.0,0.0,0.0,0.0,0.0,3.5238,0.0,0.0,0.0,0.0,0.0,4.7489,4.7603,0.0,4.6602,4.618,4.5624,4.5586,4.5586,4.5586,4.5586,4.5586,4.5586,4.5586,4.5586,4.5586,4.5586,4.5586,4.5586,4.5586,4.5586,4.5586,4.5586,4.5586,4.5586,4.5586,4.5586,4.5586,4.5586,4.5586,4.5586,4.5586,4.5586,4.5586,4.5586,4.6144,4.6836,4.6355,4.6509,4.6817,4.6355,4.6201,4.6124,4.572,4.5874,4.6105,4.5701,4.5586,4.5586,4.5586,4.5586,4.5817,4.6701,4.7182,4.7395,4.7163,4.6999,4.6497,4.5099,4.4376,4.3869,4.3566,4.3497,4.3497,4.3497,4.3497,4.3497,4.3497,4.3497,4.3497,4.3497,4.3497,4.3497,4.3497,4.3497,4.3497,4.3497,4.3075,4.2488,4.168,4.0891,3.9717,3.8175,3.7716,3.6872,3.5605,3.6064,3.5826,3.4945,3.5,3.5,2.5608,2.5669,2.5677,2.5457,2.5341,2.5303,0.0,0.0,0.0,0.0,0.0,0.0,0.0,0.0,0.0,0.0,0.0,0.0,0.0,0.0,0.0,4.7124,4.6605,0.0,4.7413,4.6355,4.5586,4.5586,4.5586,4.5586,4.5586,4.5586,4.5586,4.5586,4.5586,4.5586,4.5586,4.5586,4.5586,4.5586,4.5586,4.5586,4.5586,4.5586,4.5586,4.5586,4.5586,0.0,4.5586,4.5586,4.5586,4.5586,4.5586,4.5586,4.5586,4.5586,4.6144,4.6932,4.7048,4.6932,4.6721,4.6855,4.6817,4.6567,4.5817,4.6124,4.6586,4.597,4.5797,4.5797,4.5797,4.5893,4.6201,4.7067,4.7798,4.8298,4.8298,4.8084,4.7518,4.631,4.5095,4.4199,4.3999,4.3697,4.3516,4.366,4.3587,4.3497,4.3497,4.3497,4.3497,4.3497,4.3497,4.3497,4.3497,4.3497,4.3497,4.3497,4.3497,4.3075,4.2158,4.135,3.99,3.7716,3.7661,3.7276,3.6468,3.6597,3.6541,3.6285,3.5679,3.5716,2.5669,2.6657,2.7291,2.5774,2.5341,2.5303,0.0,0.0,0.0,0.0,0.0,0.0,0.0,0.0,0.0,0.0,0.0,0.0,0.0,0.0,4.5817,4.497,0.0,4.6971,4.5066,4.5316,4.5586,4.5586,4.5586,4.5586,4.5586,4.5586,4.5586,4.5586,4.5586,4.5586,4.5586,4.5586,4.5586,4.5586,4.5586,4.5586,4.5586,4.5586,4.5586,4.5586,0.0,4.5586,4.5586,4.5586,4.5586,4.5586,4.5586,4.5586,4.5586,4.5586,4.6144,4.7009,4.7682,4.699,4.5913,4.6663,4.6394,4.5759,4.5624,4.5682,4.5932,4.6528,4.6701,4.6701,4.6701,4.7221,4.7932,4.8817,4.9106,4.9202,4.9202,4.9164,4.8777,4.756,4.6341,4.5641,4.5971,4.4628,4.3734,4.4391,4.3952,4.3497,4.3497,4.3497,4.3497,4.3497,4.3497,4.3497,4.3497,4.3497,4.3497,4.3497,4.3497,4.2818,4.1368,4.0506,3.9588,3.8542,3.8524,3.812,3.7312,3.7991,3.7624,3.6303,3.6853,3.6817,2.5687,2.6203,2.6654,2.6302,2.6833,0.0,0.0,0.0,0.0,0.0,0.0,0.0,0.0,0.0,0.0,0.0,0.0,0.0,4.3374,4.3951,4.4355,0.0,0.0,4.5951,4.574,4.5643,4.5586,4.5586,4.5586,4.5586,4.5586,4.5586,4.5586,4.5586,4.5586,4.5586,4.5586,4.5586,4.5586,4.5586,4.5586,4.5586,4.5586,4.5586,4.5586,4.5586,0.0,4.5586,4.5586,4.5586,4.5586,4.5586,4.5586,4.5586,4.5586,4.5586,4.6144,4.6951,4.7317,4.6951,4.6374,4.6778,4.6913,4.6874,4.6432,4.6932,4.7644,4.7567,4.724,4.7009,4.7451,4.7817,4.8317,4.9183,4.9394,4.9529,4.999,4.9721,4.9163,4.8449,4.7296,4.6467,4.6494,4.5551,4.4784,4.4704,4.4739,4.4646,4.4207,4.4136,4.4136,4.4136,4.3752,4.3497,4.3497,4.3497,4.3497,4.3497,4.3497,4.2965,4.1809,4.1387,4.0598,3.9368,3.935,3.8946,3.8138,3.8524,3.8322,3.7606,3.7514,3.7514,2.5703,2.5963,2.6295,2.6553,0.0,0.0,0.0,0.0,0.0,0.0,0.0,0.0,0.0,0.0,0.0,0.0,0.0,4.247,4.3547,4.3297,4.3643,4.5393,4.5182,4.5355,4.649,4.599,4.5586,4.5586,4.5586,4.5586,4.5586,4.5586,4.5586,4.5586,4.5586,4.5586,4.5586,4.5586,4.5586,4.5586,4.5586,4.5586,4.5586,4.5586,4.5586,4.5586,4.5586,4.5586,4.5586,4.5586,4.5586,4.5586,4.5586,4.5586,4.5586,4.5586,4.6009,4.6624,4.6836,4.6778,4.6663,4.7048,4.7471,4.7702,4.7086,4.7932,4.8952,4.8298,4.7798,4.7625,4.824,4.8567,4.8875,4.9548,4.9702,4.9894,5.0548,5.0183,4.9624,4.9379,4.8314,4.7406,4.7237,4.6574,4.5863,4.5332,4.5637,4.5655,4.5055,4.4814,4.4683,4.4683,4.3989,4.3497,4.3497,4.3497,4.3497,4.3497,4.3497,4.313,4.2323,4.2304,4.1625,4.0212,3.9992,3.968,3.9258,3.9074,3.9074,3.9239,3.8432,3.8377,2.5703,2.6875,2.7734,2.617,0.0,0.0,0.0,0.0,0.0,0.0,0.0,0.0,0.0,0.0,0.0,0.0,4.195,4.3566,4.5182,0.0,4.6297,4.5663,4.6259,4.6451,4.5759,4.5624,4.5586,4.5586,4.5586,4.5586,4.5586,4.5586,4.5586,4.5586,4.5586,4.5586,4.5586,4.5586,4.5586,4.5586,4.5586,4.5586,4.5586,4.5586,4.5586,4.5586,4.5586,4.5586,4.5586,4.5586,4.5586,4.5586,4.5586,4.5586,4.5586,4.5586,4.5624,4.5797,4.6624,4.6374,4.5951,4.7509,4.7548,4.699,4.6932,4.7509,4.8182,4.8125,4.8644,4.9221,4.9298,4.9913,5.0529,5.0587,5.0606,5.0606,5.0683,5.0644,5.0606,5.0567,4.9586,4.8875,4.9218,4.7721,4.6576,4.687,4.6341,4.5862,4.5807,4.5186,4.4683,4.4683,4.3989,4.3497,4.3497,4.3497,4.3497,4.3497,4.3497,4.313,4.2323,4.2304,4.1901,4.1038,4.0286,4.023,4.0946,4.0175,4.0194,4.0928,4.0102,3.9753,2.5703,2.6582,2.7324,2.668,0.0,0.0,0.0,0.0,0.0,0.0,0.0,0.0,0.0,0.0,0.0,0.0,4.2739,4.4259,4.5432,4.5874,4.597,4.5624,4.5893,4.5951,4.5624,4.5586,4.5586,4.5586,4.5586,4.5586,4.5586,4.5586,4.5586,4.5586,4.5586,4.5586,4.5586,4.5586,4.5586,4.5586,4.5586,4.5586,4.5586,4.5586,4.5586,4.5586,4.5586,4.5586,4.5586,4.5586,4.5586,4.5586,4.5586,4.5586,4.5663,4.6201,4.6067,4.572,4.6605,4.6336,4.5701,4.6336,4.7048,4.7548,4.7048,4.8221,4.9606,4.9067,4.9529,5.0202,5.0202,5.0452,5.0702,5.0702,5.0702,5.0702,5.0702,5.0702,5.0702,5.0702,5.0125,4.9702,4.9856,4.8818,4.7882,4.7512,4.7407,4.7297,4.7035,4.6738,4.6355,4.5882,4.441,4.3497,4.3497,4.3497,4.3497,4.3497,4.3497,4.3351,4.3057,4.3039,4.2671,4.1864,4.1552,4.1295,4.1111,4.0799,4.0818,4.1093,4.0267,4.0175,2.5703,2.6133,2.6582,0.0,0.0,0.0,0.0,0.0,0.0,0.0,0.0,0.0,0.0,0.0,0.0,0.0,4.3431,4.4913,4.5509,4.5586,4.5586,4.5586,4.5586,4.5586,4.5586,4.5586,4.5586,4.5586,4.5586,4.5586,4.5586,4.5586,4.5586,4.5586,4.5586,4.5586,4.5586,4.5586,4.5586,4.5586,4.5586,4.5586,4.5586,4.5586,4.5586,4.5586,4.5586,4.5586,4.5586,4.5586,4.5586,4.5586,4.5586,4.5586,4.5663,4.6278,4.6105,4.5682,4.6278,4.6105,4.5643,4.5913,4.6797,4.7625,4.7067,4.849,5.0106,4.9221,4.9817,5.0702,5.0702,5.0702,5.0702,5.0702,5.0702,5.0702,5.0702,5.0702,5.0702,5.0702,5.0471,5.026,5.0106,4.9622,4.9046,4.8364,4.8489,4.8583,4.8306,4.804,4.7465,4.6383,4.4953,4.3956,4.3697,4.3563,4.3497,4.3497,4.3497,4.3497,4.3497,4.3497,4.3222,4.269,4.2433,4.2158,4.1864,4.1607,4.1625,4.1846,4.102,4.0946,2.5703,2.5703,0.0,0.0,0.0,0.0,0.0,0.0,0.0,0.0,0.0,0.0,0.0,0.0,0.0,4.1393,4.3912,4.5566,4.5586,4.5586,4.5586,4.5586,4.5586,4.5586,4.5586,4.5586,4.5586,4.5586,4.5586,4.5586,4.5586,4.5586,4.5586,4.5586,4.5586,4.5586,4.5586,4.5586,4.5586,4.5586,4.5586,4.5586,4.5586,4.5586,4.5586,4.5586,4.5586,4.5586,4.5586,4.5586,4.5586,4.5586,4.5586,4.5586,4.5586,4.5605,4.5605,4.5586,4.5605,4.5605,4.574,4.6605,4.6894,4.6913,4.6894,4.8067,4.9202,4.8336,4.9336,5.0683,5.0683,5.0683,5.0702,5.0702,5.0702,5.0702,5.0702,5.0702,5.0702,5.0702,5.0702,5.0567,5.0183,5.0106,4.9968,4.9547,4.9489,4.9489,4.9507,4.8794,4.7654,4.6025,4.5527,4.4941,4.4091,4.3712,4.3497,4.3497,4.3497,4.3497,4.3497,4.3497,4.3497,4.3497,4.2708,4.269,4.3497,4.269,4.2708,4.3461,4.2671,4.2304,2.5703,2.6152,0.0,0.0,0.0,0.0,0.0,0.0,0.0,0.0,0.0,0.0,0.0,0.0,0.0,4.1585,4.2951,4.4239,4.5432,4.5586,4.5586,4.5586,4.5586,4.5586,4.5586,4.5586,4.5586,4.5586,4.5586,4.5586,4.5586,4.5586,4.5586,4.5586,4.5586,4.5586,4.5586,4.5586,4.5586,4.5586,4.5586,4.5586,4.5586,4.5586,4.5586,4.5586,4.5586,4.5586,4.5586,4.5586,4.5586,4.5586,4.5586,4.5586,4.5663,4.6297,4.6124,4.5682,4.6297,4.6105,4.5624,4.5893,4.6394,4.6797,4.6163,4.7163,4.8317,4.749,4.849,4.9779,4.9779,5.024,5.0702,5.0702,5.0702,5.0702,5.0702,5.0702,5.0702,5.0702,5.1164,5.1318,5.0644,5.076,5.0698,5.003,4.9689,4.9613,4.9879,4.9215,4.8544,4.8037,4.7138,4.6196,4.5346,4.4966,4.4494,4.3879,4.3642,4.3497,4.3497,4.3497,4.3497,4.3497,4.3259,4.3259,4.3497,4.3259,4.3259,4.3461,4.2671,4.2598,2.5703,0.0,0.0,0.0,0.0,0.0,0.0,0.0,0.0,0.0,0.0,0.0,0.0,0.0,0.0,4.1655,4.2563,4.3451,4.4451,4.4874,4.4951,4.4643,4.5182,4.5451,4.5124,4.5066,4.5066,4.5066,4.4778,4.4739,4.5066,4.5066,4.5066,4.5066,4.5066,4.5066,4.5066,4.5066,4.5259,4.5586,4.5586,4.5586,4.5586,4.5586,4.5586,4.5586,4.5586,4.5586,4.5586,4.5586,4.5586,4.5586,4.5586,4.5586,4.5663,4.6182,4.6047,4.5682,4.6201,4.6028,4.5586,4.5586,4.5951,4.6297,4.5759,4.6547,4.7586,4.7432,4.8355,4.9471,4.9817,5.0298,5.0702,5.0702,5.0702,5.0702,5.0702,5.0702,5.0779,5.1106,5.1299,5.1376,5.1201,5.1125,5.0914,5.0414,5.0125,5.0048,5.0317,4.9925,4.9477,4.9144,4.8337,4.7452,4.6588,4.5875,4.5282,4.4736,4.4244,4.3879,4.3716,4.3587,4.3497,4.3497,4.3497,4.3497,4.3497,4.3497,4.3497,4.3479,4.3002,4.3039,0.0,0.0,0.0,0.0,0.0,0.0,0.0,0.0,0.0,0.0,0.0,0.0,0.0,4.0423,3.9869,4.1613,4.2444,4.2912,4.3085,4.372,4.3912,4.3181,4.4432,4.5047,4.4259,4.4182,4.4182,4.4182,4.3508,4.3412,4.4143,4.4182,4.4182,4.4182,4.4182,4.4182,4.4182,4.4182,4.4586,4.5355,4.5451,4.5432,4.5374,4.5528,4.5586,4.5586,4.5586,4.5586,4.5586,4.5586,4.5586,4.5586,4.5586,4.5586,4.5586,4.5586,4.5586,4.5586,4.5586,4.5586,4.5586,4.5586,4.5586,4.5586,4.5586,4.6144,4.6932,4.7663,4.8548,4.9452,5.026,5.0567,5.0702,5.0702,5.0702,5.0702,5.0702,5.0702,5.0933,5.1645,5.126,5.1029,5.1698,5.1258,5.0779,5.0702,5.0702,5.0702,5.0702,5.0702,5.0394,4.9606,4.924,4.8702,4.7837,4.6656,4.5932,4.5862,4.506,4.4423,4.4077,4.371,4.3516,4.3497,4.3497,4.3497,4.3497,4.3497,4.3497,4.3497,4.3497,4.3497,0.0,2.5703,0.0,0.0,0.0,0.0,0.0,0.0,0.0,0.0,0.0,0.0,0.0,4.0019,3.9918,4.1562,4.1373,4.1527,4.2912,4.3256,4.3294,4.3124,4.3412,4.3566,4.3374,4.3355,4.3355,4.3355,4.3201,4.3181,4.3355,4.3355,4.3355,4.3355,4.3355,4.3355,4.3355,4.3355,4.3451,4.3643,4.4278,4.4239,4.3682,4.4989,4.5586,4.5586,4.5586,4.5586,4.5586,4.5586,4.5586,4.5586,4.5586,4.5586,4.5586,4.5586,4.5586,4.5586,4.5586,4.5586,4.5586,4.5586,4.5586,4.5586,4.5586,4.572,4.5913,4.6086,4.7221,4.8413,4.8606,4.9663,5.0702,5.0702,5.0702,5.0702,5.0702,5.0702,5.0741,5.0933,5.1335,5.1486,5.1048,5.1356,5.1414,5.0818,5.0702,5.0702,5.0702,5.0702,5.0625,5.0433,5.0356,4.9952,4.9106,4.7893,4.6929,4.6235,4.5196,4.4568,4.4467,4.4106,4.3771,4.3497,4.3497,4.3497,4.3497,4.3497,4.3497,4.3497,4.3497,4.3497,0.0,0.0,0.0,0.0,0.0,0.0,0.0,0.0,0.0,0.0,0.0,0.0,3.9364,3.8999,3.9018,3.9884,3.9619,3.9623,4.0527,4.1024,4.1139,4.07,4.1373,4.17,4.1316,4.1623,4.17,4.1316,4.1277,4.1277,4.1277,4.1643,4.1854,4.1854,4.1854,4.1854,4.1854,4.1854,4.2066,4.2489,4.3335,4.3508,4.3143,4.4393,4.5201,4.5586,4.5586,4.5355,4.5009,4.5432,4.5336,4.5009,4.5432,4.5586,4.5586,4.5586,4.5586,4.5586,4.5586,4.5586,4.5586,4.5586,4.5586,4.5586,4.5586,4.5586,4.5682,4.6105,4.6855,4.7605,4.8009,4.9086,5.0067,5.0067,5.0394,5.0702,5.0702,5.0702,5.0818,5.1203,5.1298,5.1316,5.1279,5.1299,5.1183,5.076,5.0702,5.0702,5.0702,5.0702,5.0702,5.0702,5.0702,5.051,5.0048,4.9067,4.8279,4.7812,4.6834,4.6201,4.605,4.5426,4.4673,4.3758,4.3758,4.3679,4.3497,4.3497,4.3497,4.3497,4.3497,4.3497,0.0,0.0,0.0,0.0,0.0,0.0,0.0,0.0,0.0,0.0,0.0,3.7172,3.7205,3.7159,3.7203,3.7409,3.7382,3.7392,3.7546,3.8296,3.8565,3.7853,3.9123,3.9796,3.9142,3.9681,3.9777,3.9123,3.9084,3.9084,3.9084,3.97,4.0065,4.0065,4.0065,4.0065,4.0065,4.0065,4.0431,4.1162,4.2027,4.2662,4.3104,4.347,4.4201,4.5163,4.5163,4.4759,4.4143,4.4874,4.4816,4.4374,4.5086,4.547,4.5586,4.5586,4.5586,4.5586,4.5586,4.5586,4.5586,4.5586,4.5586,4.5586,4.5586,4.5586,4.574,4.6471,4.6778,4.7048,4.7721,4.8644,4.9394,4.9394,5.0067,5.0702,5.0702,5.0702,5.0914,5.1568,5.1164,5.0914,5.1588,5.1145,5.0702,5.0702,5.0702,5.0702,5.0702,5.0702,5.0702,5.0702,5.0702,5.0702,5.0702,4.9894,4.9394,4.9409,4.8567,4.7991,4.7684,4.698,4.5899,4.4429,4.4202,4.3974,4.3679,4.3679,4.3679,4.3679,4.3679,4.3679,0.0,0.0,0.0,0.0,0.0,0.0,0.0,0.0,0.0,0.0,3.3021,3.3809,3.3701,3.3661,3.3898,3.461,3.4712,3.4968,3.5738,3.654,3.7002,3.6892,3.7738,3.8296,3.818,3.8277,3.8296,3.818,3.8161,3.8161,3.8161,3.8277,3.8334,3.8334,3.8334,3.8334,3.8334,3.8334,3.8392,3.8527,3.9392,4.095,4.3047,4.1643,4.1893,4.3431,4.3431,4.3374,4.3278,4.3393,4.3778,4.4316,4.4432,4.4932,4.5586,4.5586,4.5586,4.5586,4.5586,4.5586,4.5586,4.5586,4.5586,4.5586,4.5586,4.5586,4.5605,4.574,4.6317,4.6932,4.7028,4.8221,4.9394,4.9394,5.0067,5.0702,5.0702,5.0702,5.0721,5.0856,5.076,5.0721,5.0856,5.076,5.0702,5.0702,5.0702,5.0702,5.0702,5.0702,5.0702,5.0702,5.0702,5.0702,5.0702,4.9894,4.9413,4.9394,4.8568,4.8068,4.8049,4.7914,4.7274,4.6035,4.5023,4.4501,4.4447,4.4447,4.4447,4.4447,4.4447,4.4447,2.4449,0.0,0.0,0.0,0.0,0.0,0.0,0.0,0.0,2.9722,3.0189,3.1001,3.2779,3.2714,3.2619,3.3396,3.3167,3.3188,3.4002,3.4472,3.4715,3.4639,3.4974,3.5374,3.5828,3.6315,3.6603,3.6603,3.6603,3.6603,3.6603,3.6142,3.6295,3.7238,3.6834,3.6815,3.7276,3.7276,3.7526,3.8007,3.8392,3.9161,4.0219,3.945,4.0296,4.2335,4.1854,4.1393,4.1046,4.1989,4.2297,4.2258,4.3239,4.3855,4.4239,4.4701,4.4874,4.4932,4.5432,4.5586,4.5586,4.5586,4.5586,4.5586,4.5586,4.5586,4.5586,4.5586,4.5874,4.6163,4.6163,4.7086,4.8105,4.8567,4.9336,5.0106,5.0587,5.0702,5.0702,5.0702,5.0702,5.0702,5.0702,5.0702,5.0702,5.0702,5.0702,5.0702,5.0702,5.0702,5.0702,5.0702,5.0702,5.0702,5.0702,5.0356,5.0125,5.0125,4.9779,4.9567,4.9567,4.9087,4.8567,4.8045,4.6409,4.5236,4.458,4.458,4.458,4.458,4.458,4.458,0.0,0.0,0.0,0.0,0.0,0.0,0.0,0.0,0.0,0.0,2.7826,2.8792,3.1468,3.1404,3.1125,3.1668,3.1463,3.1424,3.198,3.2538,3.2826,3.2725,3.2929,3.3276,3.3839,3.4481,3.486,3.4834,3.4853,3.4853,3.4853,3.4218,3.443,3.5699,3.5161,3.5141,3.5738,3.5949,3.6507,3.7373,3.7565,3.7796,3.7988,3.7777,3.8719,4.0489,4.0046,3.9508,3.9065,4.0315,4.07,4.0623,4.1931,4.2701,4.3162,4.3778,4.3989,4.4124,4.497,4.5259,4.5297,4.5528,4.5586,4.5586,4.5586,4.5586,4.5586,4.5586,4.5586,4.5586,4.5586,4.624,4.7048,4.7663,4.8625,4.9644,5.051,5.0702,5.0702,5.0702,5.0702,5.0702,5.0702,5.0702,5.0702,5.0702,5.0702,5.0702,5.0702,5.0702,5.0702,5.0702,5.0702,5.0702,5.0702,5.0702,5.0702,5.0702,5.0702,5.0587,5.0375,4.9952,4.9433,4.8779,4.7449,4.6244,4.5195,4.4967,4.4986,4.5195,4.5195,4.5195,0.0,0.0,0.0,0.0,0.0,0.0,0.0,0.0,0.0,0.0,2.6496,2.7364,2.8369,2.8479,2.8379,2.8359,2.8953,2.945,2.9497,3.0909,3.1965,3.1965,3.2687,3.3158,3.3063,3.3091,3.3106,3.3038,3.3045,3.3045,3.3045,3.2987,3.3006,3.3083,3.3064,3.3064,3.3103,3.391,3.4776,3.5641,3.6411,3.7199,3.7969,3.7142,3.6853,3.7007,3.7796,3.8104,3.8065,3.8161,3.9104,4.0508,4.0585,4.1643,4.3104,4.3143,4.3162,4.3278,4.4085,4.4374,4.4489,4.5316,4.5586,4.5586,4.5586,4.5586,4.5586,4.5586,4.5586,4.5586,4.5586,4.624,4.6913,4.6951,4.8221,4.9644,5.051,5.0702,5.0702,5.0702,5.0702,5.0702,5.0702,5.0702,5.0702,5.0702,5.0702,5.0702,5.0702,5.0702,5.0702,5.0702,5.0702,5.0702,5.0702,5.0702,5.0702,5.0702,5.0702,5.0337,4.949,5.0221,4.949,4.7088,4.7664,4.7587,4.678,4.5954,4.5973,4.678,4.678,4.678,0.0,0.0,0.0,0.0,0.0,0.0,0.0,0.0,2.4492,2.4805,2.5565,2.6266,2.6578,2.7064,2.7585,2.8084,2.7959,2.8004,2.8513,2.964,3.02,2.9599,3.0294,3.0989,3.1413,3.1463,3.1911,3.3006,3.2018,3.16,3.216,3.0609,3.0448,3.2083,3.1602,3.1814,3.2891,3.3218,3.3526,3.3833,3.4122,3.4718,3.5545,3.5238,3.5411,3.5949,3.6257,3.6411,3.6488,3.7565,3.8354,3.895,3.9508,4.0431,4.1489,4.2066,4.2277,4.2393,4.3239,4.3528,4.3662,4.4489,4.4778,4.4876,4.5432,4.5586,4.5586,4.5586,4.5586,4.5586,4.5586,4.5817,4.6336,4.7413,4.8567,4.9644,5.051,5.0702,5.0702,5.0702,5.0702,5.0702,5.0702,5.0702,5.0702,5.0702,5.0702,5.0702,5.0702,5.0702,5.0702,5.0702,5.0702,5.0702,5.0702,5.0702,5.0702,5.0702,5.0702,5.0548,5.026,5.0009,4.9432,4.8529,4.7722,4.7183,4.6913,4.6028,4.6315,4.7662,4.7125,4.7183,2.4111,0.0,0.0,0.0,0.0,0.0,0.0,0.0,2.4316,2.4023,2.4883,2.5703,2.5702,2.617,2.6736,2.7263,2.7164,2.7192,2.7725,2.858,2.8937,2.831,2.8735,2.9284,2.9745,2.9797,3.0263,3.1402,3.0363,2.9949,3.053,2.8908,2.8743,3.0432,2.992,3.0122,3.124,3.1549,3.1838,3.2127,3.2397,3.2983,3.3807,3.3807,3.409,3.4661,3.5257,3.5493,3.5603,3.6699,3.7315,3.7642,3.8527,3.9373,4.02,4.1046,4.1354,4.1489,4.2354,4.2662,4.2835,4.3932,4.4299,4.4455,4.5336,4.5586,4.5586,4.5586,4.5586,4.5586,4.5586,4.5586,4.5951,4.7355,4.8144,4.8875,5.001,5.0491,5.0702,5.0702,5.0702,5.0702,5.0702,5.0702,5.0702,5.0702,5.0702,5.0702,5.0702,5.0702,5.0702,5.0702,5.0702,5.0702,5.0702,5.0702,5.0702,5.0702,5.0702,5.0567,5.0279,4.9701,4.9124,4.8567,4.7453,4.6895,4.6912,4.6317,4.6912,4.8507,4.7989,4.8029,0.0,0.0,0.0,0.0,0.0,0.0,2.2246,0.0,2.416,2.3301,2.4492,2.5703,2.5703,2.5703,2.5703,2.5703,2.6406,2.6953,2.6951,2.7705,2.8244,2.8225,2.8244,2.8232,2.8173,2.8164,2.8149,2.8117,2.8081,2.807,2.8055,2.8055,2.8058,2.8055,2.8015,2.8,2.8,2.8846,2.9691,3.0574,3.134,3.2164,3.2963,3.2963,3.2937,3.3,3.468,3.5449,3.5468,3.5526,3.6007,3.6776,3.7623,3.8507,3.9392,4.0181,4.0469,4.0623,4.147,4.1758,4.2027,4.3682,4.4241,4.4416,4.5297,4.5566,4.5586,4.5586,4.5586,4.5586,4.5586,4.5586,4.5817,4.6701,4.6913,4.7355,4.9009,5.0029,5.0644,5.0683,5.0683,5.0664,5.0702,5.0702,5.0702,5.0702,5.0702,5.0702,5.0702,5.0702,5.0702,5.0702,5.0702,5.0702,5.0702,5.0702,5.0702,5.0702,5.0702,5.0317,4.9471,4.9413,4.8625,4.6985,4.6913,4.6895,4.6908,4.6856,4.7739,4.9408,4.9431,4.9452,2.4966,0.0,0.0,0.0,0.0,0.0,0.0,0.0,0.0,2.4082,2.4922,2.5703,2.5703,2.5703,2.5703,2.5703,2.5898,2.6055,2.6054,2.6815,2.7126,2.649,2.6976,2.7342,2.7337,2.7335,2.7582,0.0,2.762,2.7223,2.7229,2.719,2.7165,2.7159,2.7751,2.8054,2.8,2.8245,2.8807,2.9663,2.9896,3.0778,3.2193,3.2193,3.2513,3.3073,3.3555,3.4124,3.4801,3.5913,3.6507,3.6719,3.6969,3.7988,3.9315,3.9546,3.9988,4.0527,4.0777,4.0854,4.1046,4.2143,4.2931,4.3588,4.4414,4.5105,4.5586,4.5586,4.5586,4.5586,4.5586,4.5586,4.5817,4.6701,4.6913,4.7201,4.8221,4.8664,4.9183,5.0452,5.0202,4.9952,5.0587,5.0702,5.0702,5.0702,5.0702,5.0702,5.0702,5.0702,5.0702,5.0702,5.0702,5.0702,5.0702,5.0702,5.0702,5.0702,5.0702,5.0587,5.0356,4.974,4.8894,4.7792,4.7199,4.691,4.6908,4.6277,4.7144,4.9432,5.0048,5.0337,0.0,0.0,0.0,0.0,0.0,0.0,2.4287,2.4511,2.4715,0.0,2.5059,2.5661,2.5652,2.5689,2.5684,2.5664,2.5684,2.5703,2.5703,2.6133,2.6269,2.5757,2.614,2.6468,2.6468,2.6468,2.6663,2.7171,2.6705,2.6396,2.6396,2.6367,2.6344,2.6346,2.6826,2.7084,2.7045,2.7034,2.749,2.8346,2.8716,2.9583,3.0865,3.1234,3.1639,3.2094,3.2821,3.3219,3.35,3.5481,3.628,3.6311,3.6685,3.7448,3.8426,3.9161,3.9719,4.0162,4.0506,4.0631,4.0766,4.1585,4.219,4.2755,4.3551,4.4378,4.5049,4.5049,4.5316,4.5586,4.5586,4.5586,4.572,4.624,4.6355,4.6586,4.7431,4.7299,4.7568,4.9298,4.949,4.9567,5.0067,5.0452,5.0702,5.0702,5.0702,5.0702,5.0702,5.0702,5.0702,5.0702,5.0702,5.0702,5.0702,5.0702,5.0702,5.0702,5.0702,5.0529,5.0183,4.9317,4.8452,4.7625,4.6777,4.6371,4.6371,4.62,4.7086,4.8856,4.9375,4.9625,0.0,0.0,0.0,0.0,0.0,0.0,2.4408,2.488,2.5284,0.0,2.5056,2.5583,2.5584,2.5649,2.566,2.5604,2.5643,2.5683,2.5703,2.5703,2.5703,2.5703,2.5699,2.5709,2.5707,2.5707,2.5707,2.5707,2.5707,2.5707,2.5691,2.5698,2.5698,2.5691,2.5701,2.5701,2.5709,2.5701,2.6136,2.7016,2.787,2.8684,2.944,3.0321,3.067,3.0719,3.2249,3.2551,3.2113,3.4459,3.5482,3.5651,3.6516,3.6907,3.7199,3.8854,3.9514,3.9716,4.0507,4.0796,4.0919,4.1558,4.1842,4.2075,4.2777,4.3549,4.4203,4.4186,4.4816,4.5505,4.5507,4.5565,4.5622,4.5622,4.5605,4.5834,4.6602,4.6161,4.6047,4.753,4.8529,4.9164,4.924,4.9971,5.0548,5.0548,5.0548,5.0548,5.0548,5.0471,5.0414,5.0414,5.0414,5.0414,5.0414,5.0414,5.0414,5.0414,5.0414,5.0048,4.9279,4.8606,4.7818,4.6916,4.6145,4.5699,4.5586,4.6467,4.7277,4.7972,4.8068,4.8087,0.0,0.0,0.0,0.0,0.0,0.0,2.5168,2.5283,2.5395,0.0,2.5393,2.5511,2.5521,2.5524,2.5524,2.5531,2.5524,2.559,2.5683,2.5703,2.5703,2.5703,2.5703,2.57,2.5709,2.5707,2.5707,2.5707,2.5707,2.5694,2.5702,2.5703,2.5703,2.5703,2.5699,2.5697,2.5698,2.5697,2.6142,2.701,2.7889,2.8706,2.9503,3.0381,3.0768,3.0778,3.1129,3.1578,3.2159,3.3351,3.4204,3.4827,3.5635,3.6386,3.7136,3.8166,3.9013,3.9713,4.0518,4.0811,4.0823,4.0978,4.1486,4.2086,4.2241,4.2864,4.35,4.3494,4.4113,4.4804,4.4795,4.5288,4.5761,4.5755,4.5757,4.5796,4.5911,4.5796,4.5759,4.6028,4.6796,4.7604,4.8241,4.9087,4.9663,4.9663,4.9663,4.9663,4.9663,4.9048,4.8606,4.8606,4.8606,4.8606,4.8606,4.8606,4.8606,4.8606,4.8606,4.8529,4.8375,4.8873,4.843,4.6931,4.6737,4.6313,4.5586,4.6467,4.6987,4.7142,4.7796,4.8102,0.0,0.0,0.0,2.5303,0.0,0.0,0.0,2.5341,2.537,2.5447,2.5451,2.5444,2.5444,2.5473,2.5485,2.5468,2.5483,2.5518,2.5595,2.5627,2.5664,2.5703,2.5675,2.5652,2.5703,2.5664,2.5663,2.5709,2.5707,2.5703,2.5707,2.5694,2.5703,2.5703,2.5703,2.5702,2.5702,2.5702,2.5917,2.6371,2.7638,2.8481,2.894,3.023,3.0816,3.0874,3.1304,3.1495,3.1602,3.2879,3.3613,3.4078,3.5346,3.6119,3.6668,3.7975,3.8733,3.9275,4.0528,4.0944,4.0948,4.0909,4.1202,4.1539,4.1473,4.2028,4.2795,4.3226,4.3652,4.4003,4.3995,4.4616,4.525,4.5257,4.5526,4.5805,4.5808,4.575,4.5697,4.5703,4.6024,4.6552,4.7355,4.8259,4.8855,4.8818,4.8798,4.8779,4.8759,4.8374,4.8086,4.8086,4.8086,4.8086,4.8086,4.8086,4.8086,4.8086,4.8086,4.7913,4.751,4.7929,4.7561,4.6294,4.6238,4.6046,4.5586,4.6046,4.6238,4.6275,4.666,4.6833,0.0,0.0,0.0,0.0,0.0,2.5234,0.0,0.0,0.0,0.0,0.0,0.0,0.0,0.0,0.0,0.0,0.0,0.0,0.0,2.5438,0.0,2.564,2.5603,2.5604,2.5652,2.5609,2.5595,2.5663,2.5662,2.5673,2.5686,2.5671,2.5677,2.5681,2.5681,2.5681,2.5681,2.5681,2.5681,2.5696,2.7389,2.823,2.833,3.0015,3.0818,3.0916,3.1619,3.1523,3.101,3.2682,3.3388,3.3569,3.5125,3.586,3.6211,3.7969,3.8594,3.8848,4.0527,4.111,4.1116,4.1058,4.1038,4.1,4.0886,4.1352,4.2058,4.2772,4.308,4.3206,4.321,4.3846,4.4492,4.4486,4.506,4.5619,4.568,4.5722,4.578,4.58,4.578,4.5945,4.6555,4.7441,4.8039,4.797,4.7971,4.7933,4.7889,4.7715,4.7619,4.7619,4.7619,4.7619,4.7619,4.7619,4.7619,4.7619,4.7619,4.7332,4.6679,4.6641,4.6469,4.6105,4.6086,4.6009,4.5853,4.6007,4.593,4.5586,4.5586,4.5699,0.0,0.0,0.0,0.0,2.5163,0.0,0.0,0.0,2.4896,2.5018,0.0,0.0,0.0,0.0,0.0,0.0,0.0,0.0,2.5119,2.5009,2.5043,2.5469,2.5517,2.5504,2.5511,2.5525,2.5507,2.552,2.552,2.5554,2.5604,2.5615,2.5621,2.5613,2.5613,2.5613,2.5613,2.5613,2.5609,2.5632,2.7362,2.8196,2.826,2.9951,3.0755,3.0807,3.0849,3.0856,3.093,3.2619,3.3353,3.3496,3.4472,3.5312,3.6211,3.7969,3.8594,3.8848,4.0586,4.1191,4.1191,4.1171,4.1132,4.1093,4.1068,4.1148,4.122,4.134,4.1912,4.2518,4.2517,4.313,4.3724,4.372,4.4331,4.491,4.4916,4.5472,4.5952,4.5905,4.593,4.5935,4.5844,4.6573,4.7154,4.7154,4.7089,4.7045,4.7043,4.6371,4.5873,4.5873,4.5873,4.5873,4.5873,4.5873,4.5873,4.5873,4.5873,4.5834,4.5757,4.5757,4.6395,4.7799,4.7818,4.747,4.6737,4.7467,4.7062,4.5586,4.5586,4.6007,0.0,0.0,0.0,0.0,0.0,0.0,2.5173,0.0,2.4924,0.0,0.0,0.0,0.0,0.0,0.0,0.0,2.4804,0.0,0.0,0.0,2.493,0.0,0.0,0.0,2.5084,2.5133,2.5137,2.5137,2.5252,2.5348,2.5374,2.5514,2.558,2.5544,2.5583,2.5602,2.5602,2.5602,2.5589,2.5601,2.6812,2.7644,2.8171,2.9382,3.0238,3.0736,3.0743,3.0767,3.0895,3.2104,3.2916,3.349,3.4363,3.5231,3.6152,3.7383,3.8164,3.8789,4.0019,4.0781,4.1191,4.1191,4.1172,4.1152,4.1152,4.1168,4.1041,4.0546,4.1035,4.1582,4.1074,4.1921,4.2896,4.2909,4.3516,4.4255,4.4807,4.5118,4.545,4.5976,4.6065,4.6042,4.5949,4.6208,4.6394,4.6317,4.6278,4.624,4.6198,4.5873,4.5624,4.5586,4.5586,4.5586,4.5586,4.568,4.5719,4.5719,4.5757,4.5776,4.5776,4.5776,4.6105,4.6818,4.7319,4.7165,4.632,4.7123,4.7139,4.641,4.6371,4.6795,2.5303,0.0,0.0,0.0,0.0,0.0,0.0,0.0,0.0,0.0,0.0,0.0,0.0,0.0,0.0,0.0,0.0,2.4654,0.0,2.467,0.0,0.0,0.0,0.0,0.0,2.4828,2.4861,2.4861,2.5012,2.5088,2.5094,2.5321,2.5444,2.5387,2.5498,2.5553,2.5553,2.5553,2.5542,2.5565,2.6378,2.711,2.7745,2.8609,2.9492,3.0354,3.0374,3.0528,3.084,3.1722,3.2453,3.3112,3.4222,3.5028,3.5734,3.6874,3.7851,3.871,3.9588,4.0448,4.117,4.117,4.117,4.117,4.1172,4.1172,4.1035,4.043,4.0703,4.1055,4.043,4.1152,4.207,4.207,4.2695,4.3457,4.4141,4.4394,4.4776,4.5685,4.5842,4.5872,4.6091,4.6083,4.5988,4.5896,4.5858,4.5849,4.5783,4.5755,4.5738,4.5699,4.568,4.568,4.568,4.5776,4.5838,4.5829,4.5861,4.5899,4.5899,4.5899,4.5996,4.6261,4.6882,4.6882,4.6251,4.6851,4.7221,4.739,4.7062,4.7467,0.0,0.0,0.0,2.5303,0.0,0.0,0.0,0.0,2.4528,0.0,0.0,0.0,0.0,0.0,0.0,0.0,0.0,0.0,0.0,0.0,0.0,0.0,0.0,0.0,0.0,2.4804,2.4804,2.4804,2.4818,2.4814,2.4804,2.5012,2.5118,2.5102,2.5293,2.5415,2.5415,2.5415,2.5415,2.5415,2.629,2.6713,2.6771,2.766,2.8565,2.9435,2.9373,2.9858,3.0776,3.165,3.202,3.2208,3.3854,3.451,3.4762,3.6623,3.7846,3.8723,3.9513,4.0369,4.1091,4.1091,4.1091,4.1097,4.1093,4.1094,4.1113,4.1152,4.1172,4.1191,4.1172,4.1191,4.123,4.123,4.1855,4.2441,4.248,4.3144,4.3984,4.4863,4.5039,4.5284,4.6066,4.6141,4.6104,4.6085,4.6046,4.5988,4.5993,4.5935,4.5892,4.5892,4.5892,4.5892,4.5892,4.5892,4.5912,4.5894,4.5897,4.5897,4.5897,4.5897,4.6307,4.7148,4.7184,4.7184,4.7155,4.7174,4.7643,4.8426,4.737,4.7777,0.0,0.0,2.5303,2.5303,0.0,0.0,0.0,0.0,0.0,0.0,0.0,0.0,0.0,0.0,0.0,0.0,0.0,0.0,0.0,0.0,0.0,0.0,0.0,0.0,0.0,0.0,2.441,2.441,2.4528,2.4588,2.4598,2.479,2.4949,2.5111,2.5165,2.5264,2.5406,2.5406,2.5406,2.5387,2.5702,2.6135,2.6717,2.7003,2.792,2.9264,2.9291,2.9782,3.064,3.1557,3.1938,3.205,3.3196,3.3988,3.4632,3.5801,3.6793,3.7753,3.9218,4.034,4.11,4.11,4.11,4.1106,4.1105,4.1108,4.0988,4.0429,4.0697,4.1,4.0427,4.0667,4.1069,4.1069,4.1302,4.1699,4.2285,4.2637,4.3105,4.3965,4.4141,4.4414,4.5263,4.5398,4.5546,4.6035,4.6075,4.6055,4.6002,4.5984,4.5958,4.5898,4.5897,4.5897,4.5897,4.5975,4.6074,4.6152,4.6719,4.6777,4.6191,4.6719,4.7168,4.7461,4.7452,4.7458,4.7455,4.7377,4.7782,4.8619,4.8176,4.8834,2.5303,2.5303,0.0,2.5303,2.5303,0.0,2.5214,0.0,2.4891,0.0,0.0,0.0,0.0,0.0,0.0,0.0,0.0,0.0,0.0,2.419,0.0,0.0,0.0,0.0,0.0,2.419,2.419,2.419,2.4321,2.4392,2.4391,2.457,2.4752,2.4885,2.4998,2.5133,2.5264,2.5322,2.536,2.536,2.5359,2.5667,2.6188,2.6206,2.7122,2.8753,2.881,2.9476,3.0577,3.1185,3.1416,3.1521,3.2684,3.347,3.4032,3.4947,3.6012,3.7217,3.8692,3.9785,4.0532,4.059,4.0799,4.1033,4.1091,4.1064,4.0989,4.071,4.0811,4.0937,4.0684,4.0777,4.0926,4.0932,4.0968,4.1148,4.1716,4.1836,4.2097,4.2968,4.3379,4.3867,4.4746,4.5129,4.5515,4.6085,4.6167,4.6162,4.6102,4.6104,4.6092,4.6054,4.6035,4.6035,4.6035,4.6113,4.6211,4.6289,4.6836,4.7012,4.6777,4.7305,4.7891,4.8516,4.8223,4.8203,4.8516,4.8125,4.8385,4.9221,4.9143,4.9792]},{"header":{"parameterUnit":"m.s-1","parameterCategory":1,"la1":30.6,"la2":29.2853,"lo1":-89.7004,"lo2":-87.6739,"dy":0.0162,"dx":0.0183,"nx":112,"ny":82,"refTime":"2023-05-03T00:00:00:Z","depth":0,"parameterNumber":3,"parameterNumberName":"V-component_of_WINDS"},"data":[0.0,0.0,0.0,0.0,0.0,0.0,0.0,0.0,0.0,0.0,0.0,0.0,0.0,0.0,0.0,0.0,0.0,0.0,0.0,0.0,0.0,0.0,0.0,0.0,0.0,0.0,0.0,0.0,0.0,0.0,0.0,0.0,0.0,0.0,0.0,0.0,0.0,0.0,0.0,0.0,0.0,0.0,0.0,0.0,0.0,0.0,0.0,0.0,0.0,0.0,0.0,0.0,0.0,0.0,0.0,0.0,0.0,0.0,0.0,0.0,0.0,0.0,0.0,0.0,0.0,0.0,0.0,0.0,0.0,0.0,0.0,0.0,0.0,0.0,0.0,0.0,0.0,0.0,0.0,0.0,0.0,0.0,0.0,0.0,0.0,0.0,0.0,0.0,0.0,0.0,0.0412,0.1764,0.3465,0.4519,0.4519,0.4937,0.5194,0.5124,0.0,0.0,0.0,0.0,0.0,0.0,0.0,0.0,0.0,0.0,0.0,0.0,0.0,0.0,0.0,0.0,0.0,0.0,0.0,0.0,0.0,0.0,0.0,0.0,0.0,0.0,0.0,0.0,0.0,0.0,0.0,0.0,0.0,0.0,0.0,0.0,0.0,0.0,0.0,0.0,0.0,0.0,0.0,0.0,0.0,0.0,0.0,0.0,0.0,0.0,0.0,0.0,0.0,0.0,0.0,0.0,0.0,0.0,0.0,0.0,0.0,0.0,0.0,0.0,0.0,0.0,0.0,0.0,0.0,0.0,0.0,0.0,0.0,0.0,0.0,0.0,0.0,0.0,0.0,0.0,0.0,0.0,0.0,0.0,0.0,0.0,0.0,0.0,0.0,0.0,0.0,0.0,0.0,0.0,0.0,0.0,0.0,0.0,0.0,0.0,0.0,0.0,0.0,0.0,0.0609,0.3484,0.4224,0.4519,0.4519,0.4777,0.4813,0.4393,0.0,0.0,0.0,0.0,0.0,0.0,0.0,0.0,0.0,0.0,0.0,0.0,0.0,0.0,0.0,0.0,0.0,0.0,0.0,0.0,0.0,0.0,0.0,0.0,0.0,0.0,0.0,0.0,0.0,0.0,0.0,0.0,0.0,0.0,0.0,0.0,0.0,0.0,0.0,0.0,0.0,0.0,0.0,0.0,0.0,0.0,0.0,0.0,0.0,0.0,0.0,0.0,0.0,0.0,0.0,0.0,0.0,0.0,0.0,0.0,0.0,0.0,0.0,0.0,0.0,0.0,0.0,0.0,0.0,0.0,0.0,0.0,0.0,0.0,0.0,0.0,0.0,0.0,0.0,0.0,0.0,0.0,0.0,0.0,0.0,0.0,0.0,0.0,0.0,0.0,0.0,0.0,0.0,0.0,0.0,0.0,0.0,0.0,0.0,0.0,0.0,0.0,0.0,0.0,0.2675,0.4056,0.4375,0.4429,0.4355,0.4522,0.4685,0.4796,0.4548,0.0,0.0,0.0,0.0,0.0,0.0,0.0,0.0,0.0,0.0,0.0,0.0,0.0,0.0,0.0,0.0,0.0,0.0,0.0,0.0,0.0,0.0,0.0,0.0,0.0,0.0,0.0,0.0,0.0,0.0,0.0,0.0,0.0,0.0,0.0,0.0,0.0,0.0,0.0,0.0,0.0,0.0,0.0,0.0,0.0,0.0,0.0,0.0,0.0,0.0,0.0,0.0,0.0,0.0,0.0,0.0,0.0,0.0,0.0,0.0,0.0,0.0,0.0,0.0,0.0,0.0,0.0,0.0,0.0,0.0,0.0,0.0,0.0,0.0,0.0,0.0,0.0,0.0,0.0,0.0,0.0,0.0,0.0,0.0,0.0,0.0,0.0,0.0,0.0,0.0,0.0,0.0,0.0,0.0,0.0,0.0,0.0,0.0,0.0,0.0,0.0,0.0,0.2256,0.4338,0.4216,0.4345,0.4419,0.4411,0.4274,0.4506,0.5199,0.4393,0.0,0.0,0.0,0.0,0.0,0.0,0.0,0.0,0.0,0.0,0.0,0.0,0.0,0.0,0.0,0.0,0.0,0.0,0.0,0.0,0.0,0.0,0.0,0.0,0.0,0.0,0.0,0.0,0.0,0.0,0.0,0.0,0.0,0.0,0.0,0.0,0.0,0.0,0.0,0.0,0.0,0.0,0.0,0.0,0.0,0.0,0.0,0.0,0.0,0.0,0.0,0.0,0.0,0.0,0.0,0.0,0.0,0.0,0.0,0.0,0.0,0.0,0.0,0.0,0.0,0.0,0.0,0.0,0.0,0.0,0.0,0.0,0.0,0.0,0.0,0.0,0.0,0.0,0.0,0.0,0.0,0.0,0.0,0.0,0.0,0.0,0.0,0.0,0.0,0.0,0.0,0.0,0.0,0.0,0.0,0.0,0.0,0.0,0.0,0.0,0.0,0.0,0.1955,0.4004,0.4202,0.4204,0.4463,0.5012,0.4171,0.4055,0.5031,0.4185,0.0,0.0,0.0,0.0,0.0,0.0,0.0,0.0,0.0,0.0,0.0,0.0,0.0,0.0,0.0,0.0,0.0,0.0,0.0,0.0,0.0,0.0,0.0,0.0,0.0,0.0,0.0,0.0,0.0,0.0,0.0,0.0,0.0,0.0,0.0,0.0,0.0,0.0,0.0,0.0,0.0,0.0,0.0,0.0,0.0,0.0,0.0,0.0,0.0,0.0,0.0,0.0,0.0,0.0,0.0,0.0,0.0,0.0,0.0,0.0,0.0,0.0,0.0,0.0,0.0,0.0,0.0,0.0,0.0,0.0,0.0,0.0,0.0,0.0,0.0,0.0,0.0,0.0,0.0,0.0,0.0,0.0,0.0,0.0,0.0,0.0,0.0,0.0,0.0,0.0,0.0,0.0,0.0,0.0,0.0,0.0,0.0,0.0,0.0,0.0,0.0,0.0,0.2142,0.3965,0.0,0.4554,0.4723,0.4661,0.4741,0.4762,0.4662,0.0,0.0,0.0,0.0,0.0,0.0,0.0,0.0,0.0,0.0,0.0,0.0,0.0,0.0,0.0,0.0,0.0,0.0,0.0,0.0,0.0,0.0,0.0,0.0,0.0,0.0,0.0,0.0,0.0,0.0,0.0,0.0,0.0,0.0,0.0,0.0,0.0,0.0,0.0,0.0,0.0,0.0,0.0,0.0,0.0,0.0,0.0,0.0,0.0,0.0,0.0,0.0,0.0,0.0,0.0,0.0,0.0,0.0,0.0,0.0,0.0,0.0,0.0,0.0,0.0,0.0,0.0,0.0,0.0,0.0,0.0,0.0,0.0,0.0,0.0,0.0,0.0,0.0,0.0,0.0,0.0,0.0,0.0,0.0,0.0,0.0,0.0,0.0,0.0,0.0,0.0,0.0,0.0,0.0,0.0,0.0,0.0,0.0,0.0,0.0,0.0,0.0,-0.0296,0.213,0.3794,0.0,0.4599,0.4873,0.4663,0.5001,0.5044,0.4692,0.0,0.0,0.0,0.0,0.0,0.0,0.0,0.0,0.0,0.0,0.0,0.0,0.0,0.0,0.0,0.0,0.0,0.0,0.0,0.0,0.0,0.0,0.0,0.0,0.0,0.0,0.0,0.0,0.0,0.0,0.0,0.0,0.0,0.0,0.0,0.0,0.0,0.0,0.0,0.0,0.0,0.0,0.0,0.0,0.0,0.0,0.0,0.0,0.0,0.0,0.0,0.0,0.0,0.0,0.0,0.0,0.0,0.0,0.0,0.0,0.0,0.0,0.0,0.0,0.0,0.0,0.0,0.0,0.0,0.0,0.0,0.0,0.0,0.0,0.0,0.0,0.0,0.0,0.0,0.0,0.0,0.0,0.0,0.0,0.0,0.0,0.0,0.0,0.0,0.0,0.0,0.0,0.0,0.0,0.0,0.0,0.0,0.0,0.0,0.0,0.0,0.0,-0.0441,0.1756,0.342,0.3761,0.4349,0.4829,0.5072,0.4814,0.4798,0.0,0.0,0.0,0.0,0.0,0.0,0.0,0.0,0.0,0.0,0.0,0.0,0.0,0.0,0.0,0.0,0.0,0.0,0.0,0.0,0.0,0.0,0.0,0.0,0.0,0.0,0.0,0.0,0.0,0.0,0.0,0.0,0.0,0.0,0.0,0.0,0.0,0.0,0.0,0.0,0.0,0.0,0.0,0.0,0.0,0.0,0.0,0.0,0.0,0.0,0.0,0.0,0.0,0.0,0.0,0.0,0.0,0.0,0.0,0.0,0.0,0.0,0.0,0.0,0.0,0.0,0.0,0.0,0.0,0.0,0.0,0.0,0.0,0.0,0.0,0.0,0.0,0.0,0.0,0.0,0.0,0.0,0.0,0.0,0.0,0.0,0.0,0.0,0.0,0.0,0.0,0.0,0.0,0.0,0.0,0.0,0.0,0.0,0.0,0.0,0.0,0.0,0.0,0.0148,0.2072,0.3591,0.4361,0.495,0.5311,0.5391,0.5585,0.5767,0.5804,0.0,0.0,0.0,0.0,0.0,0.0,0.0,0.0,0.0,0.0,0.0,0.0,0.0,0.0,0.0,0.0,0.0,0.0,0.0,0.0,0.0,0.0,0.0,0.0,0.0,0.0,0.0,0.0,0.0,0.0,0.0,0.0,0.0,0.0,0.0,0.0,0.0,0.0,0.0,0.0,0.0,0.0,0.0,0.0,0.0,0.0,0.0,0.0,0.0,0.0,0.0,0.0,0.0,0.0,0.0,0.0,0.0,0.0,0.0,0.0,0.0,0.0,0.0,0.0,0.0,0.0,0.0,0.0,0.0,0.0,0.0,0.0,0.0,0.0,0.0,0.0,0.0,0.0,0.0,0.0,0.0,0.0,0.0,0.0,0.0,0.0,0.0,0.0,0.0,0.0,0.0,0.0,0.0,0.0,0.0,0.0,0.0,0.0,0.0,0.0,0.0,0.0,0.0345,0.2087,0.3455,0.4172,0.5115,0.5512,0.5076,0.5757,0.6085,0.5819,0.0,0.0,0.0,0.0,0.0,0.0,0.0,0.0,0.0,0.0,0.0,0.0,0.0,0.0,0.0,0.0,0.0,0.0,0.0,0.0,0.0,0.0,0.0,0.0,0.0,0.0,0.0,0.0,0.0,0.0,0.0,0.0,0.0,0.0,0.0,0.0,0.0,0.0,0.0,0.0,0.0,0.0,0.0,0.0,0.0,0.0,0.0,0.0,0.0,0.0,0.0,0.0,0.0,0.0,0.0,0.0,0.0,0.0,0.0,0.0,0.0,0.0,0.0,0.0,0.0,0.0,0.0,0.0,0.0,0.0,0.0,0.0,0.0,0.0,0.0,0.0,0.0,0.0,0.0,0.0,0.0,0.0,0.0,0.0,0.0,0.0,0.0,0.0,0.0,0.0,0.0,0.0,0.0,0.0,0.0,0.0,0.0,0.0,0.0,0.0,0.0,0.0,0.0594,0.2089,0.3196,0.3719,0.498,0.5455,0.4673,0.5602,0.6059,0.5676,0.0,0.0,0.0,0.0,0.0,0.0,0.0,0.0,0.0,0.0,0.0,0.0,0.0,0.0,0.0,0.0,0.0,0.0,0.0,0.0,0.0,0.0,0.0,0.0,0.0,0.0,0.0,0.0,0.0,0.0,0.0,0.0,0.0,0.0,0.0,0.0,0.0,0.0,0.0,0.0,0.0,0.0,0.0,0.0,0.0,0.0,0.0,0.0,0.0,0.0,0.0,0.0,0.0,0.0,0.0,0.0,0.0,0.0,0.0,0.0,0.262,0.0,0.0,0.0,0.0,0.0,0.0,0.0,0.0,0.0,0.0,0.0,0.0,0.0,0.0,0.0,0.0,0.0,0.0,0.0,0.0,0.0,0.0,0.0,0.0,0.0,0.0,0.0,0.0,0.0,0.0,0.0,0.0,0.0,0.0,0.0,0.0,0.0,0.0,0.0,0.0,0.0,0.2234,0.2878,0.3552,0.479,0.4947,0.5261,0.6042,0.6166,0.6335,0.6639,0.567,0.0,0.0,0.0,0.0,0.0,0.0,0.0,0.0,0.0,0.0,0.0,0.0,0.0,0.0,0.0,0.0,0.0,0.0,0.0,0.0,0.0,0.0,0.0,0.0,0.0,0.0,0.0,0.0,0.0,0.0,0.0,0.0,0.0,0.0,0.0,0.0,0.0,0.0,0.0,0.0,0.0,0.0,0.0,0.0,0.0,0.0,0.0,0.0,0.0,0.0,0.0,0.0,0.0,0.0,0.0,0.0,0.0,0.0,0.0,0.0,0.147,0.0,0.0,0.0,0.0,0.0,0.0,0.0,0.0,0.0,0.0,0.0,0.0,0.0,0.0,0.0,0.0,0.0,0.0,0.0,0.0,0.0,0.0,0.0,0.0,0.0,0.0,0.0,0.0,0.0,0.0,0.0,0.0,0.0,0.0,0.0,0.0,0.0,0.0,0.0,0.0,0.2688,0.3017,0.3591,0.4876,0.5501,0.5922,0.6135,0.6291,0.6493,0.6794,0.6005,0.0,0.0,0.0,0.0,0.0,0.0,0.0,0.0,0.0,0.0,0.0,0.0,0.0,0.0,0.0,0.0,0.0,0.0,0.0,0.0,0.0,0.0,0.0,0.0,0.0,0.0,0.0,0.0,0.0,0.0,0.0,0.0,0.0,0.0,0.0,0.0,0.0,0.0,0.0,0.0,0.0,0.0,0.0,0.0,0.0,0.0,0.0,0.0,0.0,0.0,0.0,0.0,0.0,-0.1181,0.0,0.0,0.0,0.0,0.0,0.0,0.0587,0.1544,0.2221,0.0,0.0,0.0,0.0,0.0,0.0,0.0,0.0,0.0,0.0,0.0,0.0,0.0,0.0,0.0,0.0,0.0,0.0,0.0,0.0,0.0,0.0,0.0,0.0,0.4321,0.4253,0.4435,0.0,0.0,0.0,0.0,0.0,0.0,0.0,0.0,0.0,0.0,0.0,0.2574,0.2906,0.3445,0.4578,0.6061,0.6698,0.5966,0.6341,0.6613,0.666,0.6255,0.6138,0.0,0.0,0.0,0.0,0.0,0.0,0.0,0.0,0.0,0.0,0.0,0.0,0.0,0.0,0.0,0.0,0.0,0.0,0.0,0.0,0.0,0.0,0.0,0.0,0.0,0.0,0.0,0.0,0.0,0.0,0.0,0.0,-0.4453,-0.441,0.0,0.0,0.0,0.0,0.0,0.0,0.0,0.0,0.0,0.0,0.0,0.0,0.0,-0.0291,-0.0291,-0.0478,-0.0608,-0.0614,-0.0179,0.0,0.0,0.0,0.0,0.0,0.0,0.0,0.0441,0.2808,0.0,0.0,0.0,0.0,0.0,0.0,0.0,0.0,0.0,0.0,0.0,0.0,0.0,0.0,0.0,0.0,0.0,0.0,0.0,0.0,0.0,0.0,0.3912,0.4056,0.4113,0.4197,0.0,0.4386,0.4407,0.3968,0.3929,0.0,0.0,0.0,0.0,0.0,0.0,0.0,0.2487,0.2712,0.3258,0.4574,0.6069,0.6976,0.6826,0.6693,0.67,0.6947,0.6448,0.6534,0.7286,0.6524,0.0,0.0,0.0,0.0,0.0,0.0,0.0,0.0,0.0,0.0,0.0,0.0,0.0,0.0,0.0,0.0,0.0,0.0,0.0,0.0,0.0,0.0,0.0,0.0,0.0,0.0,0.0,0.0,0.0,-0.4129,-0.3996,-0.3981,-0.3142,-0.185,0.0,0.0,0.0,0.0,0.0,0.0,0.0,0.0,0.0,-0.1964,-0.0707,0.0,0.0,0.0,0.0,0.0,0.0,0.0,0.0,0.0,0.0,0.0,0.0,0.0,0.0062,0.1273,0.2751,0.4265,0.0,0.0,0.0,0.0,0.4477,0.4497,0.4497,0.4511,0.4535,0.4575,0.0,0.0,0.0,0.0,0.0,0.0,0.0,0.4477,0.0,0.0,0.4358,0.4284,0.4321,0.4368,0.4368,0.4421,0.4446,0.0,0.4104,0.3981,0.3996,0.0,0.0,0.0,0.0,0.0789,0.2929,0.389,0.493,0.6359,0.7019,0.7268,0.7012,0.6907,0.6887,0.6972,0.6787,0.6814,0.7201,0.7103,0.7235,0.0,0.0,0.0,0.0,0.0,0.0,0.0,0.0,0.0,0.0,0.0,0.0,0.0,0.0,0.0,0.0,0.0,0.0,0.0,0.0,0.0,0.0,0.0,0.0,0.0,0.0,0.0,0.0,-0.3099,-0.2914,-0.35,-0.3474,-0.2459,0.0,0.0,0.0,0.0,0.0,0.0,0.0,0.0,0.0,0.0,0.0,0.0,0.0,0.0,0.0,0.0,0.0,0.0,0.0,0.0,0.0,0.0071,0.0909,0.1247,0.1231,0.0372,0.1171,0.304,0.367,0.4188,0.4596,0.4585,0.4653,0.4748,0.4748,0.4823,0.4908,0.4826,0.4802,0.4769,0.4589,0.0,0.0,0.0,0.0,0.4604,0.4582,0.4585,0.4579,0.4579,0.4548,0.4577,0.4577,0.4518,0.4435,0.0,0.3983,0.3809,0.3854,0.0,0.0,0.0,0.0,0.157,0.3389,0.4637,0.6101,0.7955,0.7875,0.755,0.7174,0.7134,0.7101,0.7027,0.6979,0.6979,0.6979,0.7535,0.7849,0.7882,0.0,0.0,0.0,0.0,0.0,0.0,0.0,0.0,0.0,0.0,0.0,0.0,0.0,0.0,0.0,0.0,0.0,0.0,0.0,0.0,0.0,0.0,0.0,0.0,0.0,0.0,0.0,0.0,0.0,-0.3348,-0.1629,0.0,0.0,0.0,0.0,0.0,0.0,0.0,0.0,0.0,0.0,0.0,0.0,0.0,0.0,0.0,0.0,0.0,0.0,0.0,0.0,0.0,0.0,0.0146,0.3358,0.4776,0.4493,0.1291,0.0061,0.0367,0.1773,0.3306,0.4789,0.4789,0.4847,0.4908,0.4908,0.4911,0.4942,0.5067,0.5108,0.5053,0.4765,0.4629,0.0,0.0,0.4687,0.4786,0.4863,0.4897,0.4897,0.4897,0.4785,0.4677,0.4677,0.4615,0.447,0.0,0.4459,0.4459,0.4467,0.0,0.4053,0.3497,0.3417,0.3454,0.3578,0.4138,0.5649,0.8434,0.8252,0.7759,0.7488,0.7486,0.7321,0.7041,0.6979,0.6979,0.6979,0.7321,0.7629,0.7875,0.7529,0.0,0.0,0.0,0.0,0.0,0.0,0.0,0.0,0.0,0.0,0.0,0.0,0.0,0.0,0.0,0.0,0.0,0.0,0.0,0.0,0.0,0.0,0.0,0.0,0.0,0.0,0.0,0.0,-0.1182,-0.0513,0.0,0.0,0.0,0.0,0.0,0.0,0.0,0.0,0.0,0.0,0.0,0.0,0.0,0.0,0.0,0.0,0.0,0.0,0.0,0.0,0.0,0.1323,0.3684,0.4602,0.5036,0.4885,0.3697,0.2493,0.1491,0.2995,0.4,0.4571,0.4784,0.4931,0.5084,0.5249,0.5346,0.5264,0.5124,0.4951,0.4908,0.4837,0.478,0.478,0.4836,0.484,0.4857,0.4908,0.4918,0.4918,0.4918,0.4877,0.484,0.484,0.4656,0.4478,0.4485,0.4522,0.4488,0.4494,0.4488,0.4282,0.37,0.3583,0.3615,0.3621,0.5731,0.7641,0.8713,0.8627,0.8266,0.7802,0.7769,0.7715,0.757,0.7563,0.7563,0.7563,0.7889,0.8103,0.8216,0.8242,0.8273,0.0,0.0,0.0,0.0,0.0,0.0,0.0,0.0,0.0,0.0,0.0,0.0,0.0,0.0,0.0,0.0,0.0,0.0,0.0,0.0,0.0,0.0,0.0,0.0,0.0,0.0,0.0,0.0,0.0,0.0,0.0,0.0,0.0,0.0,0.0,0.0,0.0,0.0,0.0,0.0,0.0,0.0,0.0,0.0,0.0,0.0,0.0,0.0,0.0082,0.1296,0.3331,0.5697,0.5354,0.5162,0.5132,0.5047,0.4252,0.3172,0.4146,0.4579,0.4652,0.4869,0.5023,0.5176,0.5414,0.5441,0.5343,0.5155,0.5004,0.4872,0.4861,0.4846,0.4807,0.4869,0.4872,0.4954,0.5121,0.5396,0.5661,0.5713,0.5888,0.5926,0.5623,0.5325,0.499,0.4644,0.4542,0.4519,0.4519,0.4509,0.4358,0.398,0.391,0.3902,0.3901,0.6762,0.8796,0.8824,0.8783,0.8625,0.8103,0.8076,0.8036,0.7888,0.7882,0.7882,0.7882,0.8216,0.8427,0.8427,0.8657,0.8699,0.8421,0.0,0.0,0.0,0.0,0.0,0.0,0.0,0.0,0.0,0.0,0.0,0.0,0.0,0.0,0.0,0.0,0.0,0.0,0.0,0.0,0.0,0.0,0.0,-0.4493,-0.1949,-0.0073,-0.0,0.0,0.0,0.0,0.0,0.0,0.0,0.0,0.0,0.0,0.0,0.0,0.0,0.0,0.0,0.0,0.0,0.0086,0.0169,0.0086,0.0,0.0253,0.3966,0.567,0.5672,0.5563,0.5471,0.5455,0.5129,0.5029,0.5004,0.477,0.4887,0.5096,0.5098,0.5171,0.524,0.524,0.524,0.5168,0.5234,0.5077,0.4954,0.4882,0.4748,0.4644,0.4842,0.4906,0.5036,0.5453,0.6344,0.7134,0.724,0.7744,0.7972,0.7068,0.6572,0.5944,0.4989,0.4626,0.4529,0.4525,0.4516,0.4474,0.4474,0.4499,0.0,0.451,0.703,0.8806,0.8804,0.8824,0.8704,0.8424,0.8397,0.8277,0.7928,0.7908,0.7908,0.7908,0.8237,0.839,0.839,0.8664,0.8427,0.7723,0.0,0.0,0.0,0.0,0.0,0.0,0.0,0.0,0.0,0.0,0.0,0.0,0.0,0.0,0.0,0.0,0.0,0.0,0.0,0.0,0.0,0.0,-0.4516,-0.4523,-0.3781,-0.2417,-0.0254,0.0,0.0,0.0,0.0,0.0,0.0,0.0,0.0,0.0,0.0,0.0,0.0,0.0,0.0,0.0,0.0,0.143,0.4062,0.1302,0.078,0.215,0.4589,0.5709,0.5692,0.5594,0.5515,0.5494,0.5336,0.5273,0.5233,0.4822,0.4731,0.4809,0.5043,0.5289,0.5448,0.5293,0.5293,0.5275,0.5179,0.5126,0.5073,0.5086,0.509,0.5063,0.5132,0.5205,0.5364,0.5516,0.6373,0.7219,0.727,0.7966,0.8363,0.7402,0.6901,0.6446,0.5431,0.4996,0.4755,0.4528,0.4504,0.4515,0.4515,0.4509,0.0,0.4474,0.703,0.8958,0.9412,0.9309,0.9153,0.9011,0.9005,0.8878,0.8584,0.8564,0.8564,0.8564,0.8644,0.8691,0.8691,0.8764,0.8427,0.0,0.0,0.0,0.0,0.0,0.0,0.0,0.0,0.0,0.0,0.0,0.0,0.0,0.0,0.0,0.0,0.0,0.0,0.0,0.0,0.0,0.0,-0.1451,-0.3088,-0.4314,-0.3373,-0.1974,-0.0183,0.0,0.0,0.0,0.0,0.0,0.0,0.0,0.0,0.0,0.0,0.0,0.0,0.1543,0.2453,0.2717,0.1835,0.2374,0.4469,0.3035,0.2575,0.2989,0.4877,0.5675,0.5725,0.5651,0.5567,0.5619,0.5494,0.5529,0.0,0.0,0.0,0.0,0.0,0.5529,0.5639,0.5422,0.5357,0.5308,0.5235,0.5143,0.5045,0.5121,0.5026,0.5012,0.5084,0.5444,0.5957,0.6161,0.7398,0.8571,0.8727,0.9466,0.9749,0.8327,0.7794,0.7166,0.5675,0.5223,0.0,0.4934,0.4679,0.4519,0.4525,0.4505,0.4945,0.6138,0.7747,0.8908,0.9309,0.9241,0.9126,0.9058,0.9004,0.0,0.0,0.0,0.8804,0.8804,0.8804,0.0,0.0,0.0,0.8593,0.8156,0.8156,0.0,0.0,0.6912,0.6588,0.0,0.0,0.0,0.0,0.0,0.0,0.0,0.0,0.0,0.0,0.0,0.0,0.0,0.0,0.0,0.0,0.0,-0.0949,-0.3619,-0.1699,0.0,0.0,0.0,0.0,0.0,0.0,0.0,0.0,0.0,0.0186,0.065,0.0,0.0,0.0,0.0,0.5743,0.632,0.4504,0.3433,0.3331,0.4919,0.4869,0.3236,0.4952,0.567,0.5657,0.5649,0.5733,0.5725,0.5616,0.5742,0.5984,0.5846,0.5707,0.5776,0.59,0.5852,0.5693,0.5575,0.0,0.0,0.5368,0.5227,0.5053,0.504,0.4893,0.4803,0.4941,0.5666,0.6645,0.7162,0.8822,1.0419,1.0777,1.1382,1.1475,0.965,0.8965,0.8023,0.5878,0.5489,0.5428,0.5504,0.4974,0.4598,0.4527,0.4575,0.5645,0.8624,0.8902,0.8792,0.8817,0.0,0.0,0.8858,0.8858,0.8844,0.8811,0.8804,0.8804,0.8804,0.8804,0.8804,0.8804,0.8804,0.8804,0.8804,0.8804,0.8804,0.8752,0.7456,0.6858,0.0,0.0,0.0,0.0,0.0,0.0,0.0,0.0,0.0,0.0,0.0,0.0,0.0,0.0,0.0,-0.0567,0.0,-0.0181,-0.0767,-0.0385,0.0,0.0,0.0,0.0,0.0,0.0,0.0,0.0,0.0,0.1516,0.4942,0.5151,0.4389,0.2663,0.3273,0.4438,0.6116,0.5896,0.5686,0.5588,0.0,0.0,0.5052,0.5428,0.5468,0.5466,0.5463,0.5641,0.5994,0.5968,0.6225,0.6552,0.6217,0.6037,0.6034,0.609,0.6013,0.5951,0.5761,0.5687,0.5624,0.5455,0.5339,0.5284,0.5184,0.5189,0.0,0.519,0.6105,0.7243,0.7584,0.9228,1.0829,1.1106,1.1677,1.1918,1.0713,0.971,0.8447,0.6526,0.5913,0.5823,0.6086,0.5617,0.5082,0.4555,0.4893,0.642,0.982,0.9422,0.882,0.8795,0.8987,0.9103,0.9103,0.9103,0.9058,0.8824,0.8804,0.8804,0.8804,0.8804,0.8804,0.8804,0.8804,0.8804,0.8804,0.8804,0.8804,0.8804,0.848,0.8374,0.0,0.0,0.0,0.0,0.0,0.0,0.0,0.0,0.0,0.0,0.0,0.0,0.0,0.0,-0.3185,-0.3192,-0.1364,0.0,0.0,0.0,0.0,0.0,0.0,0.0,0.0,0.0,0.0,0.0,0.1946,0.4168,0.6316,0.6371,0.5904,0.4808,0.4706,0.5198,0.6287,0.6285,0.6346,0.628,0.6189,0.6124,0.5813,0.5631,0.5601,0.5542,0.5726,0.5907,0.6084,0.6388,0.6681,0.6779,0.6634,0.6576,0.657,0.6502,0.6436,0.6401,0.6078,0.5928,0.5898,0.5637,0.551,0.5447,0.5388,0.5368,0.5358,0.5295,0.663,0.8082,0.847,1.0015,1.1629,1.2076,1.2356,1.2293,1.1223,1.0133,0.8788,0.6701,0.6129,0.6084,0.6309,0.6026,0.5648,0.5019,0.5185,0.6666,1.0154,1.0071,0.9615,0.9285,0.923,0.9183,0.9183,0.905,0.8965,0.8818,0.8804,0.8804,0.8804,0.8804,0.8804,0.8804,0.8804,0.8804,0.8804,0.8804,0.8804,0.8804,0.8804,0.8804,0.0,0.0,0.0,0.0,0.0,0.0,0.0,0.0,-0.317,-0.158,-0.0569,0.0,0.0,0.0,-0.1137,-0.4548,-0.2196,0.0,0.0,0.0,0.0,0.0,0.0,0.0,0.0,0.0,0.0,0.0,0.3954,0.6446,0.6443,0.6429,0.6372,0.6369,0.6267,0.6262,0.6358,0.6257,0.6203,0.6203,0.6203,0.6042,0.5929,0.5648,0.5636,0.5711,0.6062,0.6225,0.629,0.6832,0.6988,0.6881,0.7054,0.7139,0.7126,0.701,0.687,0.6776,0.6402,0.6259,0.6083,0.5819,0.5665,0.5494,0.5472,0.5499,0.5434,0.5412,0.6916,0.8595,0.9238,1.0632,1.2205,1.2995,1.306,1.2601,1.1744,1.0796,0.9463,0.7316,0.6539,0.6295,0.6336,0.6284,0.6148,0.5677,0.5457,0.6711,1.045,1.0857,1.0526,0.9946,0.9586,0.9329,0.9276,0.9112,0.8951,0.8891,0.8891,0.8864,0.8811,0.8804,0.8804,0.8804,0.8804,0.8804,0.8804,0.8804,0.8804,0.8804,0.8804,0.8804,0.0117,-0.094,-0.2647,-0.5373,-0.5463,-0.4947,0.0,0.0,-0.3986,-0.5302,-0.2638,0.0,0.0,0.0,-0.019,-0.0581,-0.0297,0.0,0.0,0.0,0.0,0.0,0.0,0.0,0.0,0.0,0.0,0.0,0.3932,0.6366,0.6358,0.6361,0.6358,0.6442,0.6132,0.6032,0.6044,0.5827,0.5717,0.5717,0.5717,0.5466,0.5174,0.5174,0.5319,0.579,0.6531,0.6869,0.6751,0.6996,0.7068,0.7051,0.7051,0.7139,0.7139,0.7122,0.7037,0.7051,0.6776,0.6599,0.6343,0.6083,0.5899,0.5692,0.5497,0.5616,0.567,0.5561,0.6637,0.8123,0.9234,1.0616,1.1964,1.3003,1.3213,1.3153,1.2995,1.2184,1.0947,0.9271,0.7546,0.6332,0.6283,0.6314,0.6304,0.6208,0.5765,0.6999,1.15,1.1632,1.1081,1.0564,1.0194,0.9913,0.9659,0.9606,0.9472,0.915,0.9137,0.9024,0.8818,0.8804,0.8804,0.8804,0.8804,0.8804,0.8804,0.8804,0.8804,0.8804,0.8804,0.8804,0.0,-0.2266,0.0,0.0,-0.5917,-0.5748,-0.5582,-0.5367,-0.5474,-0.6544,-0.5075,-0.2955,-0.0457,0.0,0.0,0.0,0.0,0.0,0.0,0.0,0.0,0.0,0.0,0.0,0.0,0.0,0.0,0.0,0.2826,0.4949,0.5864,0.6057,0.6047,0.5937,0.5837,0.5739,0.5739,0.5636,0.5636,0.5636,0.5636,0.5513,0.5374,0.5575,0.5942,0.6569,0.6756,0.7006,0.7312,0.7312,0.7221,0.7149,0.7241,0.7275,0.7265,0.7173,0.7197,0.7275,0.7008,0.6828,0.6734,0.6554,0.6286,0.6009,0.5955,0.5935,0.5928,0.5877,0.6744,0.7882,0.8678,1.0105,1.1572,1.2481,1.308,1.346,1.346,1.2131,1.1029,1.1456,0.8823,0.6585,0.6698,0.6798,0.7438,0.9483,0.755,0.75,1.174,1.2107,1.1591,1.0692,1.0478,1.0254,0.9894,0.9852,0.9762,0.9506,0.9499,0.9446,0.9325,0.9319,0.9239,0.9065,0.9058,0.8978,0.8804,0.8804,0.8804,0.8804,0.8804,0.8804,0.0,0.0,0.0,-0.5696,-0.6034,-0.6115,-0.5918,-0.5658,-0.5776,-0.6901,-0.6817,-0.5179,-0.0766,0.0,0.0,0.0,0.0,0.0,0.0,0.0,0.0,0.0,0.0,0.0,0.0,0.0,0.0,0.0,0.1809,0.3729,0.5457,0.5746,0.5839,0.5636,0.5536,0.5536,0.5536,0.5436,0.5336,0.5336,0.5336,0.5336,0.5436,0.5839,0.6423,0.6976,0.7075,0.7256,0.7587,0.7434,0.7329,0.7275,0.7346,0.7397,0.7421,0.7309,0.7339,0.7434,0.7254,0.7161,0.7066,0.6879,0.6697,0.642,0.642,0.6392,0.6178,0.6178,0.6758,0.7502,0.8143,0.973,1.1343,1.206,1.3081,1.3861,1.3781,1.223,1.1188,1.2035,0.9795,0.7609,0.714,0.7066,0.7967,1.0485,0.8378,0.7946,1.1775,1.2291,1.1943,1.1027,1.0896,1.0708,1.0425,1.0362,1.0235,0.9999,0.9927,0.9853,0.9693,0.9686,0.9586,0.9365,0.9223,0.9084,0.8925,0.8844,0.8804,0.8811,0.8891,0.8884,0.0,0.0,-0.114,-0.5248,-0.6025,-0.6069,-0.6828,-0.5057,-0.3907,-0.6537,-0.7087,-0.558,-0.088,0.0,0.0,0.0,0.0,0.0,0.0,0.0,0.0,0.0,0.0,0.0,0.0,0.0,0.0,0.0,0.1496,0.3325,0.5457,0.5644,0.5636,0.5636,0.5338,0.524,0.524,0.4937,0.4834,0.4834,0.4834,0.4834,0.4834,0.5934,0.6377,0.6271,0.7324,0.7726,0.7587,0.7434,0.7455,0.757,0.7428,0.7461,0.7594,0.7587,0.759,0.7594,0.7594,0.7399,0.7205,0.7205,0.7023,0.6838,0.6838,0.6741,0.6458,0.6458,0.6452,0.6729,0.7937,0.9587,1.1086,1.1965,1.3336,1.4416,1.4135,1.3105,1.1696,0.9933,1.0106,0.9791,0.7504,0.7075,0.7147,0.7246,0.7195,0.8317,1.1823,1.2331,1.2175,1.1915,1.1577,1.1396,1.1383,1.1376,1.1136,1.0631,1.0598,1.0342,0.9706,0.9686,0.9679,0.9666,0.9385,0.9183,0.917,0.8945,0.8804,0.8811,0.9044,0.9024,0.0,0.0,-0.0314,-0.1739,-0.3066,-0.4516,-0.6614,-0.6731,-0.5598,-0.2946,-0.2391,-0.1866,-0.0278,0.0,0.0,0.0,0.0,0.0,0.0,0.0,0.0,0.0,0.0,0.0,0.0,0.0,0.0,0.0,0.0493,0.2089,0.4951,0.5352,0.5345,0.5035,0.4935,0.4937,0.4937,0.4834,0.4834,0.4834,0.4834,0.5005,0.5241,0.593,0.6496,0.684,0.7423,0.7695,0.7723,0.7475,0.74,0.7455,0.7502,0.7553,0.7624,0.7821,0.7892,0.7879,0.7777,0.7644,0.764,0.764,0.7452,0.7263,0.7263,0.713,0.6908,0.6712,0.6651,0.6681,0.7257,0.84,0.9776,1.1273,1.262,1.364,1.4256,1.3479,1.218,1.0529,0.9209,0.799,0.7259,0.7454,0.8615,1.1357,1.1761,1.1903,1.228,1.2318,1.2253,1.2208,1.2098,1.2009,1.1975,1.2013,1.1737,1.1149,1.0955,1.0755,1.0561,1.0367,1.0174,0.9973,0.9873,0.9726,0.9532,0.9432,0.9285,0.9044,0.9137,0.903,0.0,0.0,0.0,0.0,-0.1027,-0.2435,-0.4159,-0.4889,-0.4178,-0.0683,0.0,0.0,0.0,0.0,0.0,0.0,0.0,0.0,0.0,0.0,0.0,0.0,0.0,0.0,0.0,0.0,0.0,0.0,0.0,0.1194,0.4038,0.4847,0.5146,0.4937,0.4834,0.4834,0.4834,0.4834,0.4834,0.4834,0.4804,0.4959,0.5196,0.5876,0.6432,0.6771,0.7406,0.7699,0.7716,0.7472,0.7404,0.7461,0.756,0.7631,0.7699,0.7889,0.796,0.795,0.7909,0.7892,0.7892,0.7892,0.7794,0.7602,0.7602,0.747,0.7341,0.7144,0.6982,0.6917,0.7116,0.8101,0.923,1.0389,1.195,1.3265,1.3831,1.3401,1.2632,1.1673,0.9089,0.7168,0.726,0.7719,0.9414,1.3493,1.407,1.3791,1.3033,1.2922,1.287,1.266,1.2461,1.2297,1.2278,1.2315,1.2095,1.1597,1.1309,1.1102,1.0995,1.0715,1.0474,1.0281,1.0174,1.0027,0.984,0.9733,0.9532,0.919,0.9396,0.9285,0.0,0.0,0.0,0.0,0.0,0.0,0.0,0.0,0.0,0.0,0.0181,0.0258,0.0,0.0,0.0,0.0,0.0,0.0,0.0,0.0,0.0,0.0,0.0,0.0,0.0,0.0,0.0,0.0,0.0,0.0906,0.3123,0.4236,0.4945,0.524,0.4937,0.4834,0.4834,0.4834,0.4834,0.4832,0.4753,0.471,0.4702,0.5771,0.6189,0.6178,0.7257,0.7723,0.7587,0.7434,0.7458,0.7587,0.7587,0.7675,0.7801,0.7807,0.7811,0.7831,0.7987,0.8035,0.8028,0.8038,0.8038,0.8038,0.8038,0.7842,0.7646,0.7646,0.7441,0.7238,0.7543,0.852,0.9547,0.9485,1.1432,1.3159,1.3088,1.3132,1.3229,1.3314,1.0145,0.7656,0.8008,0.8269,0.9754,1.3609,1.4125,1.4137,1.4118,1.4079,1.3884,1.3326,1.2706,1.2343,1.2311,1.2315,1.2198,1.1911,1.1617,1.1323,1.1049,1.0742,1.0645,1.0645,1.0287,1.014,1.014,0.9866,0.9573,0.9243,0.986,0.9659,0.0,0.0,0.0,0.0,0.0,0.0,0.0,0.0,0.0,0.0,0.2171,0.3202,0.0,0.0,0.0,0.0,0.0,0.0,0.0,0.0,0.0,0.0,0.0,0.0,0.0,0.0,0.0,0.0,0.0,0.0894,0.312,0.4947,0.5859,0.5536,0.5238,0.514,0.514,0.4937,0.4834,0.4834,0.4616,0.454,0.461,0.5158,0.5573,0.5956,0.6738,0.7348,0.7587,0.7434,0.7394,0.7431,0.7431,0.7519,0.7665,0.7773,0.7811,0.7831,0.7987,0.7963,0.7889,0.8004,0.8038,0.8038,0.8038,0.7939,0.7842,0.7646,0.7547,0.7444,0.7341,0.7736,0.8319,0.9343,1.0206,1.1313,1.2978,1.3298,1.3644,1.4566,1.4069,1.3632,1.3698,1.3803,1.4167,1.5167,1.465,1.4138,1.4139,1.4095,1.4056,1.3926,1.3743,1.3319,1.235,1.2322,1.2254,1.2204,1.1917,1.1724,1.165,1.1156,1.0882,1.0882,1.0595,1.0448,1.0448,1.0374,1.018,0.99,1.0047,0.988,0.0,0.0,0.0,0.0,0.0,0.0,0.0,0.0,0.0449,0.2026,0.4016,0.0,0.0,0.0,0.0,0.0,0.0,0.0,0.0,0.0,0.0,0.0,0.0,0.0,0.0,0.0,0.0,0.0,0.0,0.0898,0.3122,0.5251,0.6163,0.5636,0.5338,0.5039,0.4839,0.4736,0.4535,0.4433,0.4299,0.4235,0.4342,0.4776,0.5295,0.589,0.0,0.6995,0.7489,0.7333,0.7272,0.7278,0.7346,0.7465,0.7607,0.7689,0.7756,0.7824,0.7909,0.7882,0.7834,0.7991,0.8038,0.8038,0.8038,0.8038,0.7942,0.7842,0.7743,0.7743,0.764,0.764,0.7939,0.8715,0.9505,1.0356,1.1586,1.2802,1.4014,1.5179,1.5631,1.5838,1.5807,1.575,1.5759,1.5831,1.5297,1.488,1.4824,1.4448,1.407,1.4061,1.4097,1.379,1.3166,1.2628,1.2329,1.2505,1.2104,1.187,1.187,1.1303,1.0995,1.0995,1.0708,1.0624,1.0624,1.0624,1.0408,1.012,1.0247,1.0087,0.0,0.01,0.0203,0.0,0.0,0.0,0.0,0.0362,0.1646,0.4772,0.0,0.539,0.5312,0.279,0.0576,0.0078,0.0,0.0,0.0,0.0,0.0,0.0,0.0,0.0,0.0,0.0,0.0,0.0,0.0308,0.1219,0.3135,0.517,0.6078,0.5536,0.5238,0.4939,0.4438,0.4338,0.4236,0.4033,0.3867,0.3831,0.392,0.4309,0.4938,0.57,0.6172,0.6674,0.7299,0.7165,0.7111,0.7032,0.735,0.7495,0.7628,0.7628,0.7706,0.7814,0.7834,0.7828,0.7834,0.7991,0.8038,0.8038,0.8038,0.8038,0.8038,0.8038,0.8038,0.8038,0.7939,0.7942,0.8038,0.7939,0.8821,0.9801,0.9998,1.2032,1.4268,1.554,1.5832,1.5832,1.5832,1.5832,1.5846,1.5803,1.5776,1.5773,1.5777,1.4825,1.413,1.4077,1.4074,1.407,1.4117,1.316,1.2569,1.2739,1.2258,1.1964,1.1924,1.1403,1.1109,1.1109,1.0782,1.0678,1.0678,1.0645,1.0428,1.018,1.0441,1.0349,0.0,0.073,0.1264,0.0208,0.0,0.0,0.0,0.2334,0.0,0.0,0.5403,0.5286,0.5016,0.4717,0.3485,0.0478,0.0,0.0,0.0,0.0,0.0,0.0,0.0,0.0,0.0,0.0,0.0,0.0,0.1695,0.2835,0.3198,0.4854,0.5644,0.5242,0.5037,0.4736,0.4438,0.4135,0.4033,0.4033,0.3721,0.3785,0.3919,0.3726,0.446,0.57,0.5795,0.0,0.6611,0.7246,0.714,0.6578,0.7266,0.7648,0.7773,0.7773,0.779,0.7828,0.7957,0.7916,0.7834,0.7991,0.8038,0.8038,0.8038,0.8038,0.8038,0.8038,0.8038,0.7939,0.7746,0.7842,0.7939,0.7743,0.8041,0.8627,0.9805,1.2032,1.4268,1.554,1.5832,1.5832,1.5832,1.5832,1.5812,1.5765,1.5758,1.5765,1.578,1.4761,1.4109,1.4069,1.409,1.4102,1.4131,1.3919,1.3373,1.2426,1.2303,1.2227,1.2238,1.1904,1.1717,1.1717,1.1189,1.0915,1.0915,1.0739,1.0598,1.0488,1.0598,1.0571,0.0725,0.0947,0.085,0.0939,0.2135,0.3213,0.2845,0.0,0.0,0.0,0.5289,0.5195,0.514,0.0,0.0,0.0,0.0,0.0,0.0,0.0,0.0,0.0,0.0,0.0,0.0,0.0,0.0,0.0,0.1515,0.3101,0.4368,0.5449,0.5701,0.5039,0.5037,0.4638,0.4038,0.3835,0.3734,0.3632,0.3432,0.3416,0.3483,0.3386,0.4157,0.5676,0.5617,0.617,0.7124,0.7439,0.7409,0.7026,0.7409,0.7685,0.7811,0.7811,0.7862,0.794,0.8014,0.7991,0.7943,0.8014,0.8038,0.8038,0.8038,0.8038,0.8038,0.8038,0.8038,0.7942,0.7842,0.7942,0.7942,0.7842,0.7942,0.8425,0.9964,1.1317,1.2871,1.5337,1.5832,1.5832,1.5832,1.5832,1.5832,1.5832,1.5832,1.5785,1.5846,1.5349,1.4761,1.4161,1.4104,1.4097,1.4088,1.4111,1.3885,1.3233,1.2654,1.2418,1.2538,1.2104,1.187,1.187,1.1436,1.1142,1.0995,1.0855,1.0708,1.0624,1.0624,1.0624,0.1148,0.0955,0.0536,0.1261,0.365,0.5764,0.5462,0.4132,0.0,0.0,0.5254,0.5179,0.5291,0.0,0.0,0.0,0.0,0.0,0.0,0.0,0.0,0.0,0.0,0.0,0.0,0.0,0.0,0.0326,0.2062,0.386,0.5341,0.6129,0.6044,0.5135,0.5338,0.4839,0.3836,0.3835,0.3533,0.323,0.323,0.333,0.343,0.343,0.4332,0.5829,0.5741,0.639,0.7557,0.7644,0.7597,0.7406,0.7597,0.776,0.7862,0.7862,0.7936,0.8038,0.8038,0.8038,0.8038,0.8038,0.8038,0.8038,0.8038,0.8038,0.8038,0.8038,0.8038,0.8038,0.8038,0.8038,0.8038,0.8038,0.8237,0.881,1.0325,1.0895,1.2073,1.5235,1.5832,1.5832,1.5832,1.5832,1.5832,1.5832,1.5832,1.5832,1.5832,1.5839,1.5494,1.4566,1.4206,1.413,1.4103,1.4102,1.409,1.4117,1.32,1.2738,1.2929,1.2419,1.2058,1.2058,1.1703,1.1376,1.1089,1.1022,1.0842,1.0624,1.0624,1.0624,0.0106,0.0872,0.1441,0.0429,0.2249,0.4409,0.5198,0.0,0.0,0.5376,0.5247,0.5135,0.5148,0.0,0.0,0.0,0.0,0.0,0.0,0.0,0.0,0.0,0.0,0.0,0.0,0.0,0.0,0.1499,0.5275,0.673,0.5094,0.6057,0.6642,0.6237,0.6039,0.5539,0.4734,0.4431,0.393,0.323,0.323,0.363,0.4329,0.4329,0.5129,0.6728,0.6716,0.6714,0.0,0.7704,0.7499,0.6994,0.7697,0.8007,0.8018,0.8018,0.8028,0.8038,0.8038,0.8038,0.8038,0.8038,0.8038,0.8038,0.8038,0.8038,0.8038,0.8038,0.8038,0.8038,0.8038,0.8038,0.8038,0.8038,0.8924,0.9985,1.052,1.1869,1.3538,1.5432,1.5832,1.5832,1.5832,1.5832,1.5832,1.5832,1.5832,1.5832,1.5832,1.5812,1.5772,1.5661,1.4734,1.4115,1.4095,1.4117,1.4122,1.4131,1.3974,1.381,1.345,1.2936,1.2741,1.2741,1.2111,1.1683,1.1383,1.1122,1.0842,1.0624,1.0624,1.0624,0.2417,0.1858,0.0779,0.0969,0.2112,0.3618,0.5245,0.0,0.0,0.5393,0.5243,0.5159,0.5254,0.0,0.0,0.0,0.0,0.0,0.0,0.0,0.0,0.0,0.0,0.0,0.0,0.0,0.1498,0.294,0.6208,0.7476,0.5964,0.6946,0.7054,0.6139,0.6337,0.6134,0.5336,0.5133,0.4933,0.4634,0.4634,0.4834,0.5133,0.5133,0.5732,0.683,0.683,0.7033,0.0,0.7839,0.7839,0.7537,0.7839,0.8038,0.8038,0.8038,0.8038,0.8038,0.8038,0.8038,0.8038,0.8038,0.8038,0.8038,0.8038,0.8038,0.8038,0.8038,0.8038,0.8038,0.8038,0.8038,0.8038,0.8038,0.9019,1.0391,1.1863,1.2281,1.3104,1.5324,1.5832,1.5832,1.5832,1.5832,1.5832,1.5832,1.5832,1.5832,1.5832,1.5832,1.5792,1.5779,1.5396,1.4874,1.4192,1.4122,1.4104,1.4083,1.4124,1.3967,1.3575,1.3084,1.2822,1.2822,1.2345,1.1984,1.169,1.1396,1.1102,1.0815,1.0705,1.0624,0.5148,0.3508,0.1424,0.2235,0.3138,0.4115,0.0,0.0,0.0,0.5418,0.524,0.5179,0.5332,0.0,0.0,0.0,0.0,0.0,0.0,0.0,0.0,0.0,0.0,0.0,0.0,0.0,0.3896,0.4988,0.6992,0.7723,0.6519,0.7428,0.7556,0.6642,0.6936,0.6734,0.5934,0.5934,0.5834,0.5636,0.5636,0.5734,0.5934,0.5934,0.6232,0.6731,0.7033,0.7335,0.0,0.7839,0.8038,0.8038,0.8038,0.8038,0.8038,0.8038,0.8038,0.8038,0.8038,0.8038,0.8038,0.8038,0.8038,0.8038,0.8038,0.8038,0.8038,0.8038,0.8038,0.8038,0.8038,0.8038,0.8038,0.8038,0.9019,1.0498,1.2391,1.2909,1.3628,1.5432,1.5832,1.5832,1.5832,1.5832,1.5832,1.5832,1.5832,1.5832,1.5832,1.5832,1.5832,1.5832,1.5759,1.551,1.4702,1.4619,1.4548,1.4447,1.4188,1.4005,1.3901,1.3327,1.2973,1.2886,1.2585,1.2245,1.187,1.1657,1.1403,1.1116,1.0909,1.0815,0.7993,0.5976,0.3909,0.3941,0.5128,0.6227,0.0,0.0,0.0,0.5328,0.524,0.5179,0.5332,0.5428,0.5428,0.5428,0.0,0.0,0.0,0.0,0.0,0.0,0.0,0.0,0.0,0.4782,0.7933,0.7933,0.7978,0.0,0.6508,0.7415,0.8038,0.7939,0.7939,0.7633,0.683,0.683,0.6431,0.5636,0.5636,0.6034,0.683,0.683,0.6631,0.6437,0.7537,0.7437,0.0,0.7537,0.8038,0.8038,0.8038,0.8038,0.8038,0.8038,0.8038,0.8038,0.8038,0.8038,0.8038,0.8038,0.8038,0.8038,0.8038,0.8038,0.8038,0.8038,0.8038,0.8038,0.8038,0.8038,0.8038,0.8038,0.9019,1.0391,1.1653,1.396,1.5761,1.5757,1.5832,1.5832,1.5832,1.5832,1.5832,1.5832,1.5832,1.5832,1.5832,1.5832,1.5832,1.5832,1.5825,1.5812,1.5735,1.5749,1.5576,1.5252,1.448,1.4222,1.4509,1.3948,1.35,1.3213,1.2899,1.2526,1.187,1.1864,1.171,1.1423,1.1416,1.1416,0.6857,0.6436,0.5541,0.5604,0.5383,0.5293,0.5312,0.0,0.0,0.0,0.5165,0.5179,0.5332,0.5428,0.5497,0.5783,0.5331,0.0,0.0,0.0,0.0,0.0,0.0,0.0,0.0,0.0,0.577,0.6825,0.7671,0.7975,0.7507,0.7961,0.815,0.8041,0.8038,0.7839,0.7637,0.7637,0.7537,0.7238,0.7238,0.7338,0.7637,0.7637,0.7537,0.7537,0.7839,0.7839,0.7537,0.7839,0.8038,0.8038,0.8038,0.8038,0.8038,0.8038,0.8038,0.8038,0.8038,0.8038,0.8038,0.8038,0.8038,0.8038,0.8038,0.8038,0.8038,0.8038,0.8038,0.8038,0.8038,0.8038,0.8038,0.8038,0.9019,1.0391,1.1653,1.396,1.5767,1.5757,1.5832,1.5832,1.5832,1.5832,1.5832,1.5832,1.5832,1.5832,1.5832,1.5832,1.5832,1.5832,1.5832,1.5798,1.5806,1.5841,1.567,1.5257,1.479,1.4522,1.4522,1.3955,1.3601,1.3507,1.3006,1.2728,1.254,1.2064,1.1717,1.1423,1.1423,1.1423,0.0,0.6325,0.6306,0.6294,0.5657,0.0,0.0,0.0,0.0,0.0,0.0,0.0,0.0,0.5321,0.5511,0.5765,0.6013,0.0,0.0,0.0,0.0,0.0,0.0,0.0,0.0,0.4872,0.595,0.6956,0.7727,0.814,0.8045,0.813,0.814,0.8041,0.8038,0.8038,0.8038,0.8038,0.8038,0.8038,0.8038,0.8038,0.8038,0.8038,0.7739,0.7437,0.7839,0.7739,0.0,0.7839,0.8038,0.8038,0.8038,0.8038,0.8038,0.8038,0.8075,0.8116,0.8058,0.8079,0.8116,0.8058,0.8038,0.8038,0.8038,0.8038,0.8038,0.8038,0.8038,0.8038,0.8038,0.8038,0.8038,0.8038,0.8674,0.9693,1.089,1.3138,1.4996,1.5632,1.5763,1.5832,1.5832,1.5832,1.5832,1.5832,1.5832,1.5832,1.5832,1.5832,1.5832,1.5832,1.5832,1.5832,1.5832,1.5772,1.5671,1.5451,1.511,1.4803,1.4696,1.4229,1.3868,1.3566,1.3166,1.2866,1.2822,1.2265,1.1937,1.1757,1.1757,1.1757,0.0,0.0,0.0,0.0,0.0,0.0,0.0,0.0,0.0,0.0,0.0,0.0,0.0,0.5254,0.541,0.5606,0.5987,0.0,0.0,0.0,0.0,0.0,0.0,0.0,0.4227,0.6551,0.8028,0.7982,0.7952,0.8038,0.8038,0.8038,0.8038,0.8038,0.8038,0.8038,0.8038,0.8038,0.8038,0.8038,0.8038,0.8038,0.8038,0.8038,0.7437,0.0,0.7537,0.7437,0.6637,0.7637,0.8038,0.8038,0.8038,0.8038,0.8038,0.8038,0.8136,0.8248,0.8092,0.814,0.8245,0.8089,0.8038,0.8038,0.8038,0.8038,0.8038,0.8038,0.8038,0.8038,0.8038,0.8038,0.8041,0.8055,0.8167,0.8635,0.976,1.1562,1.3573,1.5448,1.5817,1.5838,1.5832,1.5832,1.5832,1.5832,1.5832,1.5832,1.5832,1.5832,1.5832,1.5832,1.5832,1.5832,1.5832,1.5832,1.5832,1.5832,1.5451,1.5159,1.4977,1.4676,1.4255,1.3687,1.3394,1.308,1.2822,1.2492,1.2345,1.2305,1.2325,1.2318,0.4426,0.0,0.4944,0.4944,0.4838,0.4742,0.0,0.0,0.0,0.0,0.0,0.0,0.0,0.0,0.0,0.6003,0.6215,0.639,0.6729,0.0,0.0,0.0,0.0,0.7326,0.6879,0.7588,0.8024,0.7959,0.8041,0.8038,0.8038,0.8038,0.8038,0.8038,0.8038,0.8038,0.8038,0.8038,0.8038,0.8038,0.8038,0.8038,0.8038,0.8038,0.7839,0.764,0.7939,0.7839,0.7637,0.7939,0.8038,0.8038,0.8038,0.8038,0.8038,0.8038,0.8136,0.8248,0.8092,0.814,0.8245,0.8089,0.8038,0.8038,0.8038,0.8038,0.8038,0.8038,0.8038,0.8038,0.8038,0.8038,0.8069,0.8187,0.8245,0.8663,0.9911,1.0536,1.1834,1.5139,1.578,1.583,1.5838,1.5832,1.5832,1.5832,1.5832,1.5832,1.5832,1.5832,1.5832,1.5832,1.5832,1.5832,1.5832,1.5832,1.5832,1.5832,1.5551,1.5264,1.4977,1.4676,1.4349,1.3988,1.3694,1.328,1.2822,1.2913,1.2759,1.2305,1.2532,1.2518,0.4104,0.4484,0.4519,0.4525,0.4522,0.4519,0.0,0.0,0.0,0.0,0.0,0.0,0.0,0.0,0.0,0.0,0.6213,0.0,0.0,0.0,0.0,0.0,0.8267,0.818,0.0,0.8008,0.8039,0.8045,0.8038,0.8038,0.8038,0.8038,0.8038,0.8038,0.8038,0.8038,0.8038,0.8038,0.8038,0.8038,0.8038,0.8038,0.8038,0.8038,0.8038,0.8038,0.8038,0.8038,0.8038,0.8038,0.8038,0.8038,0.8038,0.8038,0.8038,0.8038,0.8136,0.8258,0.8174,0.8201,0.8255,0.8174,0.8147,0.8133,0.8062,0.8089,0.813,0.8058,0.8038,0.8038,0.8038,0.8038,0.8079,0.8235,0.8319,0.857,0.9274,0.9883,1.1056,1.3681,1.4419,1.4892,1.5642,1.5832,1.5832,1.5832,1.5832,1.5832,1.5832,1.5832,1.5832,1.5832,1.5832,1.5832,1.5832,1.5832,1.5832,1.5832,1.5678,1.5464,1.517,1.4883,1.4456,1.3895,1.3728,1.342,1.2959,1.3126,1.3039,1.2719,1.2739,1.2739,0.3999,0.4353,0.4182,0.4432,0.4525,0.4519,0.0,0.0,0.0,0.0,0.0,0.0,0.0,0.0,0.0,0.0,0.0,0.0,0.0,0.0,0.0,0.8309,0.8218,0.0,0.836,0.8174,0.8038,0.8038,0.8038,0.8038,0.8038,0.8038,0.8038,0.8038,0.8038,0.8038,0.8038,0.8038,0.8038,0.8038,0.8038,0.8038,0.8038,0.8038,0.8038,0.8038,0.8038,0.0,0.8038,0.8038,0.8038,0.8038,0.8038,0.8038,0.8038,0.8038,0.8136,0.8275,0.8296,0.8275,0.8238,0.8262,0.8255,0.8211,0.8079,0.8133,0.8214,0.8106,0.8075,0.8075,0.8075,0.8092,0.8147,0.8299,0.8428,0.8516,0.8516,0.9347,1.0534,1.1654,1.2506,1.3619,1.5473,1.5797,1.5838,1.5783,1.5757,1.5832,1.5832,1.5832,1.5832,1.5832,1.5832,1.5832,1.5832,1.5832,1.5832,1.5832,1.5832,1.5678,1.5344,1.505,1.4522,1.3728,1.3707,1.3567,1.3273,1.332,1.33,1.3206,1.2986,1.2999,0.3722,0.3569,0.2868,0.4198,0.4525,0.4519,0.0,0.0,0.0,0.0,0.0,0.0,0.0,0.0,0.0,0.0,0.0,0.0,0.0,0.0,0.8079,0.7929,0.0,0.8282,0.7946,0.7991,0.8038,0.8038,0.8038,0.8038,0.8038,0.8038,0.8038,0.8038,0.8038,0.8038,0.8038,0.8038,0.8038,0.8038,0.8038,0.8038,0.8038,0.8038,0.8038,0.8038,0.0,0.8038,0.8038,0.8038,0.8038,0.8038,0.8038,0.8038,0.8038,0.8038,0.8136,0.8289,0.8408,0.8286,0.8096,0.8228,0.818,0.8069,0.8045,0.8055,0.8099,0.8204,0.8235,0.8235,0.8235,0.8326,0.8452,0.8608,0.8659,0.8676,0.8676,0.8779,0.9261,1.0435,1.1447,1.2872,1.5382,1.5804,1.581,1.5829,1.578,1.5832,1.5832,1.5832,1.5832,1.5832,1.5832,1.5832,1.5832,1.5832,1.5832,1.5832,1.5832,1.5585,1.5057,1.4743,1.4409,1.4028,1.4021,1.3874,1.3581,1.3828,1.3694,1.3213,1.3414,1.34,0.1684,0.212,0.2566,0.4107,0.4611,0.0,0.0,0.0,0.0,0.0,0.0,0.0,0.0,0.0,0.0,0.0,0.0,0.0,0.7648,0.775,0.7821,0.0,0.0,0.8102,0.8065,0.8048,0.8038,0.8038,0.8038,0.8038,0.8038,0.8038,0.8038,0.8038,0.8038,0.8038,0.8038,0.8038,0.8038,0.8038,0.8038,0.8038,0.8038,0.8038,0.8038,0.8038,0.0,0.8038,0.8038,0.8038,0.8038,0.8038,0.8038,0.8038,0.8038,0.8038,0.8136,0.8279,0.8343,0.8279,0.8177,0.8248,0.8272,0.8265,0.8187,0.8275,0.8401,0.8387,0.833,0.8289,0.8367,0.8431,0.852,0.8672,0.871,0.8733,0.8815,0.8767,0.9112,1.0298,1.0269,1.1263,1.5107,1.6355,1.6522,1.594,1.5843,1.581,1.5763,1.5846,1.5846,1.5846,1.5817,1.5832,1.5832,1.5832,1.5832,1.5832,1.5832,1.5638,1.5217,1.5064,1.4776,1.4329,1.4322,1.4175,1.3881,1.4021,1.3948,1.3687,1.3654,1.3654,0.0,0.085,0.1954,0.3143,0.0,0.0,0.0,0.0,0.0,0.0,0.0,0.0,0.0,0.0,0.0,0.0,0.0,0.7489,0.7678,0.7634,0.7695,0.8004,0.7967,0.7997,0.8197,0.8109,0.8038,0.8038,0.8038,0.8038,0.8038,0.8038,0.8038,0.8038,0.8038,0.8038,0.8038,0.8038,0.8038,0.8038,0.8038,0.8038,0.8038,0.8038,0.8038,0.8038,0.8038,0.8038,0.8038,0.8038,0.8038,0.8038,0.8038,0.8038,0.8038,0.8038,0.8113,0.8221,0.8258,0.8248,0.8228,0.8296,0.837,0.8411,0.8303,0.8452,0.8632,0.8516,0.8428,0.8397,0.8506,0.8564,0.8618,0.8737,0.8764,0.8798,0.8913,0.8849,0.9085,1.0046,0.9391,0.9753,1.3545,1.6037,1.7262,1.6388,1.5937,1.5944,1.6176,1.598,1.5823,1.5823,1.5794,1.5832,1.5832,1.5832,1.5832,1.5832,1.5832,1.5698,1.5404,1.5398,1.515,1.4636,1.4556,1.4442,1.4289,1.4222,1.4222,1.4282,1.3988,1.3968,0.0,0.0059,0.0182,0.0285,0.0,0.0,0.0,0.0,0.0,0.0,0.0,0.0,0.0,0.0,0.0,0.0,0.7397,0.7682,0.7967,0.0,0.8163,0.8052,0.8157,0.8191,0.8069,0.8045,0.8038,0.8038,0.8038,0.8038,0.8038,0.8038,0.8038,0.8038,0.8038,0.8038,0.8038,0.8038,0.8038,0.8038,0.8038,0.8038,0.8038,0.8038,0.8038,0.8038,0.8038,0.8038,0.8038,0.8038,0.8038,0.8038,0.8038,0.8038,0.8038,0.8038,0.8045,0.8075,0.8221,0.8177,0.8102,0.8377,0.8384,0.8286,0.8275,0.8377,0.8496,0.8486,0.8577,0.8679,0.8693,0.8801,0.891,0.892,0.8923,0.8923,0.8937,0.893,0.8923,0.903,0.8967,0.8948,0.9344,1.3909,1.753,1.7524,1.6524,1.624,1.7355,1.6446,1.5823,1.5823,1.5794,1.5832,1.5832,1.5832,1.5832,1.5832,1.5832,1.5698,1.5404,1.5398,1.5251,1.4937,1.4663,1.4643,1.4903,1.4623,1.4629,1.4897,1.4596,1.4469,0.0,0.0,0.0,0.0,0.0,0.0,0.0,0.0,0.0,0.0,0.0,0.0,0.0,0.0,0.0,0.0,0.7536,0.7804,0.8011,0.8089,0.8106,0.8045,0.8092,0.8102,0.8045,0.8038,0.8038,0.8038,0.8038,0.8038,0.8038,0.8038,0.8038,0.8038,0.8038,0.8038,0.8038,0.8038,0.8038,0.8038,0.8038,0.8038,0.8038,0.8038,0.8038,0.8038,0.8038,0.8038,0.8038,0.8038,0.8038,0.8038,0.8038,0.8038,0.8052,0.8147,0.8123,0.8062,0.8218,0.817,0.8058,0.817,0.8296,0.8384,0.8296,0.8503,0.8747,0.8652,0.8733,0.8852,0.8852,0.8896,0.894,0.894,0.894,0.894,0.894,0.894,0.894,0.894,0.8951,0.8876,0.8903,1.3768,1.7546,1.7646,1.7255,1.7098,1.7586,1.4066,1.2638,1.5463,1.5835,1.5832,1.5832,1.5832,1.5832,1.5832,1.5832,1.5778,1.5671,1.5665,1.5531,1.5237,1.5124,1.503,1.4963,1.485,1.4856,1.4957,1.4656,1.4623,0.0,0.0,0.0,0.0,0.0,0.0,0.0,0.0,0.0,0.0,0.0,0.0,0.0,0.0,0.0,0.0,0.7658,0.7919,0.8024,0.8038,0.8038,0.8038,0.8038,0.8038,0.8038,0.8038,0.8038,0.8038,0.8038,0.8038,0.8038,0.8038,0.8038,0.8038,0.8038,0.8038,0.8038,0.8038,0.8038,0.8038,0.8038,0.8038,0.8038,0.8038,0.8038,0.8038,0.8038,0.8038,0.8038,0.8038,0.8038,0.8038,0.8038,0.8038,0.8052,0.816,0.813,0.8055,0.816,0.813,0.8048,0.8096,0.8252,0.8397,0.8299,0.855,0.8835,0.8679,0.8784,0.894,0.894,0.894,0.894,0.894,0.894,0.894,0.894,0.894,0.894,0.894,0.8899,0.8862,0.8948,1.2257,1.5464,1.7364,1.7649,1.7563,1.7582,1.2536,1.0414,1.4292,1.5041,1.5242,1.5153,1.5534,1.5832,1.5832,1.5832,1.5832,1.5832,1.5832,1.5732,1.5538,1.5444,1.5344,1.5237,1.5144,1.515,1.5231,1.493,1.4903,0.0,0.0,0.0,0.0,0.0,0.0,0.0,0.0,0.0,0.0,0.0,0.0,0.0,0.0,0.0,0.7299,0.7743,0.8035,0.8038,0.8038,0.8038,0.8038,0.8038,0.8038,0.8038,0.8038,0.8038,0.8038,0.8038,0.8038,0.8038,0.8038,0.8038,0.8038,0.8038,0.8038,0.8038,0.8038,0.8038,0.8038,0.8038,0.8038,0.8038,0.8038,0.8038,0.8038,0.8038,0.8038,0.8038,0.8038,0.8038,0.8038,0.8038,0.8038,0.8038,0.8041,0.8041,0.8038,0.8041,0.8041,0.8065,0.8218,0.8269,0.8272,0.8269,0.8476,0.8676,0.8523,0.8699,0.8937,0.8937,0.8937,0.894,0.894,0.894,0.894,0.894,0.894,0.894,0.894,0.894,0.8916,0.8849,0.8948,1.0849,1.6698,1.7525,1.7525,1.7531,1.2505,0.9804,1.1903,1.327,1.4062,1.3902,1.5051,1.5832,1.5832,1.5832,1.5832,1.5832,1.5832,1.5832,1.5832,1.5545,1.5538,1.5832,1.5538,1.5545,1.5818,1.5531,1.5398,0.0,0.0,0.0,0.0,0.0,0.0,0.0,0.0,0.0,0.0,0.0,0.0,0.0,0.0,0.0,0.7333,0.7573,0.7801,0.8011,0.8038,0.8038,0.8038,0.8038,0.8038,0.8038,0.8038,0.8038,0.8038,0.8038,0.8038,0.8038,0.8038,0.8038,0.8038,0.8038,0.8038,0.8038,0.8038,0.8038,0.8038,0.8038,0.8038,0.8038,0.8038,0.8038,0.8038,0.8038,0.8038,0.8038,0.8038,0.8038,0.8038,0.8038,0.8038,0.8052,0.8163,0.8133,0.8055,0.8163,0.813,0.8045,0.8092,0.818,0.8252,0.814,0.8316,0.852,0.8374,0.855,0.8777,0.8777,0.8859,0.894,0.894,0.894,0.894,0.894,0.894,0.894,0.894,0.8907,0.8933,0.893,0.895,0.9511,1.1206,1.1472,1.1454,1.1516,1.0911,1.0318,0.9882,1.1644,1.3137,1.354,1.4178,1.4996,1.5754,1.5777,1.5832,1.5832,1.5832,1.5832,1.5832,1.5745,1.5745,1.5832,1.5745,1.5745,1.5818,1.5531,1.5504,0.0,0.0,0.0,0.0,0.0,0.0,0.0,0.0,0.0,0.0,0.0,0.0,0.0,0.0,0.0,0.7158,0.7409,0.7662,0.7838,0.7913,0.7926,0.7872,0.7967,0.8014,0.7957,0.7946,0.7946,0.7946,0.7896,0.7889,0.7946,0.7946,0.7946,0.7946,0.7946,0.7946,0.7946,0.7946,0.798,0.8038,0.8038,0.8038,0.8038,0.8038,0.8038,0.8038,0.8038,0.8038,0.8038,0.8038,0.8038,0.8038,0.8038,0.8038,0.8052,0.8143,0.8119,0.8055,0.8147,0.8116,0.8038,0.8038,0.8102,0.8163,0.8069,0.8208,0.8391,0.8364,0.8526,0.8723,0.8784,0.8869,0.894,0.894,0.894,0.894,0.894,0.894,0.8954,0.8897,0.893,0.8943,0.9259,0.9015,0.8863,0.8889,0.8951,0.8937,0.8872,0.9704,0.9954,0.8997,1.0164,1.1173,1.1508,1.2615,1.3952,1.5732,1.5776,1.5754,1.5803,1.5757,1.5832,1.5832,1.5832,1.5832,1.5832,1.5832,1.5832,1.5825,1.5651,1.5665,0.0,0.0,0.0,0.0,0.0,0.0,0.0,0.0,0.0,0.0,0.0,0.0,0.0,0.6946,0.694,0.7057,0.7293,0.7567,0.7597,0.7709,0.7743,0.7614,0.7834,0.7943,0.7804,0.779,0.779,0.779,0.7672,0.7655,0.7784,0.779,0.779,0.779,0.779,0.779,0.779,0.779,0.7862,0.7997,0.8014,0.8011,0.8001,0.8028,0.8038,0.8038,0.8038,0.8038,0.8038,0.8038,0.8038,0.8038,0.8038,0.8038,0.8038,0.8038,0.8038,0.8038,0.8038,0.8038,0.8038,0.8038,0.8038,0.8038,0.8038,0.8136,0.8275,0.8404,0.856,0.872,0.8862,0.8916,0.894,0.894,0.894,0.894,0.894,0.894,0.8866,0.8874,0.8923,0.9113,0.9582,0.9269,0.8954,0.894,0.894,0.894,0.894,0.894,0.8886,0.8858,0.8904,0.8807,0.8543,1.045,1.263,1.4902,1.5515,1.5622,1.5069,1.5586,1.5838,1.5832,1.5832,1.5832,1.5832,1.5832,1.5832,1.5832,1.5832,1.5832,0.0,0.0,0.0,0.0,0.0,0.0,0.0,0.0,0.0,0.0,0.0,0.0,0.0,0.6877,0.677,0.7235,0.7295,0.7322,0.7567,0.753,0.7537,0.7604,0.7655,0.7682,0.7648,0.7645,0.7645,0.7645,0.7617,0.7614,0.7645,0.7645,0.7645,0.7645,0.7645,0.7645,0.7645,0.7645,0.7662,0.7695,0.7807,0.7801,0.7702,0.7933,0.8038,0.8038,0.8038,0.8038,0.8038,0.8038,0.8038,0.8038,0.8038,0.8038,0.8038,0.8038,0.8038,0.8038,0.8038,0.8038,0.8038,0.8038,0.8038,0.8038,0.8038,0.8062,0.8096,0.8126,0.8326,0.8537,0.857,0.8757,0.894,0.894,0.894,0.894,0.894,0.894,0.8947,0.8866,0.9283,0.9542,0.9116,0.894,0.895,0.8846,0.894,0.894,0.894,0.894,0.8927,0.8893,0.8879,0.892,0.8769,0.9309,0.9548,0.9722,1.3495,1.3945,0.9858,1.359,1.5823,1.5832,1.5832,1.5832,1.5832,1.5832,1.5832,1.5832,1.5832,1.5832,0.0,0.0,0.0,0.0,0.0,0.0,0.0,0.0,0.0,0.0,0.0,0.0,0.6764,0.6701,0.6705,0.6853,0.6897,0.6987,0.7146,0.7141,0.7161,0.7177,0.7295,0.7353,0.7285,0.7339,0.7353,0.7285,0.7278,0.7278,0.7278,0.7343,0.738,0.738,0.738,0.738,0.738,0.738,0.7417,0.7492,0.7641,0.7672,0.7607,0.7828,0.797,0.8038,0.8038,0.7997,0.7936,0.8011,0.7994,0.7936,0.8011,0.8038,0.8038,0.8038,0.8038,0.8038,0.8038,0.8038,0.8038,0.8038,0.8038,0.8038,0.8038,0.8038,0.8055,0.813,0.8262,0.8394,0.8465,0.8655,0.8828,0.8828,0.8886,0.894,0.894,0.894,0.8846,0.8913,0.9161,0.9279,0.8927,0.893,0.891,0.895,0.894,0.894,0.894,0.894,0.894,0.894,0.894,0.8906,0.8937,0.8873,0.8622,0.8001,1.0813,1.1199,0.8327,1.1642,1.3871,1.4854,1.4854,1.5146,1.5832,1.5832,1.5832,1.5832,1.5832,1.5832,0.0,0.0,0.0,0.0,0.0,0.0,0.0,0.0,0.0,0.0,0.0,0.6137,0.6059,0.6218,0.6309,0.626,0.6423,0.6593,0.662,0.6753,0.68,0.6675,0.6898,0.7017,0.6902,0.6997,0.7014,0.6898,0.6892,0.6892,0.6892,0.7,0.7065,0.7065,0.7065,0.7065,0.7065,0.7065,0.7129,0.7258,0.7411,0.7522,0.76,0.7665,0.7794,0.7963,0.7963,0.7892,0.7784,0.7913,0.7902,0.7824,0.795,0.8018,0.8038,0.8038,0.8038,0.8038,0.8038,0.8038,0.8038,0.8038,0.8038,0.8038,0.8038,0.8038,0.8065,0.8194,0.8248,0.8296,0.8414,0.8577,0.871,0.871,0.8828,0.894,0.894,0.894,0.8863,0.8861,0.8907,0.8863,0.8864,0.8903,0.894,0.894,0.894,0.894,0.894,0.894,0.894,0.894,0.894,0.894,0.894,0.891,0.871,0.8157,0.8673,0.8786,0.8623,0.9879,1.1444,1.3266,1.3409,1.4076,1.5146,1.5146,1.5146,1.5146,1.5146,1.5146,0.0,0.0,0.0,0.0,0.0,0.0,0.0,0.0,0.0,0.0,0.3471,0.4301,0.4811,0.4956,0.5217,0.5947,0.6043,0.6166,0.6302,0.6361,0.6441,0.6505,0.6654,0.6753,0.6732,0.6749,0.6753,0.6732,0.6729,0.6729,0.6729,0.6749,0.6759,0.6759,0.6759,0.6759,0.6759,0.6759,0.677,0.6793,0.6946,0.7221,0.759,0.7343,0.7387,0.7658,0.7658,0.7648,0.7631,0.7651,0.7719,0.7814,0.7834,0.7923,0.8038,0.8038,0.8038,0.8038,0.8038,0.8038,0.8038,0.8038,0.8038,0.8038,0.8038,0.8038,0.8041,0.8065,0.8167,0.8275,0.8292,0.8503,0.871,0.871,0.8828,0.894,0.894,0.894,0.8944,0.8853,0.895,0.8944,0.8853,0.895,0.894,0.894,0.894,0.894,0.894,0.894,0.894,0.894,0.894,0.894,0.894,0.891,0.8824,0.8821,0.8892,0.8909,0.8797,0.9097,0.9618,1.0628,1.1644,1.2237,1.2431,1.2431,1.2431,1.2431,1.2431,1.2431,-0.0427,0.0,0.0,0.0,0.0,0.0,0.0,0.0,0.0,0.247,0.2509,0.2644,0.388,0.4089,0.4367,0.514,0.4957,0.4812,0.5309,0.5075,0.5033,0.5409,0.5539,0.5761,0.6237,0.6403,0.6454,0.6454,0.6454,0.6454,0.6454,0.6373,0.64,0.6566,0.6495,0.6491,0.6573,0.6573,0.6617,0.6702,0.677,0.6905,0.7092,0.6956,0.7105,0.7465,0.738,0.7299,0.7238,0.7404,0.7458,0.7451,0.7624,0.7733,0.7801,0.7882,0.7913,0.7923,0.8011,0.8038,0.8038,0.8038,0.8038,0.8038,0.8038,0.8038,0.8038,0.8038,0.8089,0.814,0.814,0.8303,0.8482,0.8564,0.8699,0.8835,0.892,0.894,0.894,0.894,0.894,0.894,0.894,0.894,0.894,0.894,0.894,0.894,0.894,0.894,0.894,0.894,0.894,0.894,0.894,0.8879,0.8951,0.8951,0.8889,0.8852,0.8852,0.8876,0.9111,0.9448,1.0395,1.1279,1.1945,1.1945,1.1945,1.1945,1.1945,1.1945,0.0,0.0,0.0,0.0,0.0,0.0,0.0,0.0,0.0,0.0,0.158,0.1446,0.2684,0.2955,0.3203,0.3958,0.3863,0.3858,0.4281,0.3923,0.3813,0.4308,0.4408,0.4751,0.5587,0.577,0.599,0.6142,0.6146,0.6146,0.6146,0.6034,0.6071,0.6295,0.62,0.6196,0.6302,0.6339,0.6437,0.659,0.6624,0.6664,0.6698,0.6661,0.6827,0.7139,0.7061,0.6966,0.6888,0.7109,0.7177,0.7163,0.7394,0.7529,0.7611,0.7719,0.7756,0.778,0.7929,0.798,0.7987,0.8028,0.8038,0.8038,0.8038,0.8038,0.8038,0.8038,0.8038,0.8038,0.8038,0.8153,0.8296,0.8404,0.8574,0.8754,0.8906,0.894,0.894,0.894,0.894,0.894,0.894,0.894,0.894,0.894,0.894,0.894,0.894,0.894,0.894,0.894,0.894,0.894,0.894,0.894,0.894,0.894,0.894,0.892,0.8882,0.892,0.8828,0.8821,0.9438,1.0146,1.0955,1.09,1.0904,1.0955,1.0955,1.0955,0.0,0.0,0.0,0.0,0.0,0.0,0.0,0.0,0.0,0.0,0.0636,0.1015,0.0743,0.0994,0.1487,0.2356,0.3299,0.3747,0.3361,0.3385,0.343,0.343,0.3652,0.3998,0.472,0.4798,0.5096,0.5751,0.5827,0.5827,0.5827,0.5817,0.582,0.5833,0.583,0.583,0.5837,0.5979,0.6132,0.6285,0.642,0.6559,0.6695,0.6549,0.6498,0.6525,0.6664,0.6719,0.6712,0.6729,0.6895,0.7143,0.7156,0.7343,0.76,0.7607,0.7611,0.7631,0.7773,0.7824,0.7845,0.7991,0.8038,0.8038,0.8038,0.8038,0.8038,0.8038,0.8038,0.8038,0.8038,0.8153,0.8272,0.8279,0.8503,0.8754,0.8906,0.894,0.894,0.894,0.894,0.894,0.894,0.894,0.894,0.894,0.894,0.894,0.894,0.894,0.894,0.894,0.894,0.894,0.894,0.894,0.894,0.894,0.894,0.8876,0.8949,0.8855,0.8838,0.8621,0.8619,0.8605,0.8459,0.831,0.8313,0.8459,0.8459,0.8459,0.0,0.0,0.0,0.0,0.0,0.0,0.0,0.0,0.0,0.0,0.0223,0.0401,0.0464,0.0591,0.0843,0.1103,0.1649,0.2143,0.262,0.2268,0.2112,0.2525,0.265,0.2984,0.3787,0.3863,0.406,0.4419,0.4714,0.4864,0.495,0.5122,0.5369,0.5657,0.5572,0.561,0.58,0.5857,0.5911,0.5966,0.6017,0.6122,0.6268,0.6213,0.6244,0.6339,0.6393,0.642,0.6434,0.6624,0.6763,0.6868,0.6966,0.7129,0.7316,0.7417,0.7455,0.7475,0.7624,0.7675,0.7699,0.7845,0.7896,0.8014,0.8011,0.8038,0.8038,0.8038,0.8038,0.8038,0.8038,0.8079,0.817,0.836,0.8564,0.8754,0.8906,0.894,0.894,0.894,0.894,0.894,0.894,0.894,0.894,0.894,0.894,0.894,0.894,0.894,0.894,0.894,0.894,0.894,0.894,0.894,0.894,0.894,0.894,0.8913,0.8862,0.8481,0.8494,0.8776,0.863,0.8426,0.8272,0.8116,0.8062,0.8297,0.8416,0.8426,-0.4306,0.0,0.0,0.0,0.0,0.0,0.0,0.0,0.0,0.0,0.0,0.0056,0.028,0.0343,0.035,0.0357,0.0474,0.089,0.1635,0.1373,0.1263,0.167,0.1758,0.2048,0.2864,0.2935,0.3181,0.3717,0.3997,0.4142,0.4223,0.4385,0.4552,0.4752,0.4739,0.4838,0.5018,0.5067,0.5114,0.516,0.5204,0.5372,0.5657,0.5657,0.5858,0.6112,0.6217,0.6338,0.6278,0.6471,0.658,0.6637,0.6793,0.6943,0.7088,0.7238,0.7292,0.7316,0.7468,0.7522,0.7553,0.7746,0.7911,0.8039,0.7994,0.8038,0.8038,0.8038,0.8038,0.8038,0.8038,0.8038,0.8102,0.835,0.8489,0.8618,0.8818,0.8903,0.894,0.894,0.894,0.894,0.894,0.894,0.894,0.894,0.894,0.894,0.894,0.894,0.894,0.894,0.894,0.894,0.894,0.894,0.894,0.894,0.894,0.8916,0.8866,0.854,0.8441,0.8564,0.8581,0.8374,0.8166,0.8167,0.8166,0.8226,0.8354,0.8577,0.0,0.0,0.0,0.0,0.0,0.0,-0.0,0.0,0.0,0.0,0.0,0.0,0.0,0.0,0.0,0.0,0.0,0.0118,0.0353,0.0725,0.0986,0.0986,0.0986,0.1294,0.197,0.2093,0.2525,0.3702,0.3822,0.3758,0.3569,0.3569,0.3383,0.3073,0.3254,0.3376,0.3376,0.3542,0.3711,0.3889,0.4056,0.4377,0.5,0.5,0.529,0.5745,0.6115,0.6251,0.6254,0.6264,0.6349,0.6485,0.6634,0.679,0.6946,0.7085,0.7136,0.7163,0.7312,0.7363,0.7411,0.7702,0.7901,0.8032,0.7987,0.8035,0.8038,0.8038,0.8038,0.8038,0.8038,0.8038,0.8079,0.8235,0.8272,0.835,0.8531,0.8709,0.893,0.8937,0.8937,0.8933,0.894,0.894,0.894,0.894,0.894,0.894,0.894,0.894,0.894,0.894,0.894,0.894,0.894,0.894,0.894,0.894,0.894,0.8872,0.8946,0.8935,0.8574,0.7968,0.8272,0.8374,0.7955,0.8367,0.831,0.8047,0.8383,0.8608,-0.4402,0.0,0.0,0.0,0.0,0.0,0.0,0.0,0.0,0.0,0.0,0.0,0.0,0.0,0.0,0.0,0.0,0.0,0.0114,0.0234,0.0414,0.0867,0.0942,0.1074,0.1194,0.1253,0.1385,0.0,0.2295,0.2561,0.2502,0.2498,0.2556,0.2615,0.2978,0.3258,0.3376,0.3468,0.3537,0.3774,0.3803,0.3984,0.431,0.431,0.4425,0.4648,0.4865,0.5024,0.5123,0.609,0.6437,0.6474,0.6519,0.6698,0.6932,0.6973,0.7051,0.7146,0.719,0.7204,0.7238,0.7431,0.757,0.7784,0.7931,0.7953,0.8038,0.8038,0.8038,0.8038,0.8038,0.8038,0.8079,0.8235,0.8272,0.8323,0.8503,0.869,0.8894,0.8896,0.8852,0.892,0.892,0.894,0.894,0.894,0.894,0.894,0.894,0.894,0.894,0.894,0.894,0.894,0.894,0.894,0.894,0.894,0.894,0.892,0.8879,0.8882,0.8621,0.7998,0.811,0.8061,0.7955,0.8056,0.8313,0.8605,0.8712,0.8876,0.0,0.0,0.0,0.0,0.0,0.0,-0.2285,-0.1392,-0.0755,0.0,0.0,-0.0392,-0.1625,-0.0841,0.0,0.0,0.0,0.0,0.0,0.0,0.0115,0.0506,0.0799,0.0924,0.0924,0.0924,0.0931,0.0949,0.1341,0.1614,0.1614,0.144,0.1496,0.1785,0.217,0.237,0.2366,0.2484,0.2647,0.2917,0.2955,0.3109,0.3244,0.3283,0.3535,0.4012,0.4175,0.43,0.4559,0.5461,0.5909,0.6076,0.5974,0.6267,0.6689,0.6905,0.7004,0.7082,0.6688,0.6526,0.6548,0.6866,0.7155,0.7443,0.7875,0.8025,0.8045,0.8045,0.7991,0.8038,0.8038,0.8038,0.8062,0.8153,0.8174,0.8214,0.8257,0.8446,0.8602,0.8804,0.8949,0.8852,0.8941,0.8896,0.894,0.894,0.894,0.894,0.894,0.894,0.894,0.894,0.894,0.894,0.894,0.894,0.894,0.894,0.894,0.891,0.8849,0.8918,0.8762,0.8397,0.8143,0.7968,0.7968,0.8042,0.8303,0.8945,0.8928,0.8862,0.0,0.0,0.0,0.0,0.0,0.0,-0.4524,-0.3441,-0.2101,0.0,-0.0383,-0.1061,-0.3766,-0.2188,-0.0448,-0.0279,-0.0224,-0.0168,-0.0,0.0,0.0,0.0,0.0449,0.0842,0.0898,0.0898,0.0898,0.0898,0.0898,0.0898,0.0785,0.0505,0.0505,0.0785,0.1066,0.1066,0.0842,0.1066,0.137,0.1712,0.1827,0.1943,0.2059,0.2054,0.2616,0.35,0.3532,0.3637,0.4014,0.446,0.4908,0.5249,0.5132,0.5433,0.5975,0.6502,0.6701,0.6557,0.5783,0.5552,0.566,0.6026,0.6627,0.7135,0.7543,0.7777,0.7894,0.799,0.7902,0.7819,0.7922,0.7932,0.7942,0.7942,0.8041,0.7979,0.8008,0.8036,0.8119,0.8702,0.8776,0.8779,0.8904,0.8924,0.8913,0.8913,0.8913,0.8913,0.8913,0.8899,0.8889,0.8889,0.8889,0.8889,0.8889,0.8889,0.8889,0.8889,0.8889,0.8937,0.8911,0.8789,0.8755,0.8801,0.824,0.7955,0.8038,0.7985,0.823,0.8783,0.88,0.8696,0.0,0.0,0.0,0.0,0.0,0.0,-0.4494,-0.4288,-0.3965,0.0,-0.2613,-0.1952,-0.2514,-0.319,-0.319,-0.1953,-0.1785,-0.1341,-0.0168,0.0,0.0,0.0,0.0112,0.0393,0.0842,0.0898,0.0898,0.0898,0.0898,0.0673,0.0224,0.0112,0.0112,0.0168,0.0449,0.0561,0.0505,0.0561,0.0742,0.1061,0.1096,0.1191,0.1288,0.1326,0.1411,0.1613,0.1631,0.1655,0.1756,0.2113,0.3218,0.4508,0.3824,0.3584,0.3739,0.3843,0.4014,0.4262,0.408,0.4469,0.5193,0.5213,0.6108,0.6948,0.5937,0.6406,0.7377,0.7865,0.7382,0.6896,0.7798,0.7579,0.735,0.7862,0.7965,0.7972,0.7992,0.7972,0.8069,0.8116,0.8146,0.8287,0.8832,0.8876,0.8869,0.8869,0.8869,0.8869,0.8869,0.8869,0.8899,0.8899,0.8899,0.8899,0.8899,0.8899,0.8899,0.8899,0.8899,0.8885,0.8857,0.8398,0.8213,0.817,0.8031,0.7958,0.8038,0.7985,0.8074,0.8206,0.8213,0.8157,0.0,0.0,0.0,-0.4519,0.0,0.0,0.0,-0.4525,-0.4473,-0.4487,-0.386,-0.335,-0.335,-0.3978,-0.4265,-0.3466,-0.3355,-0.3077,-0.2352,-0.0951,0.0,0.0,-0.0672,-0.0784,-0.0056,0.0,0.0224,0.0842,0.0898,0.0112,-0.1685,-0.0673,0.0,0.0,0.0112,0.0224,0.0224,0.0224,-0.017,-0.0921,-0.1448,-0.0932,0.0568,0.0528,0.0538,0.0539,0.0546,0.0756,0.1104,0.1436,0.2572,0.4033,0.317,0.2288,0.1521,0.1575,0.1691,0.1801,0.1769,0.2415,0.3223,0.322,0.3695,0.4458,0.5644,0.5907,0.5634,0.5499,0.507,0.4916,0.6085,0.6967,0.7572,0.7878,0.7211,0.6539,0.7051,0.7656,0.7852,0.7341,0.7187,0.7477,0.835,0.8401,0.8505,0.8828,0.8934,0.8821,0.8488,0.8421,0.8479,0.8479,0.8479,0.8479,0.8479,0.8479,0.8479,0.8479,0.8479,0.8448,0.8484,0.8128,0.7959,0.7955,0.8049,0.8016,0.8038,0.8016,0.8049,0.7951,0.8018,0.8047,0.0,0.0,0.0,0.0,0.0,-0.4677,0.0,0.0,0.0,0.0,0.0,0.0,0.0,0.0,0.0,0.0,0.0,0.0,0.0,-0.2561,0.0,-0.0503,-0.1454,-0.2015,-0.1625,-0.1342,-0.0726,0.0224,0.028,-0.0728,-0.3154,-0.1626,-0.056,-0.0336,-0.0336,-0.0336,-0.0336,-0.0336,-0.1065,-0.2531,-0.3545,-0.2905,-0.0742,-0.0524,-0.0336,-0.0337,-0.0345,-0.0,0.0609,0.0927,0.1823,0.2863,0.2225,0.1174,0.0,0.0,0.0,0.0,0.0,0.0538,0.1166,0.1165,0.1164,0.17,0.4839,0.4894,0.3772,0.2616,0.2352,0.2548,0.3591,0.5578,0.7246,0.6649,0.5134,0.4292,0.6014,0.6426,0.6434,0.6437,0.6434,0.6662,0.7582,0.7726,0.7824,0.8351,0.8567,0.856,0.8014,0.7985,0.7969,0.7969,0.7969,0.7969,0.7969,0.7969,0.7969,0.7969,0.7969,0.8027,0.8021,0.8014,0.8089,0.813,0.8126,0.8113,0.7982,0.8009,0.7995,0.8038,0.8038,0.7955,0.0,0.0,0.0,0.0,-0.4948,0.0,0.0,0.0,-0.615,-0.5546,0.0,0.0,0.0,0.0,0.0,0.0,0.0,0.0,-0.4656,-0.4918,-0.4416,-0.2228,-0.212,-0.2681,-0.3984,-0.2852,-0.2007,-0.184,-0.184,-0.1899,-0.2015,-0.2749,-0.2693,-0.1623,-0.1623,-0.1623,-0.1623,-0.1623,-0.1679,-0.1905,-0.2755,-0.3213,-0.3345,-0.2291,-0.1679,-0.1412,-0.1752,-0.1617,-0.1283,-0.1068,-0.0655,-0.0073,0.015,0.0154,0.0,0.0,0.0,0.0,0.0,0.009,0.018,0.018,0.0179,0.0269,0.0717,0.1887,0.2702,0.0812,0.0366,0.0371,0.0464,0.2827,0.4403,0.1622,0.0677,0.1666,0.5515,0.3479,0.2006,0.5636,0.6353,0.6456,0.6545,0.6545,0.6627,0.6627,0.7458,0.8084,0.7978,0.7968,0.7985,0.7985,0.7985,0.7985,0.7985,0.7985,0.7985,0.7985,0.7985,0.7979,0.7965,0.7965,0.8285,0.8751,0.8539,0.8263,0.8031,0.805,0.7981,0.8038,0.8038,0.8009,0.0,0.0,0.0,0.0,0.0,0.0,-0.4893,0.0,-0.5869,0.0,0.0,0.0,0.0,0.0,0.0,0.0,-0.6588,0.0,0.0,0.0,-0.5928,0.0,0.0,0.0,-0.5332,-0.4999,-0.4772,-0.4772,-0.3999,-0.3619,-0.3849,-0.3699,-0.3368,-0.2854,-0.2858,-0.286,-0.286,-0.286,-0.2802,-0.2691,-0.3114,-0.3394,-0.3584,-0.3153,-0.3045,-0.3163,-0.2893,-0.2624,-0.2499,-0.2315,-0.1869,-0.1316,-0.09,-0.0461,0.0,0.0,0.0,0.0,0.0,0.0,0.0,0.0,0.0,0.0,0.0,0.0539,0.1075,0.0265,0.0,0.0,0.0,0.1006,0.1685,0.0281,0.0,0.0483,0.225,0.128,0.1289,0.5543,0.6372,0.5959,0.4728,0.5571,0.6417,0.6406,0.6813,0.7324,0.7938,0.7985,0.8045,0.8038,0.8038,0.8038,0.8038,0.7952,0.7959,0.7959,0.7965,0.7969,0.7969,0.7969,0.813,0.8361,0.8663,0.8635,0.848,0.8203,0.7994,0.7975,0.7968,0.8041,-0.4519,0.0,0.0,0.0,0.0,0.0,0.0,0.0,0.0,0.0,0.0,0.0,0.0,0.0,0.0,0.0,0.0,-0.7128,0.0,-0.7074,0.0,0.0,0.0,0.0,0.0,-0.6421,-0.6603,-0.6603,-0.566,-0.5218,-0.5563,-0.4636,-0.403,-0.4021,-0.3811,-0.3705,-0.3705,-0.3705,-0.3646,-0.3479,-0.359,-0.3569,-0.353,-0.3703,-0.3883,-0.4064,-0.3595,-0.3276,-0.3105,-0.2915,-0.2625,-0.217,-0.1943,-0.1453,-0.078,-0.0322,-0.0165,-0.0169,-0.0345,-0.0353,-0.0359,-0.0359,-0.0359,-0.0359,-0.009,0.0,0.0,0.0,0.0,0.0,0.0,0.0,0.0,0.0,0.0,0.0,0.0,0.0,0.0879,0.3997,0.4616,0.4316,0.3324,0.4945,0.6361,0.645,0.6445,0.6648,0.7456,0.7862,0.7962,0.7955,0.7952,0.7952,0.7952,0.7969,0.7363,0.5932,0.5834,0.5839,0.5839,0.5839,0.5851,0.5783,0.7006,0.7635,0.774,0.7211,0.7373,0.8037,0.7981,0.805,0.0,0.0,0.0,-0.4519,0.0,0.0,0.0,0.0,-0.7616,0.0,0.0,0.0,0.0,0.0,0.0,0.0,0.0,0.0,0.0,0.0,0.0,0.0,0.0,0.0,0.0,-0.6588,-0.6588,-0.6588,-0.6534,-0.6475,-0.6357,-0.566,-0.5167,-0.505,-0.4346,-0.3968,-0.3968,-0.3968,-0.3968,-0.3968,-0.3929,-0.3873,-0.3882,-0.401,-0.3887,-0.3549,-0.3737,-0.3468,-0.2963,-0.2839,-0.2872,-0.2959,-0.3185,-0.3095,-0.266,-0.1119,-0.0661,-0.076,-0.1207,-0.1322,-0.1345,-0.1345,-0.1345,-0.1166,-0.0269,0.0,0.0,0.0,0.0,0.0,0.0,0.0,0.0,0.0,0.0,0.0,0.0,0.0,0.0,0.0196,0.0197,0.0889,0.2818,0.4951,0.6377,0.6374,0.6369,0.6361,0.6464,0.7378,0.7989,0.7989,0.7989,0.7989,0.7989,0.7989,0.5739,0.0601,0.03,0.03,0.03,0.03,0.0303,0.0206,0.2783,0.4336,0.4644,0.4646,0.5744,0.7995,0.8033,0.8317,0.0,0.0,-0.4519,-0.4519,0.0,0.0,0.0,0.0,0.0,0.0,0.0,0.0,0.0,0.0,0.0,0.0,0.0,0.0,0.0,0.0,0.0,0.0,0.0,0.0,0.0,0.0,-0.8049,-0.8049,-0.7616,-0.7283,-0.7111,-0.6411,-0.576,-0.5109,-0.4835,-0.4512,-0.4024,-0.4024,-0.4024,-0.4021,-0.3899,-0.3906,-0.4112,-0.3915,-0.3986,-0.4243,-0.4051,-0.3921,-0.383,-0.3735,-0.3498,-0.3369,-0.3489,-0.3422,-0.3258,-0.2896,-0.2734,-0.2723,-0.2485,-0.2379,-0.2424,-0.2424,-0.2424,-0.2334,-0.1974,-0.1436,-0.0805,-0.0176,-0.071,-0.17,-0.2561,-0.2131,-0.1434,-0.1434,-0.0721,0.0,0.0,0.0,0.0,0.0,0.0,0.0194,0.0988,0.1685,0.2686,0.4028,0.4234,0.4841,0.6261,0.6667,0.5847,0.3008,0.2707,0.2707,0.2707,0.2711,0.1911,0.0101,0.0,0.0,0.0,0.0,0.0,0.0,0.0932,0.145,0.1554,0.1551,0.3761,0.8027,0.7954,0.8282,-0.4519,-0.4519,0.0,-0.4519,-0.4519,0.0,-0.4787,0.0,-0.6091,0.0,0.0,0.0,0.0,0.0,0.0,0.0,0.0,0.0,0.0,-0.8804,0.0,0.0,0.0,0.0,0.0,-0.8804,-0.8804,-0.8804,-0.8374,-0.8043,-0.7984,-0.7278,-0.6632,-0.6032,-0.5542,-0.4999,-0.4512,-0.4294,-0.4187,-0.4187,-0.4073,-0.4123,-0.4324,-0.4092,-0.4174,-0.449,-0.4242,-0.4143,-0.4161,-0.4036,-0.3927,-0.387,-0.4013,-0.4184,-0.4254,-0.3827,-0.3785,-0.3912,-0.347,-0.3306,-0.3279,-0.3284,-0.3121,-0.2869,-0.2873,-0.2691,-0.2327,-0.2044,-0.2675,-0.3582,-0.4186,-0.3837,-0.3491,-0.3851,-0.2955,-0.1887,-0.1366,-0.1278,-0.101,-0.0187,0.0,0.0,0.0,-0.1576,-0.1689,0.1609,0.2016,0.252,0.3932,0.4135,0.3021,0.0301,0.0,0.0,0.0,0.0,0.0,0.0,0.0,0.0,0.0,0.0,0.0,0.0,0.0,0.0,0.0,0.0,0.1795,0.5173,0.5165,0.5343]}]]